Time,TemperatureF,DewpointF,PressureIn,WindDirection,WindDirectionDegrees,WindSpeedMPH,WindSpeedGustMPH,Humidity,HourlyPrecipIn,Conditions,Clouds,dailyrainin,SoftwareType,DateUTC
2013-05-08 00:00:00,64.0,42.3,29.91,SSW,196,60.0,60.0,45,0.00,,---,0.00,VWS V14.01,2013-05-08 05:00:00,
2013-05-08 00:01:00,64.0,42.8,29.91,SSW,200,60.0,60.0,46,0.00,,---,0.00,VWS V14.01,2013-05-08 05:01:00,
2013-05-08 00:02:00,63.9,42.7,29.91,SSW,203,60.0,60.0,46,0.00,,---,0.00,VWS V14.01,2013-05-08 05:02:00,
2013-05-08 00:04:00,63.9,42.7,29.91,SSW,200,60.0,60.0,46,0.00,,---,0.00,VWS V14.01,2013-05-08 05:04:00,
2013-05-08 00:06:00,63.7,42.5,29.91,SSW,206,60.0,60.0,46,0.00,,---,0.00,VWS V14.01,2013-05-08 05:06:00,
2013-05-08 01:04:00,61.3,42.5,29.91,SSW,198,60.0,60.0,50,0.00,,---,0.00,VWS V14.01,2013-05-08 06:04:00,
2013-05-08 01:05:00,61.3,42.5,29.91,SSW,198,60.0,60.0,50,0.00,,---,0.00,VWS V14.01,2013-05-08 06:05:00,
2013-05-08 01:06:00,61.3,42.5,29.91,SSW,198,60.0,60.0,50,0.00,,---,0.00,VWS V14.01,2013-05-08 06:06:00,
2013-05-08 01:07:00,61.3,42.5,29.91,SSW,198,60.0,60.0,50,0.00,,---,0.00,VWS V14.01,2013-05-08 06:07:00,
2013-05-08 01:08:00,61.3,42.5,29.91,SSW,198,60.0,60.0,50,0.00,,---,0.00,VWS V14.01,2013-05-08 06:08:00,
2013-05-08 01:09:00,61.3,42.5,29.91,SSW,198,60.0,60.0,50,0.00,,---,0.00,VWS V14.01,2013-05-08 06:09:00,
2013-05-08 01:10:00,61.3,42.5,29.91,SSW,198,60.0,60.0,50,0.00,,---,0.00,VWS V14.01,2013-05-08 06:10:00,
2013-05-08 01:11:00,61.3,42.5,29.91,SSW,198,60.0,60.0,50,0.00,,---,0.00,VWS V14.01,2013-05-08 06:11:00,
2013-05-08 01:12:00,61.3,42.5,29.91,SSW,198,60.0,60.0,50,0.00,,---,0.00,VWS V14.01,2013-05-08 06:12:00,
2013-05-08 01:13:00,61.3,42.5,29.91,SSW,198,60.0,60.0,50,0.00,,---,0.00,VWS V14.01,2013-05-08 06:13:00,
2013-05-08 01:14:00,61.3,42.5,29.91,SSW,198,60.0,60.0,50,0.00,,---,0.00,VWS V14.01,2013-05-08 06:14:00,
2013-05-08 01:15:00,61.2,42.4,29.91,SSW,198,60.0,60.0,50,0.00,,---,0.00,VWS V14.01,2013-05-08 06:15:00,
2013-05-08 01:16:00,61.2,42.4,29.91,SSW,198,60.0,60.0,50,0.00,,---,0.00,VWS V14.01,2013-05-08 06:16:00,
2013-05-08 01:17:00,61.2,42.4,29.91,SSW,198,60.0,60.0,50,0.00,,---,0.00,VWS V14.01,2013-05-08 06:17:00,
2013-05-08 01:18:00,61.2,42.4,29.91,SSW,198,60.0,60.0,50,0.00,,---,0.00,VWS V14.01,2013-05-08 06:18:00,
2013-05-08 01:19:00,61.2,42.4,29.91,SSW,198,60.0,60.0,50,0.00,,---,0.00,VWS V14.01,2013-05-08 06:19:00,
2013-05-08 01:21:00,61.2,43.0,29.91,SSW,198,60.0,60.0,51,0.00,,---,0.00,VWS V14.01,2013-05-08 06:21:00,
2013-05-08 01:22:00,61.2,43.0,29.91,SSW,198,60.0,60.0,51,0.00,,---,0.00,VWS V14.01,2013-05-08 06:22:00,
2013-05-08 01:23:00,61.0,42.8,29.91,SSW,198,60.0,60.0,51,0.00,,---,0.00,VWS V14.01,2013-05-08 06:23:00,
2013-05-08 01:24:00,61.0,42.8,29.91,SSW,198,60.0,60.0,51,0.00,,---,0.00,VWS V14.01,2013-05-08 06:24:00,
2013-05-08 01:25:00,61.0,42.8,29.91,SSW,198,60.0,60.0,51,0.00,,---,0.00,VWS V14.01,2013-05-08 06:25:00,
2013-05-08 01:26:00,61.0,42.8,29.91,SSW,198,60.0,60.0,51,0.00,,---,0.00,VWS V14.01,2013-05-08 06:26:00,
2013-05-08 01:27:00,60.9,42.7,29.91,SSW,198,60.0,60.0,51,0.00,,---,0.00,VWS V14.01,2013-05-08 06:27:00,
2013-05-08 01:28:00,60.9,42.7,29.91,SSW,198,60.0,60.0,51,0.00,,---,0.00,VWS V14.01,2013-05-08 06:28:00,
2013-05-08 01:29:00,60.9,42.7,29.91,SSW,198,60.0,60.0,51,0.00,,---,0.00,VWS V14.01,2013-05-08 06:29:00,
2013-05-08 01:30:00,60.9,42.7,29.91,SSW,198,60.0,60.0,51,0.00,,---,0.00,VWS V14.01,2013-05-08 06:30:00,
2013-05-08 01:31:00,60.9,42.7,29.91,SSW,198,60.0,60.0,51,0.00,,---,0.00,VWS V14.01,2013-05-08 06:31:00,
2013-05-08 01:32:00,60.7,42.5,29.91,SSW,198,60.0,60.0,51,0.00,,---,0.00,VWS V14.01,2013-05-08 06:32:00,
2013-05-08 01:33:00,60.7,42.5,29.91,SSW,198,60.0,60.0,51,0.00,,---,0.00,VWS V14.01,2013-05-08 06:33:00,
2013-05-08 01:34:00,60.7,42.5,29.91,SSW,198,60.0,60.0,51,0.00,,---,0.00,VWS V14.01,2013-05-08 06:34:00,
2013-05-08 01:35:00,60.5,42.8,29.91,SSW,198,60.0,60.0,52,0.00,,---,0.00,VWS V14.01,2013-05-08 06:35:00,
2013-05-08 01:36:00,60.5,42.8,29.91,SSW,198,60.0,60.0,52,0.00,,---,0.00,VWS V14.01,2013-05-08 06:36:00,
2013-05-08 01:37:00,60.5,42.8,29.91,SSW,198,60.0,60.0,52,0.00,,---,0.00,VWS V14.01,2013-05-08 06:37:00,
2013-05-08 01:38:00,60.5,42.8,29.91,SSW,198,60.0,60.0,52,0.00,,---,0.00,VWS V14.01,2013-05-08 06:38:00,
2013-05-08 01:39:00,60.4,42.7,29.91,SSW,198,60.0,60.0,52,0.00,,---,0.00,VWS V14.01,2013-05-08 06:39:00,
2013-05-08 01:40:00,60.4,42.7,29.91,SSW,198,60.0,60.0,52,0.00,,---,0.00,VWS V14.01,2013-05-08 06:40:00,
2013-05-08 01:41:00,60.4,42.7,29.91,SSW,198,60.0,60.0,52,0.00,,---,0.00,VWS V14.01,2013-05-08 06:41:00,
2013-05-08 01:42:00,60.4,42.7,29.91,SSW,198,60.0,60.0,52,0.00,,---,0.00,VWS V14.01,2013-05-08 06:42:00,
2013-05-08 01:43:00,60.4,42.7,29.91,SSW,198,60.0,60.0,52,0.00,,---,0.00,VWS V14.01,2013-05-08 06:43:00,
2013-05-08 01:44:00,60.2,42.5,29.91,SSW,198,60.0,60.0,52,0.00,,---,0.00,VWS V14.01,2013-05-08 06:44:00,
2013-05-08 01:45:00,60.2,42.5,29.91,SSW,198,60.0,60.0,52,0.00,,---,0.00,VWS V14.01,2013-05-08 06:45:00,
2013-05-08 01:46:00,60.2,42.5,29.91,SSW,198,60.0,60.0,52,0.00,,---,0.00,VWS V14.01,2013-05-08 06:46:00,
2013-05-08 01:47:00,60.2,42.5,29.91,SSW,198,60.0,60.0,52,0.00,,---,0.00,VWS V14.01,2013-05-08 06:47:00,
2013-05-08 01:48:00,60.2,42.5,29.91,SSW,198,60.0,60.0,52,0.00,,---,0.00,VWS V14.01,2013-05-08 06:48:00,
2013-05-08 01:49:00,60.2,42.5,29.91,SSW,198,60.0,60.0,52,0.00,,---,0.00,VWS V14.01,2013-05-08 06:49:00,
2013-05-08 01:50:00,60.2,42.5,29.91,SSW,198,60.0,60.0,52,0.00,,---,0.00,VWS V14.01,2013-05-08 06:50:00,
2013-05-08 01:51:00,60.2,43.0,29.91,SSW,198,60.0,60.0,53,0.00,,---,0.00,VWS V14.01,2013-05-08 06:51:00,
2013-05-08 01:52:00,60.2,43.0,29.91,SSW,198,60.0,60.0,53,0.00,,---,0.00,VWS V14.01,2013-05-08 06:52:00,
2013-05-08 01:53:00,60.1,42.9,29.91,SSW,198,60.0,60.0,53,0.00,,---,0.00,VWS V14.01,2013-05-08 06:53:00,
2013-05-08 01:54:00,60.1,42.9,29.91,SSW,198,60.0,60.0,53,0.00,,---,0.00,VWS V14.01,2013-05-08 06:54:00,
2013-05-08 01:55:00,60.1,42.9,29.91,SSW,198,60.0,60.0,53,0.00,,---,0.00,VWS V14.01,2013-05-08 06:55:00,
2013-05-08 01:56:00,60.1,42.9,29.91,SSW,198,60.0,60.0,53,0.00,,---,0.00,VWS V14.01,2013-05-08 06:56:00,
2013-05-08 01:57:00,60.1,42.9,29.91,SSW,198,60.0,60.0,53,0.00,,---,0.00,VWS V14.01,2013-05-08 06:57:00,
2013-05-08 01:58:00,60.1,42.9,29.91,SSW,198,60.0,60.0,53,0.00,,---,0.00,VWS V14.01,2013-05-08 06:58:00,
2013-05-08 01:59:00,59.9,42.7,29.91,SSW,198,60.0,60.0,53,0.00,,---,0.00,VWS V14.01,2013-05-08 06:59:00,
2013-05-08 02:00:00,59.9,42.7,29.91,SSW,198,60.0,60.0,53,0.00,,---,0.00,VWS V14.01,2013-05-08 07:00:00,
2013-05-08 02:01:00,59.9,42.7,29.91,SSW,198,60.0,60.0,53,0.00,,---,0.00,VWS V14.01,2013-05-08 07:01:00,
2013-05-08 02:02:00,59.9,42.7,29.91,SSW,198,60.0,60.0,53,0.00,,---,0.00,VWS V14.01,2013-05-08 07:02:00,
2013-05-08 02:03:00,59.8,42.7,29.91,SSW,198,60.0,60.0,53,0.00,,---,0.00,VWS V14.01,2013-05-08 07:03:00,
2013-05-08 02:04:00,59.8,42.7,29.91,SSW,198,60.0,60.0,53,0.00,,---,0.00,VWS V14.01,2013-05-08 07:04:00,
2013-05-08 02:05:00,59.8,42.7,29.91,SSW,198,60.0,60.0,53,0.00,,---,0.00,VWS V14.01,2013-05-08 07:05:00,
2013-05-08 02:06:00,59.8,42.7,29.91,SSW,198,60.0,60.0,53,0.00,,---,0.00,VWS V14.01,2013-05-08 07:06:00,
2013-05-08 02:07:00,59.6,42.5,29.91,SSW,198,60.0,60.0,53,0.00,,---,0.00,VWS V14.01,2013-05-08 07:07:00,
2013-05-08 02:08:00,59.6,42.5,29.91,SSW,198,60.0,60.0,53,0.00,,---,0.00,VWS V14.01,2013-05-08 07:08:00,
2013-05-08 02:09:00,59.6,42.5,29.91,SSW,198,60.0,60.0,53,0.00,,---,0.00,VWS V14.01,2013-05-08 07:09:00,
2013-05-08 02:10:00,59.5,42.9,29.91,SSW,198,60.0,60.0,54,0.00,,---,0.00,VWS V14.01,2013-05-08 07:10:00,
2013-05-08 02:11:00,59.5,42.9,29.91,SSW,198,60.0,60.0,54,0.00,,---,0.00,VWS V14.01,2013-05-08 07:11:00,
2013-05-08 02:12:00,59.5,42.9,29.91,SSW,198,60.0,60.0,54,0.00,,---,0.00,VWS V14.01,2013-05-08 07:12:00,
2013-05-08 02:13:00,59.5,42.9,29.91,SSW,198,60.0,60.0,54,0.00,,---,0.00,VWS V14.01,2013-05-08 07:13:00,
2013-05-08 02:14:00,59.3,42.7,29.91,SSW,198,60.0,60.0,54,0.00,,---,0.00,VWS V14.01,2013-05-08 07:14:00,
2013-05-08 02:15:00,59.3,42.7,29.91,SSW,198,60.0,60.0,54,0.00,,---,0.00,VWS V14.01,2013-05-08 07:15:00,
2013-05-08 02:16:00,59.3,42.7,29.91,SSW,198,60.0,60.0,54,0.00,,---,0.00,VWS V14.01,2013-05-08 07:16:00,
2013-05-08 02:17:00,59.3,42.7,29.91,SSW,198,60.0,60.0,54,0.00,,---,0.00,VWS V14.01,2013-05-08 07:17:00,
2013-05-08 02:18:00,59.3,42.7,29.91,SSW,198,60.0,60.0,54,0.00,,---,0.00,VWS V14.01,2013-05-08 07:18:00,
2013-05-08 02:19:00,59.2,42.6,29.91,SSW,198,60.0,60.0,54,0.00,,---,0.00,VWS V14.01,2013-05-08 07:19:00,
2013-05-08 02:20:00,59.2,42.6,29.91,SSW,198,60.0,60.0,54,0.00,,---,0.00,VWS V14.01,2013-05-08 07:20:00,
2013-05-08 02:21:00,59.2,42.6,29.91,SSW,198,60.0,60.0,54,0.00,,---,0.00,VWS V14.01,2013-05-08 07:21:00,
2013-05-08 02:22:00,59.2,42.6,29.91,SSW,198,60.0,60.0,54,0.00,,---,0.00,VWS V14.01,2013-05-08 07:22:00,
2013-05-08 02:23:00,59.2,42.6,29.91,SSW,198,60.0,60.0,54,0.00,,---,0.00,VWS V14.01,2013-05-08 07:23:00,
2013-05-08 02:24:00,59.0,42.4,29.91,SSW,198,60.0,60.0,54,0.00,,---,0.00,VWS V14.01,2013-05-08 07:24:00,
2013-05-08 02:25:00,59.0,42.4,29.91,SSW,198,60.0,60.0,54,0.00,,---,0.00,VWS V14.01,2013-05-08 07:25:00,
2013-05-08 02:26:00,59.0,42.9,29.91,SSW,198,60.0,60.0,55,0.00,,---,0.00,VWS V14.01,2013-05-08 07:26:00,
2013-05-08 02:27:00,59.0,42.9,29.91,SSW,198,60.0,60.0,55,0.00,,---,0.00,VWS V14.01,2013-05-08 07:27:00,
2013-05-08 02:28:00,59.0,42.9,29.91,SSW,198,60.0,60.0,55,0.00,,---,0.00,VWS V14.01,2013-05-08 07:28:00,
2013-05-08 02:29:00,59.0,42.9,29.91,SSW,198,60.0,60.0,55,0.00,,---,0.00,VWS V14.01,2013-05-08 07:29:00,
2013-05-08 02:30:00,58.9,42.8,29.91,SSW,198,60.0,60.0,55,0.00,,---,0.00,VWS V14.01,2013-05-08 07:30:00,
2013-05-08 02:31:00,58.9,42.8,29.91,SSW,198,60.0,60.0,55,0.00,,---,0.00,VWS V14.01,2013-05-08 07:31:00,
2013-05-08 02:32:00,58.9,42.8,29.91,SSW,198,60.0,60.0,55,0.00,,---,0.00,VWS V14.01,2013-05-08 07:32:00,
2013-05-08 02:33:00,58.9,42.8,29.91,SSW,198,60.0,60.0,55,0.00,,---,0.00,VWS V14.01,2013-05-08 07:33:00,
2013-05-08 02:34:00,58.9,42.8,29.91,SSW,198,60.0,60.0,55,0.00,,---,0.00,VWS V14.01,2013-05-08 07:34:00,
2013-05-08 02:35:00,58.9,42.8,29.91,SSW,198,60.0,60.0,55,0.00,,---,0.00,VWS V14.01,2013-05-08 07:35:00,
2013-05-08 02:41:00,58.6,42.5,29.91,SSW,198,60.0,60.0,55,0.00,,---,0.00,VWS V14.01,2013-05-08 07:41:00,
2013-05-08 02:42:00,58.6,43.0,29.91,SSW,198,60.0,60.0,56,0.00,,---,0.00,VWS V14.01,2013-05-08 07:42:00,
2013-05-08 02:43:00,58.6,43.0,29.91,SSW,198,60.0,60.0,56,0.00,,---,0.00,VWS V14.01,2013-05-08 07:43:00,
2013-05-08 02:44:00,58.4,42.8,29.91,SSW,198,60.0,60.0,56,0.00,,---,0.00,VWS V14.01,2013-05-08 07:44:00,
2013-05-08 02:45:00,58.4,42.8,29.91,SSW,198,60.0,60.0,56,0.00,,---,0.00,VWS V14.01,2013-05-08 07:45:00,
2013-05-08 02:46:00,58.3,42.7,29.91,SSW,198,60.0,60.0,56,0.00,,---,0.00,VWS V14.01,2013-05-08 07:46:00,
2013-05-08 02:47:00,58.1,42.5,29.91,SSW,198,60.0,60.0,56,0.00,,---,0.00,VWS V14.01,2013-05-08 07:47:00,
2013-05-08 02:48:00,58.1,42.5,29.91,SSW,198,60.0,60.0,56,0.00,,---,0.00,VWS V14.01,2013-05-08 07:48:00,
2013-05-08 02:49:00,58.0,42.4,29.91,SSW,198,60.0,60.0,56,0.00,,---,0.00,VWS V14.01,2013-05-08 07:49:00,
2013-05-08 02:50:00,58.0,42.9,29.91,SSW,198,60.0,60.0,57,0.00,,---,0.00,VWS V14.01,2013-05-08 07:50:00,
2013-05-08 02:51:00,57.8,42.7,29.91,SSW,198,60.0,60.0,57,0.00,,---,0.00,VWS V14.01,2013-05-08 07:51:00,
2013-05-08 02:52:00,57.6,42.5,29.91,SSW,198,60.0,60.0,57,0.00,,---,0.00,VWS V14.01,2013-05-08 07:52:00,
2013-05-08 02:53:00,57.6,42.5,29.91,SSW,198,60.0,60.0,57,0.00,,---,0.00,VWS V14.01,2013-05-08 07:53:00,
2013-05-08 02:54:00,57.5,42.4,29.91,SSW,198,60.0,60.0,57,0.00,,---,0.00,VWS V14.01,2013-05-08 07:54:00,
2013-05-08 02:55:00,57.5,42.4,29.91,SSW,198,60.0,60.0,57,0.00,,---,0.00,VWS V14.01,2013-05-08 07:55:00,
2013-05-08 02:56:00,57.3,42.7,29.91,SSW,198,60.0,60.0,58,0.00,,---,0.00,VWS V14.01,2013-05-08 07:56:00,
2013-05-08 02:57:00,57.3,42.7,29.91,SSW,198,60.0,60.0,58,0.00,,---,0.00,VWS V14.01,2013-05-08 07:57:00,
2013-05-08 02:58:00,57.2,42.6,29.91,SSW,198,60.0,60.0,58,0.00,,---,0.00,VWS V14.01,2013-05-08 07:58:00,
2013-05-08 02:59:00,57.2,42.6,29.91,SSW,198,60.0,60.0,58,0.00,,---,0.00,VWS V14.01,2013-05-08 07:59:00,
2013-05-08 03:00:00,57.0,42.4,29.91,SSW,198,60.0,60.0,58,0.00,,---,0.00,VWS V14.01,2013-05-08 08:00:00,
2013-05-08 03:01:00,56.9,42.3,29.91,SSW,198,60.0,60.0,58,0.00,,---,0.00,VWS V14.01,2013-05-08 08:01:00,
2013-05-08 03:02:00,56.9,42.7,29.91,SSW,198,60.0,60.0,59,0.00,,---,0.00,VWS V14.01,2013-05-08 08:02:00,
2013-05-08 03:03:00,56.7,42.5,29.91,SSW,198,60.0,60.0,59,0.00,,---,0.00,VWS V14.01,2013-05-08 08:03:00,
2013-05-08 03:04:00,56.7,42.5,29.91,SSW,198,60.0,60.0,59,0.00,,---,0.00,VWS V14.01,2013-05-08 08:04:00,
2013-05-08 03:05:00,56.6,42.5,29.91,SSW,198,60.0,60.0,59,0.00,,---,0.00,VWS V14.01,2013-05-08 08:05:00,
2013-05-08 03:06:00,56.5,42.4,29.91,SSW,198,60.0,60.0,59,0.00,,---,0.00,VWS V14.01,2013-05-08 08:06:00,
2013-05-08 03:07:00,56.5,42.4,29.91,SSW,198,60.0,60.0,59,0.00,,---,0.00,VWS V14.01,2013-05-08 08:07:00,
2013-05-08 03:08:00,56.5,42.4,29.91,SSW,198,60.0,60.0,59,0.00,,---,0.00,VWS V14.01,2013-05-08 08:08:00,
2013-05-08 03:09:00,56.3,42.2,29.91,SSW,198,60.0,60.0,59,0.00,,---,0.00,VWS V14.01,2013-05-08 08:09:00,
2013-05-08 03:10:00,56.2,42.1,29.91,SSW,198,60.0,60.0,59,0.00,,---,0.00,VWS V14.01,2013-05-08 08:10:00,
2013-05-08 03:11:00,56.2,42.5,29.91,SSW,198,60.0,60.0,60,0.00,,---,0.00,VWS V14.01,2013-05-08 08:11:00,
2013-05-08 03:12:00,56.0,42.3,29.91,SSW,198,60.0,60.0,60,0.00,,---,0.00,VWS V14.01,2013-05-08 08:12:00,
2013-05-08 03:13:00,56.0,42.3,29.91,SSW,198,60.0,60.0,60,0.00,,---,0.00,VWS V14.01,2013-05-08 08:13:00,
2013-05-08 03:14:00,55.9,42.7,29.91,SSW,198,60.0,60.0,61,0.00,,---,0.00,VWS V14.01,2013-05-08 08:14:00,
2013-05-08 03:15:00,55.7,42.5,29.91,SSW,198,60.0,60.0,61,0.00,,---,0.00,VWS V14.01,2013-05-08 08:15:00,
2013-05-08 03:16:00,55.7,42.5,29.91,SSW,198,60.0,60.0,61,0.00,,---,0.00,VWS V14.01,2013-05-08 08:16:00,
2013-05-08 03:17:00,55.6,42.4,29.91,SSW,198,60.0,60.0,61,0.00,,---,0.00,VWS V14.01,2013-05-08 08:17:00,
2013-05-08 03:18:00,55.4,42.2,29.91,SSW,198,60.0,60.0,61,0.00,,---,0.00,VWS V14.01,2013-05-08 08:18:00,
2013-05-08 03:19:00,55.4,42.2,29.91,SSW,198,60.0,60.0,61,0.00,,---,0.00,VWS V14.01,2013-05-08 08:19:00,
2013-05-08 03:20:00,55.3,42.5,29.91,SSW,198,60.0,60.0,62,0.00,,---,0.00,VWS V14.01,2013-05-08 08:20:00,
2013-05-08 03:21:00,55.3,42.5,29.91,SSW,198,60.0,60.0,62,0.00,,---,0.00,VWS V14.01,2013-05-08 08:21:00,
2013-05-08 03:22:00,55.1,42.3,29.91,SSW,198,60.0,60.0,62,0.00,,---,0.00,VWS V14.01,2013-05-08 08:22:00,
2013-05-08 03:23:00,55.1,42.3,29.91,SSW,198,60.0,60.0,62,0.00,,---,0.00,VWS V14.01,2013-05-08 08:23:00,
2013-05-08 03:24:00,55.0,42.2,29.91,SSW,198,60.0,60.0,62,0.00,,---,0.00,VWS V14.01,2013-05-08 08:24:00,
2013-05-08 03:25:00,55.0,42.2,29.91,SSW,198,60.0,60.0,62,0.00,,---,0.00,VWS V14.01,2013-05-08 08:25:00,
2013-05-08 03:26:00,55.0,42.2,29.91,SSW,198,60.0,60.0,62,0.00,,---,0.00,VWS V14.01,2013-05-08 08:26:00,
2013-05-08 03:27:00,54.8,42.0,29.91,SSW,198,60.0,60.0,62,0.00,,---,0.00,VWS V14.01,2013-05-08 08:27:00,
2013-05-08 03:28:00,54.8,42.0,29.91,SSW,198,60.0,60.0,62,0.00,,---,0.00,VWS V14.01,2013-05-08 08:28:00,
2013-05-08 03:29:00,54.8,42.0,29.91,SSW,198,60.0,60.0,62,0.00,,---,0.00,VWS V14.01,2013-05-08 08:29:00,
2013-05-08 03:30:00,54.8,42.0,29.91,SSW,198,60.0,60.0,62,0.00,,---,0.00,VWS V14.01,2013-05-08 08:30:00,
2013-05-08 03:31:00,54.8,42.0,29.91,SSW,198,60.0,60.0,62,0.00,,---,0.00,VWS V14.01,2013-05-08 08:31:00,
2013-05-08 03:32:00,54.7,42.0,29.91,SSW,198,60.0,60.0,62,0.00,,---,0.00,VWS V14.01,2013-05-08 08:32:00,
2013-05-08 03:33:00,54.7,42.0,29.91,SSW,198,60.0,60.0,62,0.00,,---,0.00,VWS V14.01,2013-05-08 08:33:00,
2013-05-08 03:34:00,54.7,42.0,29.91,SSW,198,60.0,60.0,62,0.00,,---,0.00,VWS V14.01,2013-05-08 08:34:00,
2013-05-08 03:35:00,54.7,42.0,29.91,SSW,198,60.0,60.0,62,0.00,,---,0.00,VWS V14.01,2013-05-08 08:35:00,
2013-05-08 03:36:00,54.7,42.4,29.91,SSW,198,60.0,60.0,63,0.00,,---,0.00,VWS V14.01,2013-05-08 08:36:00,
2013-05-08 03:37:00,54.7,42.4,29.91,SSW,198,60.0,60.0,63,0.00,,---,0.00,VWS V14.01,2013-05-08 08:37:00,
2013-05-08 03:38:00,54.7,42.0,29.91,SSW,198,60.0,60.0,62,0.00,,---,0.00,VWS V14.01,2013-05-08 08:38:00,
2013-05-08 03:39:00,54.7,42.0,29.91,SSW,198,60.0,60.0,62,0.00,,---,0.00,VWS V14.01,2013-05-08 08:39:00,
2013-05-08 03:40:00,54.7,42.0,29.91,SSW,198,60.0,60.0,62,0.00,,---,0.00,VWS V14.01,2013-05-08 08:40:00,
2013-05-08 03:41:00,54.7,42.0,29.91,SSW,198,60.0,60.0,62,0.00,,---,0.00,VWS V14.01,2013-05-08 08:41:00,
2013-05-08 03:42:00,54.7,42.4,29.91,SSW,198,60.0,60.0,63,0.00,,---,0.00,VWS V14.01,2013-05-08 08:42:00,
2013-05-08 03:43:00,54.7,42.4,29.91,SSW,198,60.0,60.0,63,0.00,,---,0.00,VWS V14.01,2013-05-08 08:43:00,
2013-05-08 03:44:00,54.7,42.4,29.91,SSW,198,60.0,60.0,63,0.00,,---,0.00,VWS V14.01,2013-05-08 08:44:00,
2013-05-08 03:45:00,54.5,42.2,29.91,SSW,198,60.0,60.0,63,0.00,,---,0.00,VWS V14.01,2013-05-08 08:45:00,
2013-05-08 03:46:00,54.5,42.2,29.91,SSW,198,60.0,60.0,63,0.00,,---,0.00,VWS V14.01,2013-05-08 08:46:00,
2013-05-08 03:47:00,54.5,42.2,29.91,SSW,198,60.0,60.0,63,0.00,,---,0.00,VWS V14.01,2013-05-08 08:47:00,
2013-05-08 03:48:00,54.5,42.2,29.91,SSW,198,60.0,60.0,63,0.00,,---,0.00,VWS V14.01,2013-05-08 08:48:00,
2013-05-08 03:49:00,54.5,42.2,29.91,SSW,198,60.0,60.0,63,0.00,,---,0.00,VWS V14.01,2013-05-08 08:49:00,
2013-05-08 03:50:00,54.4,42.1,29.91,SSW,198,60.0,60.0,63,0.00,,---,0.00,VWS V14.01,2013-05-08 08:50:00,
2013-05-08 03:51:00,54.4,42.1,29.91,SSW,198,60.0,60.0,63,0.00,,---,0.00,VWS V14.01,2013-05-08 08:51:00,
2013-05-08 03:52:00,54.4,42.1,29.91,SSW,198,60.0,60.0,63,0.00,,---,0.00,VWS V14.01,2013-05-08 08:52:00,
2013-05-08 03:53:00,54.4,42.1,29.91,SSW,198,60.0,60.0,63,0.00,,---,0.00,VWS V14.01,2013-05-08 08:53:00,
2013-05-08 03:54:00,54.2,41.9,29.91,SSW,198,60.0,60.0,63,0.00,,---,0.00,VWS V14.01,2013-05-08 08:54:00,
2013-05-08 03:55:00,54.2,42.3,29.91,SSW,198,60.0,60.0,64,0.00,,---,0.00,VWS V14.01,2013-05-08 08:55:00,
2013-05-08 03:56:00,54.2,42.3,29.91,SSW,198,60.0,60.0,64,0.00,,---,0.00,VWS V14.01,2013-05-08 08:56:00,
2013-05-08 03:57:00,54.2,42.3,29.91,SSW,198,60.0,60.0,64,0.00,,---,0.00,VWS V14.01,2013-05-08 08:57:00,
2013-05-08 03:58:00,54.1,42.2,29.91,SSW,198,60.0,60.0,64,0.00,,---,0.00,VWS V14.01,2013-05-08 08:58:00,
2013-05-08 03:59:00,54.1,42.2,29.91,SSW,198,60.0,60.0,64,0.00,,---,0.00,VWS V14.01,2013-05-08 08:59:00,
2013-05-08 04:00:00,54.1,42.2,29.91,SSW,198,60.0,60.0,64,0.00,,---,0.00,VWS V14.01,2013-05-08 09:00:00,
2013-05-08 04:01:00,54.1,42.2,29.91,SSW,198,60.0,60.0,64,0.00,,---,0.00,VWS V14.01,2013-05-08 09:01:00,
2013-05-08 04:02:00,53.9,42.0,29.91,SSW,198,60.0,60.0,64,0.00,,---,0.00,VWS V14.01,2013-05-08 09:02:00,
2013-05-08 04:03:00,53.9,42.0,29.91,SSW,198,60.0,60.0,64,0.00,,---,0.00,VWS V14.01,2013-05-08 09:03:00,
2013-05-08 04:04:00,53.9,42.0,29.91,SSW,198,60.0,60.0,64,0.00,,---,0.00,VWS V14.01,2013-05-08 09:04:00,
2013-05-08 04:05:00,53.9,42.0,29.91,SSW,198,60.0,60.0,64,0.00,,---,0.00,VWS V14.01,2013-05-08 09:05:00,
2013-05-08 04:06:00,53.8,42.3,29.91,SSW,198,60.0,60.0,65,0.00,,---,0.00,VWS V14.01,2013-05-08 09:06:00,
2013-05-08 04:07:00,53.8,42.3,29.91,SSW,198,60.0,60.0,65,0.00,,---,0.00,VWS V14.01,2013-05-08 09:07:00,
2013-05-08 04:08:00,53.8,42.3,29.91,SSW,198,60.0,60.0,65,0.00,,---,0.00,VWS V14.01,2013-05-08 09:08:00,
2013-05-08 04:09:00,53.6,42.1,29.91,SSW,198,60.0,60.0,65,0.00,,---,0.00,VWS V14.01,2013-05-08 09:09:00,
2013-05-08 04:10:00,53.6,42.1,29.91,SSW,198,60.0,60.0,65,0.00,,---,0.00,VWS V14.01,2013-05-08 09:10:00,
2013-05-08 04:11:00,53.6,42.1,29.91,SSW,198,60.0,60.0,65,0.00,,---,0.00,VWS V14.01,2013-05-08 09:11:00,
2013-05-08 04:12:00,53.6,42.1,29.91,SSW,198,60.0,60.0,65,0.00,,---,0.00,VWS V14.01,2013-05-08 09:12:00,
2013-05-08 04:13:00,53.5,42.0,29.91,SSW,198,60.0,60.0,65,0.00,,---,0.00,VWS V14.01,2013-05-08 09:13:00,
2013-05-08 04:14:00,53.5,42.0,29.91,SSW,198,60.0,60.0,65,0.00,,---,0.00,VWS V14.01,2013-05-08 09:14:00,
2013-05-08 04:15:00,53.5,42.0,29.91,SSW,198,60.0,60.0,65,0.00,,---,0.00,VWS V14.01,2013-05-08 09:15:00,
2013-05-08 04:16:00,53.5,42.0,29.91,SSW,198,60.0,60.0,65,0.00,,---,0.00,VWS V14.01,2013-05-08 09:16:00,
2013-05-08 04:17:00,53.3,41.8,29.91,SSW,198,60.0,60.0,65,0.00,,---,0.00,VWS V14.01,2013-05-08 09:17:00,
2013-05-08 04:18:00,53.3,41.8,29.91,SSW,198,60.0,60.0,65,0.00,,---,0.00,VWS V14.01,2013-05-08 09:18:00,
2013-05-08 04:19:00,53.2,41.8,29.91,SSW,198,60.0,60.0,65,0.00,,---,0.00,VWS V14.01,2013-05-08 09:19:00,
2013-05-08 04:20:00,53.2,42.2,29.91,SSW,198,60.0,60.0,66,0.00,,---,0.00,VWS V14.01,2013-05-08 09:20:00,
2013-05-08 04:21:00,53.2,42.2,29.91,SSW,198,60.0,60.0,66,0.00,,---,0.00,VWS V14.01,2013-05-08 09:21:00,
2013-05-08 04:22:00,53.2,42.2,29.91,SSW,198,60.0,60.0,66,0.00,,---,0.00,VWS V14.01,2013-05-08 09:22:00,
2013-05-08 04:23:00,53.1,42.1,29.91,SSW,198,60.0,60.0,66,0.00,,---,0.00,VWS V14.01,2013-05-08 09:23:00,
2013-05-08 04:24:00,53.1,42.1,29.91,SSW,198,60.0,60.0,66,0.00,,---,0.00,VWS V14.01,2013-05-08 09:24:00,
2013-05-08 04:25:00,52.9,41.9,29.91,SSW,198,60.0,60.0,66,0.00,,---,0.00,VWS V14.01,2013-05-08 09:25:00,
2013-05-08 04:26:00,52.9,41.9,29.91,SSW,198,60.0,60.0,66,0.00,,---,0.00,VWS V14.01,2013-05-08 09:26:00,
2013-05-08 04:27:00,52.8,42.2,29.91,SSW,198,60.0,60.0,67,0.00,,---,0.00,VWS V14.01,2013-05-08 09:27:00,
2013-05-08 04:28:00,52.8,42.2,29.91,SSW,198,60.0,60.0,67,0.00,,---,0.00,VWS V14.01,2013-05-08 09:28:00,
2013-05-08 04:29:00,52.8,42.2,29.91,SSW,198,60.0,60.0,67,0.00,,---,0.00,VWS V14.01,2013-05-08 09:29:00,
2013-05-08 04:30:00,52.8,42.2,29.92,SSW,198,60.0,60.0,67,0.00,,---,0.00,VWS V14.01,2013-05-08 09:30:00,
2013-05-08 04:31:00,52.8,42.2,29.92,SSW,198,60.0,60.0,67,0.00,,---,0.00,VWS V14.01,2013-05-08 09:31:00,
2013-05-08 04:32:00,52.6,42.0,29.92,SSW,198,60.0,60.0,67,0.00,,---,0.00,VWS V14.01,2013-05-08 09:32:00,
2013-05-08 04:33:00,52.6,42.0,29.92,SSW,198,60.0,60.0,67,0.00,,---,0.00,VWS V14.01,2013-05-08 09:33:00,
2013-05-08 04:34:00,52.6,42.0,29.92,SSW,198,60.0,60.0,67,0.00,,---,0.00,VWS V14.01,2013-05-08 09:34:00,
2013-05-08 04:35:00,52.6,42.0,29.92,SSW,198,60.0,60.0,67,0.00,,---,0.00,VWS V14.01,2013-05-08 09:35:00,
2013-05-08 04:36:00,52.6,42.3,29.92,SSW,198,60.0,60.0,68,0.00,,---,0.00,VWS V14.01,2013-05-08 09:36:00,
2013-05-08 04:37:00,52.6,42.3,29.92,SSW,198,60.0,60.0,68,0.00,,---,0.00,VWS V14.01,2013-05-08 09:37:00,
2013-05-08 04:38:00,52.6,42.3,29.92,SSW,198,60.0,60.0,68,0.00,,---,0.00,VWS V14.01,2013-05-08 09:38:00,
2013-05-08 04:39:00,52.6,42.3,29.92,SSW,198,60.0,60.0,68,0.00,,---,0.00,VWS V14.01,2013-05-08 09:39:00,
2013-05-08 04:40:00,52.6,42.3,29.92,SSW,198,60.0,60.0,68,0.00,,---,0.00,VWS V14.01,2013-05-08 09:40:00,
2013-05-08 04:41:00,52.6,42.3,29.92,SSW,198,60.0,60.0,68,0.00,,---,0.00,VWS V14.01,2013-05-08 09:41:00,
2013-05-08 04:42:00,52.6,42.3,29.92,SSW,198,60.0,60.0,68,0.00,,---,0.00,VWS V14.01,2013-05-08 09:42:00,
2013-05-08 04:43:00,52.6,42.3,29.92,SSW,198,60.0,60.0,68,0.00,,---,0.00,VWS V14.01,2013-05-08 09:43:00,
2013-05-08 04:44:00,52.6,42.3,29.93,SSW,198,60.0,60.0,68,0.00,,---,0.00,VWS V14.01,2013-05-08 09:44:00,
2013-05-08 04:45:00,52.6,42.3,29.93,SSW,198,60.0,60.0,68,0.00,,---,0.00,VWS V14.01,2013-05-08 09:45:00,
2013-05-08 04:46:00,52.6,42.3,29.93,SSW,198,60.0,60.0,68,0.00,,---,0.00,VWS V14.01,2013-05-08 09:46:00,
2013-05-08 04:47:00,52.6,42.3,29.93,SSW,198,60.0,60.0,68,0.00,,---,0.00,VWS V14.01,2013-05-08 09:47:00,
2013-05-08 04:48:00,52.5,42.3,29.93,SSW,198,60.0,60.0,68,0.00,,---,0.00,VWS V14.01,2013-05-08 09:48:00,
2013-05-08 04:49:00,52.5,42.3,29.93,SSW,198,60.0,60.0,68,0.00,,---,0.00,VWS V14.01,2013-05-08 09:49:00,
2013-05-08 04:50:00,52.5,42.3,29.93,SSW,198,60.0,60.0,68,0.00,,---,0.00,VWS V14.01,2013-05-08 09:50:00,
2013-05-08 04:51:00,52.5,42.3,29.93,SSW,198,60.0,60.0,68,0.00,,---,0.00,VWS V14.01,2013-05-08 09:51:00,
2013-05-08 04:52:00,52.5,42.3,29.93,SSW,198,60.0,60.0,68,0.00,,---,0.00,VWS V14.01,2013-05-08 09:52:00,
2013-05-08 04:53:00,52.3,42.1,29.93,SSW,198,60.0,60.0,68,0.00,,---,0.00,VWS V14.01,2013-05-08 09:53:00,
2013-05-08 04:54:00,52.3,42.1,29.93,SSW,198,60.0,60.0,68,0.00,,---,0.00,VWS V14.01,2013-05-08 09:54:00,
2013-05-08 04:55:00,52.3,42.1,29.93,SSW,198,60.0,60.0,68,0.00,,---,0.00,VWS V14.01,2013-05-08 09:55:00,
2013-05-08 04:56:00,52.3,42.1,29.93,SSW,198,60.0,60.0,68,0.00,,---,0.00,VWS V14.01,2013-05-08 09:56:00,
2013-05-08 04:57:00,52.3,42.1,29.93,SSW,198,60.0,60.0,68,0.00,,---,0.00,VWS V14.01,2013-05-08 09:57:00,
2013-05-08 04:58:00,52.3,42.1,29.93,SSW,198,60.0,60.0,68,0.00,,---,0.00,VWS V14.01,2013-05-08 09:58:00,
2013-05-08 04:59:00,52.3,42.5,29.93,SSW,198,60.0,60.0,69,0.00,,---,0.00,VWS V14.01,2013-05-08 09:59:00,
2013-05-08 05:00:00,52.3,42.1,29.93,SSW,198,60.0,60.0,68,0.00,,---,0.00,VWS V14.01,2013-05-08 10:00:00,
2013-05-08 05:01:00,52.3,42.5,29.93,SSW,198,60.0,60.0,69,0.00,,---,0.00,VWS V14.01,2013-05-08 10:01:00,
2013-05-08 05:02:00,52.3,42.5,29.93,SSW,198,60.0,60.0,69,0.00,,---,0.00,VWS V14.01,2013-05-08 10:02:00,
2013-05-08 05:03:00,52.3,42.5,29.93,SSW,198,60.0,60.0,69,0.00,,---,0.00,VWS V14.01,2013-05-08 10:03:00,
2013-05-08 05:04:00,52.3,42.5,29.93,SSW,198,60.0,60.0,69,0.00,,---,0.00,VWS V14.01,2013-05-08 10:04:00,
2013-05-08 05:05:00,52.3,42.5,29.93,SSW,198,60.0,60.0,69,0.00,,---,0.00,VWS V14.01,2013-05-08 10:05:00,
2013-05-08 05:06:00,52.3,42.5,29.93,SSW,198,60.0,60.0,69,0.00,,---,0.00,VWS V14.01,2013-05-08 10:06:00,
2013-05-08 05:07:00,52.3,42.5,29.93,SSW,198,60.0,60.0,69,0.00,,---,0.00,VWS V14.01,2013-05-08 10:07:00,
2013-05-08 05:08:00,52.3,42.5,29.93,SSW,198,60.0,60.0,69,0.00,,---,0.00,VWS V14.01,2013-05-08 10:08:00,
2013-05-08 05:09:00,52.3,42.5,29.93,SSW,198,60.0,60.0,69,0.00,,---,0.00,VWS V14.01,2013-05-08 10:09:00,
2013-05-08 05:10:00,52.3,42.5,29.93,SSW,198,60.0,60.0,69,0.00,,---,0.00,VWS V14.01,2013-05-08 10:10:00,
2013-05-08 05:11:00,52.3,42.5,29.93,SSW,198,60.0,60.0,69,0.00,,---,0.00,VWS V14.01,2013-05-08 10:11:00,
2013-05-08 05:12:00,52.3,42.5,29.93,SSW,198,60.0,60.0,69,0.00,,---,0.00,VWS V14.01,2013-05-08 10:12:00,
2013-05-08 05:13:00,52.3,42.5,29.93,SSW,198,60.0,60.0,69,0.00,,---,0.00,VWS V14.01,2013-05-08 10:13:00,
2013-05-08 05:14:00,52.3,42.5,29.93,SSW,198,60.0,60.0,69,0.00,,---,0.00,VWS V14.01,2013-05-08 10:14:00,
2013-05-08 05:15:00,52.3,42.5,29.93,SSW,198,60.0,60.0,69,0.00,,---,0.00,VWS V14.01,2013-05-08 10:15:00,
2013-05-08 05:16:00,52.3,42.5,29.93,SSW,198,60.0,60.0,69,0.00,,---,0.00,VWS V14.01,2013-05-08 10:16:00,
2013-05-08 05:17:00,52.3,42.5,29.93,SSW,198,60.0,60.0,69,0.00,,---,0.00,VWS V14.01,2013-05-08 10:17:00,
2013-05-08 05:18:00,52.3,42.5,29.93,SSW,198,60.0,60.0,69,0.00,,---,0.00,VWS V14.01,2013-05-08 10:18:00,
2013-05-08 05:19:00,52.3,42.5,29.93,SSW,198,60.0,60.0,69,0.00,,---,0.00,VWS V14.01,2013-05-08 10:19:00,
2013-05-08 05:20:00,52.3,42.5,29.93,SSW,198,60.0,60.0,69,0.00,,---,0.00,VWS V14.01,2013-05-08 10:20:00,
2013-05-08 05:21:00,52.3,42.5,29.93,SSW,198,60.0,60.0,69,0.00,,---,0.00,VWS V14.01,2013-05-08 10:21:00,
2013-05-08 05:22:00,52.3,42.5,29.93,SSW,198,60.0,60.0,69,0.00,,---,0.00,VWS V14.01,2013-05-08 10:22:00,
2013-05-08 05:23:00,52.3,42.5,29.93,SSW,198,60.0,60.0,69,0.00,,---,0.00,VWS V14.01,2013-05-08 10:23:00,
2013-05-08 05:24:00,52.2,42.3,29.93,SSW,198,60.0,60.0,69,0.00,,---,0.00,VWS V14.01,2013-05-08 10:24:00,
2013-05-08 05:25:00,52.2,42.3,29.93,SSW,198,60.0,60.0,69,0.00,,---,0.00,VWS V14.01,2013-05-08 10:25:00,
2013-05-08 05:26:00,52.2,42.3,29.93,SSW,198,60.0,60.0,69,0.00,,---,0.00,VWS V14.01,2013-05-08 10:26:00,
2013-05-08 05:27:00,52.2,42.3,29.93,SSW,198,60.0,60.0,69,0.00,,---,0.00,VWS V14.01,2013-05-08 10:27:00,
2013-05-08 05:28:00,52.2,42.7,29.93,SSW,198,60.0,60.0,70,0.00,,---,0.00,VWS V14.01,2013-05-08 10:28:00,
2013-05-08 05:29:00,52.2,42.7,29.93,SSW,198,60.0,60.0,70,0.00,,---,0.00,VWS V14.01,2013-05-08 10:29:00,
2013-05-08 05:30:00,52.2,42.7,29.93,SSW,198,60.0,60.0,70,0.00,,---,0.00,VWS V14.01,2013-05-08 10:30:00,
2013-05-08 05:31:00,52.2,42.7,29.93,SSW,198,60.0,60.0,70,0.00,,---,0.00,VWS V14.01,2013-05-08 10:31:00,
2013-05-08 05:32:00,52.0,42.5,29.93,SSW,198,60.0,60.0,70,0.00,,---,0.00,VWS V14.01,2013-05-08 10:32:00,
2013-05-08 05:33:00,52.0,42.5,29.93,SSW,198,60.0,60.0,70,0.00,,---,0.00,VWS V14.01,2013-05-08 10:33:00,
2013-05-08 05:34:00,52.0,42.5,29.93,SSW,198,60.0,60.0,70,0.00,,---,0.00,VWS V14.01,2013-05-08 10:34:00,
2013-05-08 05:35:00,52.0,42.5,29.93,SSW,198,60.0,60.0,70,0.00,,---,0.00,VWS V14.01,2013-05-08 10:35:00,
2013-05-08 05:36:00,51.9,42.4,29.93,SSW,198,60.0,60.0,70,0.00,,---,0.00,VWS V14.01,2013-05-08 10:36:00,
2013-05-08 05:37:00,51.9,42.4,29.93,SSW,198,60.0,60.0,70,0.00,,---,0.00,VWS V14.01,2013-05-08 10:37:00,
2013-05-08 05:38:00,51.9,42.4,29.93,SSW,198,60.0,60.0,70,0.00,,---,0.00,VWS V14.01,2013-05-08 10:38:00,
2013-05-08 05:39:00,51.9,42.8,29.93,SSW,198,60.0,60.0,71,0.00,,---,0.00,VWS V14.01,2013-05-08 10:39:00,
2013-05-08 05:40:00,51.9,42.8,29.93,SSW,198,60.0,60.0,71,0.00,,---,0.00,VWS V14.01,2013-05-08 10:40:00,
2013-05-08 05:41:00,51.9,42.8,29.93,SSW,198,60.0,60.0,71,0.00,,---,0.00,VWS V14.01,2013-05-08 10:41:00,
2013-05-08 05:42:00,52.0,42.9,29.93,SSW,198,60.0,60.0,71,0.00,,---,0.00,VWS V14.01,2013-05-08 10:42:00,
2013-05-08 05:43:00,52.0,42.9,29.93,SSW,198,60.0,60.0,71,0.00,,---,0.00,VWS V14.01,2013-05-08 10:43:00,
2013-05-08 05:44:00,52.0,42.9,29.93,SSW,198,60.0,60.0,71,0.00,,---,0.00,VWS V14.01,2013-05-08 10:44:00,
2013-05-08 05:45:00,52.2,43.1,29.93,SSW,198,60.0,60.0,71,0.00,,---,0.00,VWS V14.01,2013-05-08 10:45:00,
2013-05-08 05:46:00,52.2,42.7,29.93,SSW,198,60.0,60.0,70,0.00,,---,0.00,VWS V14.01,2013-05-08 10:46:00,
2013-05-08 05:47:00,52.2,42.7,29.93,SSW,198,60.0,60.0,70,0.00,,---,0.00,VWS V14.01,2013-05-08 10:47:00,
2013-05-08 05:48:00,52.2,42.7,29.93,SSW,198,60.0,60.0,70,0.00,,---,0.00,VWS V14.01,2013-05-08 10:48:00,
2013-05-08 05:49:00,52.2,43.1,29.93,SSW,198,60.0,60.0,71,0.00,,---,0.00,VWS V14.01,2013-05-08 10:49:00,
2013-05-08 05:50:00,52.2,42.7,29.93,SSW,198,60.0,60.0,70,0.00,,---,0.00,VWS V14.01,2013-05-08 10:50:00,
2013-05-08 05:51:00,52.2,43.1,29.93,SSW,198,60.0,60.0,71,0.00,,---,0.00,VWS V14.01,2013-05-08 10:51:00,
2013-05-08 05:52:00,52.2,42.7,29.93,SSW,198,60.0,60.0,70,0.00,,---,0.00,VWS V14.01,2013-05-08 10:52:00,
2013-05-08 05:53:00,52.2,42.7,29.93,SSW,198,60.0,60.0,70,0.00,,---,0.00,VWS V14.01,2013-05-08 10:53:00,
2013-05-08 05:54:00,52.2,42.7,29.93,SSW,198,60.0,60.0,70,0.00,,---,0.00,VWS V14.01,2013-05-08 10:54:00,
2013-05-08 05:55:00,52.2,42.7,29.93,SSW,198,60.0,60.0,70,0.00,,---,0.00,VWS V14.01,2013-05-08 10:55:00,
2013-05-08 05:56:00,52.2,42.7,29.93,SSW,198,60.0,60.0,70,0.00,,---,0.00,VWS V14.01,2013-05-08 10:56:00,
2013-05-08 05:57:00,52.3,42.8,29.93,SSW,198,60.0,60.0,70,0.00,,---,0.00,VWS V14.01,2013-05-08 10:57:00,
2013-05-08 05:58:00,52.3,42.8,29.93,SSW,198,60.0,60.0,70,0.00,,---,0.00,VWS V14.01,2013-05-08 10:58:00,
2013-05-08 05:59:00,52.3,42.8,29.93,SSW,198,60.0,60.0,70,0.00,,---,0.00,VWS V14.01,2013-05-08 10:59:00,
2013-05-08 06:00:00,52.5,43.0,29.93,SSW,198,60.0,60.0,70,0.00,,---,0.00,VWS V14.01,2013-05-08 11:00:00,
2013-05-08 06:01:00,52.5,43.0,29.93,SSW,198,60.0,60.0,70,0.00,,---,0.00,VWS V14.01,2013-05-08 11:01:00,
2013-05-08 06:02:00,52.5,43.0,29.93,SSW,198,60.0,60.0,70,0.00,,---,0.00,VWS V14.01,2013-05-08 11:02:00,
2013-05-08 06:03:00,52.6,43.5,29.93,SSW,198,60.0,60.0,71,0.00,,---,0.00,VWS V14.01,2013-05-08 11:03:00,
2013-05-08 06:04:00,52.6,43.1,29.93,SSW,198,60.0,60.0,70,0.00,,---,0.00,VWS V14.01,2013-05-08 11:04:00,
2013-05-08 06:05:00,52.6,43.1,29.93,SSW,198,60.0,60.0,70,0.00,,---,0.00,VWS V14.01,2013-05-08 11:05:00,
2013-05-08 06:06:00,52.6,43.1,29.93,SSW,198,60.0,60.0,70,0.00,,---,0.00,VWS V14.01,2013-05-08 11:06:00,
2013-05-08 06:07:00,52.8,43.3,29.93,SSW,198,60.0,60.0,70,0.00,,---,0.00,VWS V14.01,2013-05-08 11:07:00,
2013-05-08 06:08:00,52.8,43.3,29.93,SSW,198,60.0,60.0,70,0.00,,---,0.00,VWS V14.01,2013-05-08 11:08:00,
2013-05-08 06:09:00,52.8,43.3,29.93,SSW,198,60.0,60.0,70,0.00,,---,0.00,VWS V14.01,2013-05-08 11:09:00,
2013-05-08 06:10:00,52.8,43.3,29.93,SSW,198,60.0,60.0,70,0.00,,---,0.00,VWS V14.01,2013-05-08 11:10:00,
2013-05-08 06:11:00,52.9,43.4,29.93,SSW,198,60.0,60.0,70,0.00,,---,0.00,VWS V14.01,2013-05-08 11:11:00,
2013-05-08 06:12:00,52.9,43.4,29.93,SSW,198,60.0,60.0,70,0.00,,---,0.00,VWS V14.01,2013-05-08 11:12:00,
2013-05-08 06:13:00,52.9,43.4,29.93,SSW,198,60.0,60.0,70,0.00,,---,0.00,VWS V14.01,2013-05-08 11:13:00,
2013-05-08 06:14:00,53.1,43.6,29.93,SSW,198,60.0,60.0,70,0.00,,---,0.00,VWS V14.01,2013-05-08 11:14:00,
2013-05-08 06:15:00,53.1,43.6,29.93,SSW,198,60.0,60.0,70,0.00,,---,0.00,VWS V14.01,2013-05-08 11:15:00,
2013-05-08 06:16:00,53.2,43.7,29.93,SSW,198,60.0,60.0,70,0.00,,---,0.00,VWS V14.01,2013-05-08 11:16:00,
2013-05-08 06:17:00,53.2,43.7,29.93,SSW,198,60.0,60.0,70,0.00,,---,0.00,VWS V14.01,2013-05-08 11:17:00,
2013-05-08 06:18:00,53.3,43.8,29.93,SSW,198,60.0,60.0,70,0.00,,---,0.00,VWS V14.01,2013-05-08 11:18:00,
2013-05-08 06:19:00,53.3,43.4,29.93,SSW,198,60.0,60.0,69,0.00,,---,0.00,VWS V14.01,2013-05-08 11:19:00,
2013-05-08 06:20:00,53.3,43.4,29.93,SSW,198,60.0,60.0,69,0.00,,---,0.00,VWS V14.01,2013-05-08 11:20:00,
2013-05-08 06:21:00,53.5,43.6,29.93,SSW,198,60.0,60.0,69,0.00,,---,0.00,VWS V14.01,2013-05-08 11:21:00,
2013-05-08 06:22:00,53.5,43.6,29.93,SSW,198,60.0,60.0,69,0.00,,---,0.00,VWS V14.01,2013-05-08 11:22:00,
2013-05-08 06:23:00,53.5,43.6,29.93,SSW,198,60.0,60.0,69,0.00,,---,0.00,VWS V14.01,2013-05-08 11:23:00,
2013-05-08 06:24:00,53.5,43.2,29.93,SSW,198,60.0,60.0,68,0.00,,---,0.00,VWS V14.01,2013-05-08 11:24:00,
2013-05-08 06:25:00,53.5,43.2,29.93,SSW,198,60.0,60.0,68,0.00,,---,0.00,VWS V14.01,2013-05-08 11:25:00,
2013-05-08 06:26:00,53.6,43.3,29.93,SSW,198,60.0,60.0,68,0.00,,---,0.00,VWS V14.01,2013-05-08 11:26:00,
2013-05-08 06:27:00,53.6,43.3,29.93,SSW,198,60.0,60.0,68,0.00,,---,0.00,VWS V14.01,2013-05-08 11:27:00,
2013-05-08 06:28:00,53.6,43.3,29.93,SSW,198,60.0,60.0,68,0.00,,---,0.00,VWS V14.01,2013-05-08 11:28:00,
2013-05-08 06:29:00,53.6,43.3,29.93,SSW,198,60.0,60.0,68,0.00,,---,0.00,VWS V14.01,2013-05-08 11:29:00,
2013-05-08 06:30:00,53.6,43.7,29.94,SSW,198,60.0,60.0,69,0.00,,---,0.00,VWS V14.01,2013-05-08 11:30:00,
2013-05-08 06:31:00,53.6,43.3,29.94,SSW,198,60.0,60.0,68,0.00,,---,0.00,VWS V14.01,2013-05-08 11:31:00,
2013-05-08 06:32:00,53.6,43.3,29.94,SSW,198,60.0,60.0,68,0.00,,---,0.00,VWS V14.01,2013-05-08 11:32:00,
2013-05-08 06:33:00,53.6,43.3,29.94,SSW,198,60.0,60.0,68,0.00,,---,0.00,VWS V14.01,2013-05-08 11:33:00,
2013-05-08 06:34:00,53.6,43.3,29.94,SSW,198,60.0,60.0,68,0.00,,---,0.00,VWS V14.01,2013-05-08 11:34:00,
2013-05-08 06:35:00,53.6,43.3,29.94,SSW,198,60.0,60.0,68,0.00,,---,0.00,VWS V14.01,2013-05-08 11:35:00,
2013-05-08 06:36:00,53.6,43.3,29.94,SSW,198,60.0,60.0,68,0.00,,---,0.00,VWS V14.01,2013-05-08 11:36:00,
2013-05-08 06:37:00,53.8,43.5,29.94,SSW,198,60.0,60.0,68,0.00,,---,0.00,VWS V14.01,2013-05-08 11:37:00,
2013-05-08 06:38:00,53.8,43.5,29.94,SSW,198,60.0,60.0,68,0.00,,---,0.00,VWS V14.01,2013-05-08 11:38:00,
2013-05-08 06:39:00,53.8,43.5,29.94,SSW,198,60.0,60.0,68,0.00,,---,0.00,VWS V14.01,2013-05-08 11:39:00,
2013-05-08 06:40:00,53.8,43.5,29.94,SSW,198,60.0,60.0,68,0.00,,---,0.00,VWS V14.01,2013-05-08 11:40:00,
2013-05-08 06:41:00,53.8,43.5,29.94,SSW,198,60.0,60.0,68,0.00,,---,0.00,VWS V14.01,2013-05-08 11:41:00,
2013-05-08 06:42:00,53.9,43.6,29.94,SSW,198,60.0,60.0,68,0.00,,---,0.00,VWS V14.01,2013-05-08 11:42:00,
2013-05-08 06:43:00,53.9,43.6,29.94,SSW,198,60.0,60.0,68,0.00,,---,0.00,VWS V14.01,2013-05-08 11:43:00,
2013-05-08 06:44:00,53.9,43.6,29.94,SSW,198,60.0,60.0,68,0.00,,---,0.00,VWS V14.01,2013-05-08 11:44:00,
2013-05-08 06:45:00,53.9,43.6,29.94,SSW,198,60.0,60.0,68,0.00,,---,0.00,VWS V14.01,2013-05-08 11:45:00,
2013-05-08 06:46:00,53.9,43.6,29.94,SSW,198,60.0,60.0,68,0.00,,---,0.00,VWS V14.01,2013-05-08 11:46:00,
2013-05-08 06:47:00,54.1,43.8,29.94,SSW,198,60.0,60.0,68,0.00,,---,0.00,VWS V14.01,2013-05-08 11:47:00,
2013-05-08 06:48:00,54.1,43.8,29.94,SSW,198,60.0,60.0,68,0.00,,---,0.00,VWS V14.01,2013-05-08 11:48:00,
2013-05-08 06:49:00,54.1,43.8,29.94,SSW,198,60.0,60.0,68,0.00,,---,0.00,VWS V14.01,2013-05-08 11:49:00,
2013-05-08 06:50:00,54.1,43.8,29.94,SSW,198,60.0,60.0,68,0.00,,---,0.00,VWS V14.01,2013-05-08 11:50:00,
2013-05-08 06:51:00,54.1,43.8,29.94,SSW,198,60.0,60.0,68,0.00,,---,0.00,VWS V14.01,2013-05-08 11:51:00,
2013-05-08 06:52:00,54.1,43.8,29.94,SSW,198,60.0,60.0,68,0.00,,---,0.00,VWS V14.01,2013-05-08 11:52:00,
2013-05-08 06:53:00,54.2,43.9,29.94,SSW,198,60.0,60.0,68,0.00,,---,0.00,VWS V14.01,2013-05-08 11:53:00,
2013-05-08 06:54:00,54.2,43.9,29.94,SSW,198,60.0,60.0,68,0.00,,---,0.00,VWS V14.01,2013-05-08 11:54:00,
2013-05-08 06:55:00,54.4,44.1,29.94,SSW,198,60.0,60.0,68,0.00,,---,0.00,VWS V14.01,2013-05-08 11:55:00,
2013-05-08 06:56:00,54.4,44.1,29.94,SSW,198,60.0,60.0,68,0.00,,---,0.00,VWS V14.01,2013-05-08 11:56:00,
2013-05-08 06:57:00,54.4,44.1,29.94,SSW,198,60.0,60.0,68,0.00,,---,0.00,VWS V14.01,2013-05-08 11:57:00,
2013-05-08 06:58:00,54.4,44.1,29.94,SSW,198,60.0,60.0,68,0.00,,---,0.00,VWS V14.01,2013-05-08 11:58:00,
2013-05-08 06:59:00,54.5,44.2,29.94,SSW,198,60.0,60.0,68,0.00,,---,0.00,VWS V14.01,2013-05-08 11:59:00,
2013-05-08 07:00:00,54.5,44.2,29.94,SSW,198,60.0,60.0,68,0.00,,---,0.00,VWS V14.01,2013-05-08 12:00:00,
2013-05-08 07:01:00,54.5,44.2,29.94,SSW,198,60.0,60.0,68,0.00,,---,0.00,VWS V14.01,2013-05-08 12:01:00,
2013-05-08 07:02:00,54.5,44.2,29.94,SSW,198,60.0,60.0,68,0.00,,---,0.00,VWS V14.01,2013-05-08 12:02:00,
2013-05-08 07:03:00,54.5,44.2,29.94,SSW,198,60.0,60.0,68,0.00,,---,0.00,VWS V14.01,2013-05-08 12:03:00,
2013-05-08 07:04:00,54.7,44.4,29.94,SSW,198,60.0,60.0,68,0.00,,---,0.00,VWS V14.01,2013-05-08 12:04:00,
2013-05-08 07:05:00,54.7,44.4,29.94,SSW,198,60.0,60.0,68,0.00,,---,0.00,VWS V14.01,2013-05-08 12:05:00,
2013-05-08 07:06:00,54.7,44.4,29.94,SSW,198,60.0,60.0,68,0.00,,---,0.00,VWS V14.01,2013-05-08 12:06:00,
2013-05-08 07:07:00,54.7,44.4,29.94,SSW,198,60.0,60.0,68,0.00,,---,0.00,VWS V14.01,2013-05-08 12:07:00,
2013-05-08 07:08:00,54.7,44.4,29.94,SSW,198,60.0,60.0,68,0.00,,---,0.00,VWS V14.01,2013-05-08 12:08:00,
2013-05-08 07:09:00,54.8,44.5,29.94,SSW,198,60.0,60.0,68,0.00,,---,0.00,VWS V14.01,2013-05-08 12:09:00,
2013-05-08 07:10:00,54.8,44.5,29.94,SSW,198,60.0,60.0,68,0.00,,---,0.00,VWS V14.01,2013-05-08 12:10:00,
2013-05-08 07:11:00,54.8,44.5,29.94,SSW,198,60.0,60.0,68,0.00,,---,0.00,VWS V14.01,2013-05-08 12:11:00,
2013-05-08 07:12:00,54.8,44.8,29.94,SSW,198,60.0,60.0,69,0.00,,---,0.00,VWS V14.01,2013-05-08 12:12:00,
2013-05-08 07:13:00,54.8,44.8,29.94,SSW,198,60.0,60.0,69,0.00,,---,0.00,VWS V14.01,2013-05-08 12:13:00,
2013-05-08 07:14:00,55.0,45.4,29.94,SSW,198,60.0,60.0,70,0.00,,---,0.00,VWS V14.01,2013-05-08 12:14:00,
2013-05-08 07:15:00,55.0,45.4,29.94,SSW,198,60.0,60.0,70,0.00,,---,0.00,VWS V14.01,2013-05-08 12:15:00,
2013-05-08 07:16:00,55.0,45.8,29.94,SSW,198,60.0,60.0,71,0.00,,---,0.00,VWS V14.01,2013-05-08 12:16:00,
2013-05-08 07:17:00,55.0,46.2,29.94,SSW,198,60.0,60.0,72,0.00,,---,0.00,VWS V14.01,2013-05-08 12:17:00,
2013-05-08 07:18:00,55.0,46.5,29.94,South,189,60.0,60.0,73,0.00,,---,0.00,VWS V14.01,2013-05-08 12:18:00,
2013-05-08 07:19:00,55.0,46.5,29.94,SSE,154,60.0,60.0,73,0.00,,---,0.00,VWS V14.01,2013-05-08 12:19:00,
2013-05-08 07:20:00,55.0,46.5,29.94,SSE,155,60.0,60.0,73,0.00,,---,0.00,VWS V14.01,2013-05-08 12:20:00,
2013-05-08 07:21:00,55.0,46.5,29.94,SSE,154,60.0,60.0,73,0.00,,---,0.00,VWS V14.01,2013-05-08 12:21:00,
2013-05-08 07:22:00,55.0,46.5,29.94,SSE,154,60.0,60.0,73,0.00,,---,0.00,VWS V14.01,2013-05-08 12:22:00,
2013-05-08 07:23:00,55.0,46.9,29.94,SSE,155,60.0,60.0,74,0.00,,---,0.00,VWS V14.01,2013-05-08 12:23:00,
2013-05-08 07:24:00,55.0,46.9,29.94,SSE,155,60.0,60.0,74,0.00,,---,0.00,VWS V14.01,2013-05-08 12:24:00,
2013-05-08 07:25:00,55.0,46.9,29.94,SSE,147,60.0,60.0,74,0.00,,---,0.00,VWS V14.01,2013-05-08 12:25:00,
2013-05-08 07:26:00,55.0,46.9,29.94,SE,130,60.0,60.0,74,0.00,,---,0.00,VWS V14.01,2013-05-08 12:26:00,
2013-05-08 07:27:00,55.0,46.9,29.94,SE,130,60.0,60.0,74,0.00,,---,0.00,VWS V14.01,2013-05-08 12:27:00,
2013-05-08 07:28:00,55.0,46.9,29.94,NNE,20,60.0,60.0,74,0.00,,---,0.00,VWS V14.01,2013-05-08 12:28:00,
2013-05-08 07:29:00,54.8,47.0,29.94,NW,304,60.0,60.0,75,0.00,,---,0.00,VWS V14.01,2013-05-08 12:29:00,
2013-05-08 07:30:00,54.7,46.9,29.96,North,1,60.0,60.0,75,0.00,,---,0.00,VWS V14.01,2013-05-08 12:30:00,
2013-05-08 07:31:00,54.7,46.6,29.96,North,7,60.0,60.0,74,0.00,,---,0.00,VWS V14.01,2013-05-08 12:31:00,
2013-05-08 07:32:00,54.5,46.4,29.96,NE,37,60.0,60.0,74,0.00,,---,0.00,VWS V14.01,2013-05-08 12:32:00,
2013-05-08 07:33:00,54.5,46.0,29.96,NE,37,60.0,60.0,73,0.00,,---,0.00,VWS V14.01,2013-05-08 12:33:00,
2013-05-08 07:34:00,54.5,46.4,29.96,NE,37,60.0,60.0,74,0.00,,---,0.00,VWS V14.01,2013-05-08 12:34:00,
2013-05-08 07:35:00,54.5,46.4,29.96,NE,37,60.0,60.0,74,0.00,,---,0.00,VWS V14.01,2013-05-08 12:35:00,
2013-05-08 07:36:00,54.5,46.4,29.96,NE,37,60.0,60.0,74,0.00,,---,0.00,VWS V14.01,2013-05-08 12:36:00,
2013-05-08 07:37:00,54.5,46.4,29.96,NE,37,60.0,60.0,74,0.00,,---,0.00,VWS V14.01,2013-05-08 12:37:00,
2013-05-08 07:38:00,54.5,46.0,29.96,NE,37,60.0,60.0,73,0.00,,---,0.00,VWS V14.01,2013-05-08 12:38:00,
2013-05-08 07:39:00,54.5,45.7,29.96,NE,37,60.0,60.0,72,0.00,,---,0.00,VWS V14.01,2013-05-08 12:39:00,
2013-05-08 07:40:00,54.5,45.7,29.96,NE,37,60.0,60.0,72,0.00,,---,0.00,VWS V14.01,2013-05-08 12:40:00,
2013-05-08 07:41:00,54.5,45.3,29.96,NE,37,60.0,60.0,71,0.00,,---,0.00,VWS V14.01,2013-05-08 12:41:00,
2013-05-08 07:42:00,54.7,45.5,29.96,NE,37,60.0,60.0,71,0.00,,---,0.00,VWS V14.01,2013-05-08 12:42:00,
2013-05-08 07:43:00,54.7,45.5,29.96,NE,37,60.0,60.0,71,0.00,,---,0.00,VWS V14.01,2013-05-08 12:43:00,
2013-05-08 07:44:00,54.7,45.5,29.96,NE,37,60.0,60.0,71,0.00,,---,0.00,VWS V14.01,2013-05-08 12:44:00,
2013-05-08 07:45:00,54.8,46.0,29.96,NE,37,60.0,60.0,72,0.00,,---,0.00,VWS V14.01,2013-05-08 12:45:00,
2013-05-08 07:46:00,54.8,46.0,29.96,NE,37,60.0,60.0,72,0.00,,---,0.00,VWS V14.01,2013-05-08 12:46:00,
2013-05-08 07:47:00,54.7,45.5,29.96,NE,37,60.0,60.0,71,0.00,,---,0.00,VWS V14.01,2013-05-08 12:47:00,
2013-05-08 07:48:00,54.7,45.5,29.96,NE,37,60.0,60.0,71,0.00,,---,0.00,VWS V14.01,2013-05-08 12:48:00,
2013-05-08 07:49:00,54.7,45.5,29.96,NE,37,60.0,60.0,71,0.00,,---,0.00,VWS V14.01,2013-05-08 12:49:00,
2013-05-08 07:50:00,54.7,45.9,29.96,NE,37,60.0,60.0,72,0.00,,---,0.00,VWS V14.01,2013-05-08 12:50:00,
2013-05-08 07:51:00,54.5,45.7,29.96,NE,37,60.0,60.0,72,0.00,,---,0.00,VWS V14.01,2013-05-08 12:51:00,
2013-05-08 07:52:00,54.5,45.7,29.96,NE,37,60.0,60.0,72,0.00,,---,0.00,VWS V14.01,2013-05-08 12:52:00,
2013-05-08 07:53:00,54.5,45.7,29.96,NE,38,60.0,60.0,72,0.00,,---,0.00,VWS V14.01,2013-05-08 12:53:00,
2013-05-08 07:54:00,54.5,45.7,29.96,NE,38,60.0,60.0,72,0.00,,---,0.00,VWS V14.01,2013-05-08 12:54:00,
2013-05-08 07:55:00,54.5,45.7,29.96,NE,37,60.0,60.0,72,0.00,,---,0.00,VWS V14.01,2013-05-08 12:55:00,
2013-05-08 07:56:00,54.5,46.0,29.96,NE,37,60.0,60.0,73,0.00,,---,0.00,VWS V14.01,2013-05-08 12:56:00,
2013-05-08 07:57:00,54.5,46.0,29.96,NE,37,60.0,60.0,73,0.00,,---,0.00,VWS V14.01,2013-05-08 12:57:00,
2013-05-08 07:58:00,54.5,46.0,29.96,NE,37,60.0,60.0,73,0.00,,---,0.00,VWS V14.01,2013-05-08 12:58:00,
2013-05-08 07:59:00,54.5,46.0,29.96,NE,37,60.0,60.0,73,0.00,,---,0.00,VWS V14.01,2013-05-08 12:59:00,
2013-05-08 08:00:00,54.5,45.7,29.96,NE,37,60.0,60.0,72,0.00,,---,0.00,VWS V14.01,2013-05-08 13:00:00,
2013-05-08 08:01:00,54.5,45.7,29.96,NE,37,60.0,60.0,72,0.00,,---,0.00,VWS V14.01,2013-05-08 13:01:00,
2013-05-08 08:02:00,54.5,46.0,29.96,NE,37,60.0,60.0,73,0.00,,---,0.00,VWS V14.01,2013-05-08 13:02:00,
2013-05-08 08:03:00,54.5,46.0,29.96,NE,37,60.0,60.0,73,0.00,,---,0.00,VWS V14.01,2013-05-08 13:03:00,
2013-05-08 08:04:00,54.5,46.0,29.96,NE,37,60.0,60.0,73,0.00,,---,0.00,VWS V14.01,2013-05-08 13:04:00,
2013-05-08 08:05:00,54.5,46.4,29.96,NE,37,60.0,60.0,74,0.00,,---,0.00,VWS V14.01,2013-05-08 13:05:00,
2013-05-08 08:06:00,54.5,46.0,29.96,NE,37,60.0,60.0,73,0.00,,---,0.00,VWS V14.01,2013-05-08 13:06:00,
2013-05-08 08:07:00,54.5,46.0,29.96,NE,37,60.0,60.0,73,0.00,,---,0.00,VWS V14.01,2013-05-08 13:07:00,
2013-05-08 08:08:00,54.5,46.4,29.96,NE,37,60.0,60.0,74,0.00,,---,0.00,VWS V14.01,2013-05-08 13:08:00,
2013-05-08 08:09:00,54.5,46.4,29.96,NE,37,60.0,60.0,74,0.00,,---,0.00,VWS V14.01,2013-05-08 13:09:00,
2013-05-08 08:10:00,54.5,46.4,29.96,NE,37,60.0,60.0,74,0.00,,---,0.00,VWS V14.01,2013-05-08 13:10:00,
2013-05-08 08:11:00,54.4,46.3,29.96,NE,37,60.0,60.0,74,0.00,,---,0.00,VWS V14.01,2013-05-08 13:11:00,
2013-05-08 08:12:00,54.4,46.3,29.96,NE,37,60.0,60.0,74,0.00,,---,0.00,VWS V14.01,2013-05-08 13:12:00,
2013-05-08 08:13:00,54.4,46.3,29.96,NE,37,60.0,60.0,74,0.00,,---,0.00,VWS V14.01,2013-05-08 13:13:00,
2013-05-08 08:14:00,54.4,45.9,29.96,NE,38,60.0,60.0,73,0.00,,---,0.00,VWS V14.01,2013-05-08 13:14:00,
2013-05-08 08:15:00,54.4,46.3,29.96,NE,37,60.0,60.0,74,0.00,,---,0.00,VWS V14.01,2013-05-08 13:15:00,
2013-05-08 08:16:00,54.4,46.3,29.96,NE,37,60.0,60.0,74,0.00,,---,0.00,VWS V14.01,2013-05-08 13:16:00,
2013-05-08 08:17:00,54.4,46.3,29.96,NE,37,60.0,60.0,74,0.00,,---,0.00,VWS V14.01,2013-05-08 13:17:00,
2013-05-08 08:18:00,54.4,46.7,29.96,NE,37,60.0,60.0,75,0.00,,---,0.00,VWS V14.01,2013-05-08 13:18:00,
2013-05-08 08:19:00,54.4,46.7,29.96,NE,37,60.0,60.0,75,0.00,,---,0.00,VWS V14.01,2013-05-08 13:19:00,
2013-05-08 08:20:00,54.4,46.7,29.96,NE,38,60.0,60.0,75,0.00,,---,0.00,VWS V14.01,2013-05-08 13:20:00,
2013-05-08 08:21:00,54.4,46.3,29.96,NE,37,60.0,60.0,74,0.00,,---,0.00,VWS V14.01,2013-05-08 13:21:00,
2013-05-08 08:22:00,54.4,46.7,29.96,NE,37,60.0,60.0,75,0.00,,---,0.00,VWS V14.01,2013-05-08 13:22:00,
2013-05-08 08:23:00,54.4,46.3,29.96,NE,37,60.0,60.0,74,0.00,,---,0.00,VWS V14.01,2013-05-08 13:23:00,
2013-05-08 08:24:00,54.4,46.7,29.96,NE,37,60.0,60.0,75,0.00,,---,0.00,VWS V14.01,2013-05-08 13:24:00,
2013-05-08 08:25:00,54.5,46.8,29.96,NE,37,60.0,60.0,75,0.00,,---,0.00,VWS V14.01,2013-05-08 13:25:00,
2013-05-08 08:26:00,54.5,46.8,29.96,NE,37,60.0,60.0,75,0.00,,---,0.00,VWS V14.01,2013-05-08 13:26:00,
2013-05-08 08:27:00,54.5,46.8,29.96,NE,37,60.0,60.0,75,0.00,,---,0.00,VWS V14.01,2013-05-08 13:27:00,
2013-05-08 08:28:00,54.7,46.9,29.96,NE,37,60.0,60.0,75,0.00,,---,0.00,VWS V14.01,2013-05-08 13:28:00,
2013-05-08 08:29:00,54.7,46.9,29.96,NE,37,60.0,60.0,75,0.00,,---,0.00,VWS V14.01,2013-05-08 13:29:00,
2013-05-08 08:30:00,54.8,47.0,29.96,NE,37,60.0,60.0,75,0.00,,---,0.00,VWS V14.01,2013-05-08 13:30:00,
2013-05-08 08:31:00,54.8,47.0,29.96,NE,37,60.0,60.0,75,0.00,,---,0.00,VWS V14.01,2013-05-08 13:31:00,
2013-05-08 08:32:00,54.8,47.0,29.96,NE,37,60.0,60.0,75,0.00,,---,0.00,VWS V14.01,2013-05-08 13:32:00,
2013-05-08 08:33:00,54.8,47.0,29.96,NE,37,60.0,60.0,75,0.00,,---,0.00,VWS V14.01,2013-05-08 13:33:00,
2013-05-08 08:34:00,54.8,47.0,29.96,NE,37,60.0,60.0,75,0.00,,---,0.00,VWS V14.01,2013-05-08 13:34:00,
2013-05-08 08:35:00,54.8,47.0,29.96,NE,37,60.0,60.0,75,0.00,,---,0.00,VWS V14.01,2013-05-08 13:35:00,
2013-05-08 08:36:00,55.0,47.2,29.96,NE,38,60.0,60.0,75,0.00,,---,0.00,VWS V14.01,2013-05-08 13:36:00,
2013-05-08 08:37:00,55.1,47.7,29.96,ENE,78,60.0,60.0,76,0.00,,---,0.00,VWS V14.01,2013-05-08 13:37:00,
2013-05-08 08:38:00,55.3,47.9,29.96,East,79,60.0,60.0,76,0.00,,---,0.00,VWS V14.01,2013-05-08 13:38:00,
2013-05-08 08:39:00,55.3,47.9,29.96,East,79,60.0,60.0,76,0.00,,---,0.00,VWS V14.01,2013-05-08 13:39:00,
2013-05-08 08:40:00,55.4,48.0,29.96,East,79,60.0,60.0,76,0.00,,---,0.00,VWS V14.01,2013-05-08 13:40:00,
2013-05-08 08:41:00,55.4,48.0,29.96,ENE,65,60.0,60.0,76,0.00,,---,0.00,VWS V14.01,2013-05-08 13:41:00,
2013-05-08 08:42:00,55.4,47.6,29.96,ENE,62,60.0,60.0,75,0.00,,---,0.00,VWS V14.01,2013-05-08 13:42:00,
2013-05-08 08:43:00,55.4,47.6,29.96,ENE,62,60.0,60.0,75,0.00,,---,0.00,VWS V14.01,2013-05-08 13:43:00,
2013-05-08 08:44:00,55.6,47.8,29.96,ENE,62,60.0,60.0,75,0.00,,---,0.00,VWS V14.01,2013-05-08 13:44:00,
2013-05-08 08:45:00,55.6,48.2,29.97,ENE,62,60.0,60.0,76,0.00,,---,0.00,VWS V14.01,2013-05-08 13:45:00,
2013-05-08 08:46:00,55.6,48.2,29.97,ENE,62,60.0,60.0,76,0.00,,---,0.00,VWS V14.01,2013-05-08 13:46:00,
2013-05-08 08:47:00,55.7,47.9,29.97,ENE,62,60.0,60.0,75,0.00,,---,0.00,VWS V14.01,2013-05-08 13:47:00,
2013-05-08 08:48:00,55.7,47.9,29.97,ENE,62,60.0,60.0,75,0.00,,---,0.00,VWS V14.01,2013-05-08 13:48:00,
2013-05-08 08:49:00,55.7,48.3,29.97,ENE,62,60.0,60.0,76,0.00,,---,0.00,VWS V14.01,2013-05-08 13:49:00,
2013-05-08 08:50:00,55.7,48.3,29.97,ENE,62,60.0,60.0,76,0.00,,---,0.00,VWS V14.01,2013-05-08 13:50:00,
2013-05-08 08:51:00,55.7,47.9,29.97,ENE,62,60.0,60.0,75,0.00,,---,0.00,VWS V14.01,2013-05-08 13:51:00,
2013-05-08 08:52:00,55.7,47.9,29.97,ENE,62,60.0,60.0,75,0.00,,---,0.00,VWS V14.01,2013-05-08 13:52:00,
2013-05-08 08:53:00,55.7,47.5,29.97,ENE,62,60.0,60.0,74,0.00,,---,0.00,VWS V14.01,2013-05-08 13:53:00,
2013-05-08 08:54:00,55.7,47.5,29.97,ENE,62,60.0,60.0,74,0.00,,---,0.00,VWS V14.01,2013-05-08 13:54:00,
2013-05-08 08:55:00,55.7,47.5,29.97,ENE,62,60.0,60.0,74,0.00,,---,0.00,VWS V14.01,2013-05-08 13:55:00,
2013-05-08 08:56:00,55.7,47.5,29.97,ENE,62,60.0,60.0,74,0.00,,---,0.00,VWS V14.01,2013-05-08 13:56:00,
2013-05-08 08:57:00,55.7,47.5,29.97,ENE,62,60.0,60.0,74,0.00,,---,0.00,VWS V14.01,2013-05-08 13:57:00,
2013-05-08 08:58:00,55.7,47.5,29.97,ENE,62,60.0,60.0,74,0.00,,---,0.00,VWS V14.01,2013-05-08 13:58:00,
2013-05-08 08:59:00,55.7,47.5,29.97,ENE,62,60.0,60.0,74,0.00,,---,0.00,VWS V14.01,2013-05-08 13:59:00,
2013-05-08 09:00:00,55.9,47.7,29.97,ENE,62,60.0,60.0,74,0.00,,---,0.00,VWS V14.01,2013-05-08 14:00:00,
2013-05-08 09:01:00,55.9,47.7,29.97,ENE,62,60.0,60.0,74,0.00,,---,0.00,VWS V14.01,2013-05-08 14:01:00,
2013-05-08 09:02:00,55.9,47.7,29.97,ENE,62,60.0,60.0,74,0.00,,---,0.00,VWS V14.01,2013-05-08 14:02:00,
2013-05-08 09:03:00,55.9,47.7,29.97,ENE,62,60.0,60.0,74,0.00,,---,0.00,VWS V14.01,2013-05-08 14:03:00,
2013-05-08 09:04:00,55.9,47.7,29.97,ENE,62,60.0,60.0,74,0.00,,---,0.00,VWS V14.01,2013-05-08 14:04:00,
2013-05-08 09:05:00,55.9,47.7,29.97,ENE,62,60.0,60.0,74,0.00,,---,0.00,VWS V14.01,2013-05-08 14:05:00,
2013-05-08 09:06:00,55.9,47.7,29.97,ENE,62,60.0,60.0,74,0.00,,---,0.00,VWS V14.01,2013-05-08 14:06:00,
2013-05-08 09:07:00,55.9,47.7,29.97,ENE,62,60.0,60.0,74,0.00,,---,0.00,VWS V14.01,2013-05-08 14:07:00,
2013-05-08 09:08:00,55.9,47.7,29.97,ENE,62,60.0,60.0,74,0.00,,---,0.00,VWS V14.01,2013-05-08 14:08:00,
2013-05-08 09:09:00,55.9,47.4,29.97,ENE,62,60.0,60.0,73,0.00,,---,0.00,VWS V14.01,2013-05-08 14:09:00,
2013-05-08 09:10:00,55.9,47.4,29.97,ENE,62,60.0,60.0,73,0.00,,---,0.00,VWS V14.01,2013-05-08 14:10:00,
2013-05-08 09:11:00,55.9,47.4,29.97,ENE,62,60.0,60.0,73,0.00,,---,0.00,VWS V14.01,2013-05-08 14:11:00,
2013-05-08 09:12:00,55.9,47.4,29.97,ENE,62,60.0,60.0,73,0.00,,---,0.00,VWS V14.01,2013-05-08 14:12:00,
2013-05-08 09:13:00,55.9,47.4,29.97,ENE,62,60.0,60.0,73,0.00,,---,0.00,VWS V14.01,2013-05-08 14:13:00,
2013-05-08 09:14:00,56.0,47.5,29.97,ENE,62,60.0,60.0,73,0.00,,---,0.00,VWS V14.01,2013-05-08 14:14:00,
2013-05-08 09:15:00,56.0,47.1,29.98,ENE,62,60.0,60.0,72,0.00,,---,0.00,VWS V14.01,2013-05-08 14:15:00,
2013-05-08 09:16:00,56.0,47.1,29.98,ENE,62,60.0,60.0,72,0.00,,---,0.00,VWS V14.01,2013-05-08 14:16:00,
2013-05-08 09:17:00,56.0,47.1,29.98,ENE,62,60.0,60.0,72,0.00,,---,0.00,VWS V14.01,2013-05-08 14:17:00,
2013-05-08 09:18:00,56.0,47.1,29.98,ENE,62,60.0,60.0,72,0.00,,---,0.00,VWS V14.01,2013-05-08 14:18:00,
2013-05-08 09:19:00,56.0,47.1,29.98,ENE,62,60.0,60.0,72,0.00,,---,0.00,VWS V14.01,2013-05-08 14:19:00,
2013-05-08 09:20:00,56.0,47.1,29.98,ENE,62,60.0,60.0,72,0.00,,---,0.00,VWS V14.01,2013-05-08 14:20:00,
2013-05-08 09:21:00,56.0,47.1,29.98,ENE,62,60.0,60.0,72,0.00,,---,0.00,VWS V14.01,2013-05-08 14:21:00,
2013-05-08 09:22:00,56.2,47.3,29.98,ENE,61,60.0,60.0,72,0.00,,---,0.00,VWS V14.01,2013-05-08 14:22:00,
2013-05-08 09:23:00,56.2,46.9,29.98,ENE,61,60.0,60.0,71,0.00,,---,0.00,VWS V14.01,2013-05-08 14:23:00,
2013-05-08 09:24:00,56.2,46.9,29.98,ENE,61,60.0,60.0,71,0.00,,---,0.00,VWS V14.01,2013-05-08 14:24:00,
2013-05-08 09:25:00,56.2,46.9,29.98,ENE,61,60.0,60.0,71,0.00,,---,0.00,VWS V14.01,2013-05-08 14:25:00,
2013-05-08 09:26:00,56.2,46.9,29.98,ENE,61,60.0,60.0,71,0.00,,---,0.00,VWS V14.01,2013-05-08 14:26:00,
2013-05-08 09:27:00,56.2,46.9,29.98,ENE,61,60.0,60.0,71,0.00,,---,0.00,VWS V14.01,2013-05-08 14:27:00,
2013-05-08 09:28:00,56.2,46.9,29.98,ENE,61,60.0,60.0,71,0.00,,---,0.00,VWS V14.01,2013-05-08 14:28:00,
2013-05-08 09:29:00,56.2,46.9,29.98,ENE,61,60.0,60.0,71,0.00,,---,0.00,VWS V14.01,2013-05-08 14:29:00,
2013-05-08 09:30:00,56.0,46.7,29.98,ENE,61,60.0,60.0,71,0.00,,---,0.00,VWS V14.01,2013-05-08 14:30:00,
2013-05-08 09:31:00,56.0,46.7,29.98,ENE,61,60.0,60.0,71,0.00,,---,0.00,VWS V14.01,2013-05-08 14:31:00,
2013-05-08 09:32:00,56.0,46.7,29.98,ENE,61,60.0,60.0,71,0.00,,---,0.00,VWS V14.01,2013-05-08 14:32:00,
2013-05-08 09:33:00,56.0,46.7,29.98,ENE,61,60.0,60.0,71,0.00,,---,0.00,VWS V14.01,2013-05-08 14:33:00,
2013-05-08 09:34:00,55.9,46.7,29.98,ENE,61,60.0,60.0,71,0.00,,---,0.00,VWS V14.01,2013-05-08 14:34:00,
2013-05-08 09:35:00,55.9,46.7,29.98,ENE,61,60.0,60.0,71,0.00,,---,0.00,VWS V14.01,2013-05-08 14:35:00,
2013-05-08 09:36:00,55.9,46.7,29.98,ENE,61,60.0,60.0,71,0.00,,---,0.00,VWS V14.01,2013-05-08 14:36:00,
2013-05-08 09:37:00,55.9,46.7,29.98,ENE,61,60.0,60.0,71,0.00,,---,0.00,VWS V14.01,2013-05-08 14:37:00,
2013-05-08 09:38:00,55.9,46.7,29.98,ENE,61,60.0,60.0,71,0.00,,---,0.00,VWS V14.01,2013-05-08 14:38:00,
2013-05-08 09:39:00,55.7,46.8,29.98,ENE,61,60.0,60.0,72,0.00,,---,0.00,VWS V14.01,2013-05-08 14:39:00,
2013-05-08 09:40:00,55.7,46.5,29.98,ENE,61,60.0,60.0,71,0.00,,---,0.00,VWS V14.01,2013-05-08 14:40:00,
2013-05-08 09:41:00,55.7,46.5,29.98,ENE,61,60.0,60.0,71,0.00,,---,0.00,VWS V14.01,2013-05-08 14:41:00,
2013-05-08 09:42:00,55.7,46.5,29.98,ENE,61,60.0,60.0,71,0.00,,---,0.00,VWS V14.01,2013-05-08 14:42:00,
2013-05-08 09:43:00,55.7,46.5,29.98,ENE,61,60.0,60.0,71,0.00,,---,0.00,VWS V14.01,2013-05-08 14:43:00,
2013-05-08 09:44:00,55.7,46.5,29.98,ENE,61,60.0,60.0,71,0.00,,---,0.00,VWS V14.01,2013-05-08 14:44:00,
2013-05-08 09:45:00,55.6,46.4,29.98,ENE,61,60.0,60.0,71,0.00,,---,0.00,VWS V14.01,2013-05-08 14:45:00,
2013-05-08 09:46:00,55.6,46.4,29.98,ENE,61,60.0,60.0,71,0.00,,---,0.00,VWS V14.01,2013-05-08 14:46:00,
2013-05-08 09:47:00,55.6,46.4,29.98,ENE,61,60.0,60.0,71,0.00,,---,0.00,VWS V14.01,2013-05-08 14:47:00,
2013-05-08 09:48:00,55.6,46.4,29.98,ENE,61,60.0,60.0,71,0.01,,---,0.01,VWS V14.01,2013-05-08 14:48:00,
2013-05-08 09:49:00,55.6,46.4,29.98,ENE,59,60.0,60.0,71,0.01,,---,0.01,VWS V14.01,2013-05-08 14:49:00,
2013-05-08 09:50:00,55.6,46.7,29.98,ENE,61,60.0,60.0,72,0.01,,---,0.01,VWS V14.01,2013-05-08 14:50:00,
2013-05-08 09:51:00,55.6,46.7,29.98,ENE,61,60.0,60.0,72,0.01,,---,0.01,VWS V14.01,2013-05-08 14:51:00,
2013-05-08 09:52:00,55.4,46.5,29.98,ENE,61,60.0,60.0,72,0.01,,---,0.01,VWS V14.01,2013-05-08 14:52:00,
2013-05-08 09:53:00,55.4,46.5,29.98,ENE,59,60.0,60.0,72,0.01,,---,0.01,VWS V14.01,2013-05-08 14:53:00,
2013-05-08 09:54:00,55.4,46.5,29.98,ENE,61,60.0,60.0,72,0.01,,---,0.01,VWS V14.01,2013-05-08 14:54:00,
2013-05-08 09:55:00,55.4,46.5,29.98,ENE,59,60.0,60.0,72,0.01,,---,0.01,VWS V14.01,2013-05-08 14:55:00,
2013-05-08 09:56:00,55.4,46.5,29.98,ENE,61,60.0,60.0,72,0.01,,---,0.01,VWS V14.01,2013-05-08 14:56:00,
2013-05-08 09:57:00,55.4,46.9,29.98,ENE,59,60.0,60.0,73,0.01,,---,0.01,VWS V14.01,2013-05-08 14:57:00,
2013-05-08 09:58:00,55.4,46.9,29.98,ENE,59,60.0,60.0,73,0.01,,---,0.01,VWS V14.01,2013-05-08 14:58:00,
2013-05-08 09:59:00,55.4,46.9,29.98,ENE,61,60.0,60.0,73,0.01,,---,0.01,VWS V14.01,2013-05-08 14:59:00,
2013-05-08 10:00:00,55.4,46.9,29.98,ENE,61,60.0,60.0,73,0.01,,---,0.01,VWS V14.01,2013-05-08 15:00:00,
2013-05-08 10:01:00,55.4,46.5,29.98,ENE,61,60.0,60.0,72,0.01,,---,0.01,VWS V14.01,2013-05-08 15:01:00,
2013-05-08 10:02:00,55.4,46.5,29.98,ENE,61,60.0,60.0,72,0.01,,---,0.01,VWS V14.01,2013-05-08 15:02:00,
2013-05-08 10:03:00,55.4,46.2,29.98,ENE,61,60.0,60.0,71,0.01,,---,0.01,VWS V14.01,2013-05-08 15:03:00,
2013-05-08 10:04:00,55.4,46.2,29.98,ENE,59,60.0,60.0,71,0.01,,---,0.01,VWS V14.01,2013-05-08 15:04:00,
2013-05-08 10:05:00,55.6,46.4,29.98,ENE,61,60.0,60.0,71,0.01,,---,0.01,VWS V14.01,2013-05-08 15:05:00,
2013-05-08 10:06:00,55.6,46.4,29.98,ENE,61,60.0,60.0,71,0.01,,---,0.01,VWS V14.01,2013-05-08 15:06:00,
2013-05-08 10:07:00,55.6,46.4,29.98,ENE,68,60.0,60.0,71,0.01,,---,0.01,VWS V14.01,2013-05-08 15:07:00,
2013-05-08 10:08:00,55.7,46.5,29.98,ENE,68,60.0,60.0,71,0.01,,---,0.01,VWS V14.01,2013-05-08 15:08:00,
2013-05-08 10:09:00,55.7,46.8,29.98,ENE,66,60.0,60.0,72,0.01,,---,0.01,VWS V14.01,2013-05-08 15:09:00,
2013-05-08 10:10:00,55.9,45.9,29.98,NNE,17,60.0,60.0,69,0.01,,---,0.01,VWS V14.01,2013-05-08 15:10:00,
2013-05-08 10:11:00,55.9,45.9,29.98,North,1,60.0,60.0,69,0.01,,---,0.01,VWS V14.01,2013-05-08 15:11:00,
2013-05-08 10:12:00,55.9,45.5,29.98,North,1,60.0,60.0,68,0.01,,---,0.01,VWS V14.01,2013-05-08 15:12:00,
2013-05-08 10:13:00,56.0,45.6,29.98,North,1,60.0,60.0,68,0.01,,---,0.01,VWS V14.01,2013-05-08 15:13:00,
2013-05-08 10:14:00,56.0,45.6,29.98,North,1,60.0,60.0,68,0.01,,---,0.01,VWS V14.01,2013-05-08 15:14:00,
2013-05-08 10:15:00,56.2,45.8,29.98,North,1,60.0,60.0,68,0.01,,---,0.01,VWS V14.01,2013-05-08 15:15:00,
2013-05-08 10:16:00,56.2,45.8,29.98,North,4,60.0,60.0,68,0.01,,---,0.01,VWS V14.01,2013-05-08 15:16:00,
2013-05-08 10:17:00,56.3,45.9,29.98,North,4,60.0,60.0,68,0.01,,---,0.01,VWS V14.01,2013-05-08 15:17:00,
2013-05-08 10:18:00,56.3,45.9,29.98,North,6,60.0,60.0,68,0.01,,---,0.01,VWS V14.01,2013-05-08 15:18:00,
2013-05-08 10:19:00,56.3,45.9,29.98,North,10,60.0,60.0,68,0.01,,---,0.01,VWS V14.01,2013-05-08 15:19:00,
2013-05-08 10:20:00,56.5,46.1,29.98,NW,325,60.0,60.0,68,0.01,,---,0.01,VWS V14.01,2013-05-08 15:20:00,
2013-05-08 10:21:00,56.5,45.7,29.98,NNE,13,60.0,60.0,67,0.01,,---,0.01,VWS V14.01,2013-05-08 15:21:00,
2013-05-08 10:22:00,56.5,46.1,29.98,North,6,60.0,60.0,68,0.01,,---,0.01,VWS V14.01,2013-05-08 15:22:00,
2013-05-08 10:23:00,56.5,45.7,29.98,North,8,60.0,60.0,67,0.01,,---,0.01,VWS V14.01,2013-05-08 15:23:00,
2013-05-08 10:24:00,56.5,46.1,29.98,North,7,60.0,60.0,68,0.01,,---,0.01,VWS V14.01,2013-05-08 15:24:00,
2013-05-08 10:25:00,56.5,46.1,29.98,North,7,60.0,60.0,68,0.01,,---,0.01,VWS V14.01,2013-05-08 15:25:00,
2013-05-08 10:26:00,56.5,45.7,29.98,North,8,60.0,60.0,67,0.01,,---,0.01,VWS V14.01,2013-05-08 15:26:00,
2013-05-08 10:27:00,56.5,46.1,29.98,North,11,60.0,60.0,68,0.01,,---,0.01,VWS V14.01,2013-05-08 15:27:00,
2013-05-08 10:28:00,56.5,46.1,29.98,North,4,60.0,60.0,68,0.01,,---,0.01,VWS V14.01,2013-05-08 15:28:00,
2013-05-08 10:29:00,56.5,46.1,29.99,NE,35,60.0,60.0,68,0.01,,---,0.01,VWS V14.01,2013-05-08 15:29:00,
2013-05-08 10:30:00,56.5,46.1,29.99,NNE,14,60.0,60.0,68,0.01,,---,0.01,VWS V14.01,2013-05-08 15:30:00,
2013-05-08 10:31:00,56.5,46.1,29.99,NNE,13,60.0,60.0,68,0.01,,---,0.01,VWS V14.01,2013-05-08 15:31:00,
2013-05-08 10:32:00,56.5,46.1,29.99,North,10,60.0,60.0,68,0.01,,---,0.01,VWS V14.01,2013-05-08 15:32:00,
2013-05-08 10:33:00,56.5,46.1,29.99,North,1,60.0,60.0,68,0.01,,---,0.01,VWS V14.01,2013-05-08 15:33:00,
2013-05-08 10:34:00,56.5,46.1,29.99,North,3,60.0,60.0,68,0.01,,---,0.01,VWS V14.01,2013-05-08 15:34:00,
2013-05-08 10:35:00,56.5,46.1,29.99,North,3,60.0,60.0,68,0.01,,---,0.01,VWS V14.01,2013-05-08 15:35:00,
2013-05-08 10:36:00,56.5,46.5,29.99,North,4,60.0,60.0,69,0.01,,---,0.01,VWS V14.01,2013-05-08 15:36:00,
2013-05-08 10:37:00,56.6,46.6,29.99,North,3,60.0,60.0,69,0.01,,---,0.01,VWS V14.01,2013-05-08 15:37:00,
2013-05-08 10:38:00,56.7,46.7,29.99,North,3,60.0,60.0,69,0.01,,---,0.01,VWS V14.01,2013-05-08 15:38:00,
2013-05-08 10:39:00,56.7,46.7,29.99,North,3,60.0,60.0,69,0.01,,---,0.01,VWS V14.01,2013-05-08 15:39:00,
2013-05-08 10:40:00,56.9,46.8,29.99,North,3,60.0,60.0,69,0.01,,---,0.01,VWS V14.01,2013-05-08 15:40:00,
2013-05-08 10:41:00,57.0,47.3,29.99,North,3,60.0,60.0,70,0.01,,---,0.01,VWS V14.01,2013-05-08 15:41:00,
2013-05-08 10:42:00,57.0,46.9,29.99,North,0,60.0,60.0,69,0.01,,---,0.01,VWS V14.01,2013-05-08 15:42:00,
2013-05-08 10:43:00,57.0,46.6,29.99,North,359,60.0,60.0,68,0.01,,---,0.01,VWS V14.01,2013-05-08 15:43:00,
2013-05-08 10:44:00,57.0,46.6,29.99,North,0,60.0,60.0,68,0.01,,---,0.01,VWS V14.01,2013-05-08 15:44:00,
2013-05-08 10:45:00,57.0,46.6,29.99,NW,319,60.0,60.0,68,0.01,,---,0.01,VWS V14.01,2013-05-08 15:45:00,
2013-05-08 10:46:00,57.0,46.6,29.99,North,0,60.0,60.0,68,0.01,,---,0.01,VWS V14.01,2013-05-08 15:46:00,
2013-05-08 10:47:00,57.0,46.6,29.99,North,0,60.0,60.0,68,0.01,,---,0.01,VWS V14.01,2013-05-08 15:47:00,
2013-05-08 10:48:00,57.0,46.6,29.99,NNE,16,60.0,60.0,68,0.01,,---,0.01,VWS V14.01,2013-05-08 15:48:00,
2013-05-08 10:49:00,57.0,46.6,29.99,NNE,27,60.0,60.0,68,0.01,,---,0.01,VWS V14.01,2013-05-08 15:49:00,
2013-05-08 10:50:00,57.2,46.8,29.99,NE,35,60.0,60.0,68,0.01,,---,0.01,VWS V14.01,2013-05-08 15:50:00,
2013-05-08 10:51:00,57.2,46.8,29.99,NNE,18,60.0,60.0,68,0.01,,---,0.01,VWS V14.01,2013-05-08 15:51:00,
2013-05-08 10:52:00,57.3,47.2,29.99,NNE,14,60.0,60.0,69,0.01,,---,0.01,VWS V14.01,2013-05-08 15:52:00,
2013-05-08 10:53:00,57.5,47.4,29.99,NNE,14,60.0,60.0,69,0.01,,---,0.01,VWS V14.01,2013-05-08 15:53:00,
2013-05-08 10:54:00,57.6,47.5,29.99,North,3,60.0,60.0,69,0.01,,---,0.01,VWS V14.01,2013-05-08 15:54:00,
2013-05-08 10:55:00,57.6,46.7,29.99,North,1,60.0,60.0,67,0.01,,---,0.01,VWS V14.01,2013-05-08 15:55:00,
2013-05-08 10:56:00,57.8,46.9,29.99,North,3,60.0,60.0,67,0.01,,---,0.01,VWS V14.01,2013-05-08 15:56:00,
2013-05-08 10:57:00,57.8,46.9,29.99,North,3,60.0,60.0,67,0.01,,---,0.01,VWS V14.01,2013-05-08 15:57:00,
2013-05-08 10:58:00,58.0,47.1,29.99,North,4,60.0,60.0,67,0.01,,---,0.01,VWS V14.01,2013-05-08 15:58:00,
2013-05-08 10:59:00,58.0,46.7,29.99,North,0,60.0,60.0,66,0.01,,---,0.01,VWS V14.01,2013-05-08 15:59:00,
2013-05-08 11:00:00,58.0,46.7,29.99,North,0,60.0,60.0,66,0.01,,---,0.01,VWS V14.01,2013-05-08 16:00:00,
2013-05-08 11:01:00,58.1,47.6,29.99,North,0,60.0,60.0,68,0.00,,---,0.01,VWS V14.01,2013-05-08 16:01:00,
2013-05-08 11:02:00,58.3,47.0,29.99,North,0,60.0,60.0,66,0.00,,---,0.01,VWS V14.01,2013-05-08 16:02:00,
2013-05-08 11:03:00,58.3,47.0,29.99,North,0,60.0,60.0,66,0.00,,---,0.01,VWS V14.01,2013-05-08 16:03:00,
2013-05-08 11:04:00,58.3,47.0,29.99,North,0,60.0,60.0,66,0.00,,---,0.01,VWS V14.01,2013-05-08 16:04:00,
2013-05-08 11:05:00,58.4,46.7,29.99,North,4,60.0,60.0,65,0.00,,---,0.01,VWS V14.01,2013-05-08 16:05:00,
2013-05-08 11:06:00,58.4,46.3,29.99,North,0,60.0,60.0,64,0.00,,---,0.01,VWS V14.01,2013-05-08 16:06:00,
2013-05-08 11:07:00,58.4,46.3,29.99,North,0,60.0,60.0,64,0.00,,---,0.01,VWS V14.01,2013-05-08 16:07:00,
2013-05-08 11:08:00,58.4,46.3,29.99,North,0,60.0,60.0,64,0.00,,---,0.01,VWS V14.01,2013-05-08 16:08:00,
2013-05-08 11:09:00,58.4,46.3,29.99,North,0,60.0,60.0,64,0.00,,---,0.01,VWS V14.01,2013-05-08 16:09:00,
2013-05-08 11:10:00,58.4,46.3,29.99,North,0,60.0,60.0,64,0.00,,---,0.01,VWS V14.01,2013-05-08 16:10:00,
2013-05-08 11:11:00,58.6,46.9,29.99,North,0,60.0,60.0,65,0.00,,---,0.01,VWS V14.01,2013-05-08 16:11:00,
2013-05-08 11:12:00,58.7,46.6,29.99,North,0,60.0,60.0,64,0.00,,---,0.01,VWS V14.01,2013-05-08 16:12:00,
2013-05-08 11:13:00,58.9,47.2,29.99,North,7,60.0,60.0,65,0.00,,---,0.01,VWS V14.01,2013-05-08 16:13:00,
2013-05-08 11:14:00,58.9,46.8,29.99,North,7,60.0,60.0,64,0.00,,---,0.01,VWS V14.01,2013-05-08 16:14:00,
2013-05-08 11:15:00,59.0,46.4,29.99,North,8,60.0,60.0,63,0.00,,---,0.01,VWS V14.01,2013-05-08 16:15:00,
2013-05-08 11:16:00,59.0,46.4,29.99,North,10,60.0,60.0,63,0.00,,---,0.01,VWS V14.01,2013-05-08 16:16:00,
2013-05-08 11:17:00,59.2,46.2,29.99,North,10,60.0,60.0,62,0.00,,---,0.01,VWS V14.01,2013-05-08 16:17:00,
2013-05-08 11:18:00,59.3,46.3,29.99,NNE,27,60.0,60.0,62,0.00,,---,0.01,VWS V14.01,2013-05-08 16:18:00,
2013-05-08 11:19:00,59.3,46.3,29.99,North,8,60.0,60.0,62,0.00,,---,0.01,VWS V14.01,2013-05-08 16:19:00,
2013-05-08 11:20:00,59.5,46.1,29.99,North,8,60.0,60.0,61,0.00,,---,0.01,VWS V14.01,2013-05-08 16:20:00,
2013-05-08 11:21:00,59.5,46.1,29.99,North,8,60.0,60.0,61,0.00,,---,0.01,VWS V14.01,2013-05-08 16:21:00,
2013-05-08 11:22:00,59.5,46.1,29.99,North,0,60.0,60.0,61,0.00,,---,0.01,VWS V14.01,2013-05-08 16:22:00,
2013-05-08 11:23:00,59.6,45.7,29.99,North,0,60.0,60.0,60,0.00,,---,0.01,VWS V14.01,2013-05-08 16:23:00,
2013-05-08 11:24:00,59.8,45.9,29.99,North,0,60.0,60.0,60,0.00,,---,0.01,VWS V14.01,2013-05-08 16:24:00,
2013-05-08 11:25:00,59.8,45.9,29.99,North,0,60.0,60.0,60,0.00,,---,0.01,VWS V14.01,2013-05-08 16:25:00,
2013-05-08 11:26:00,59.9,46.0,29.99,North,0,60.0,60.0,60,0.00,,---,0.01,VWS V14.01,2013-05-08 16:26:00,
2013-05-08 11:27:00,60.1,46.2,29.99,North,0,60.0,60.0,60,0.00,,---,0.01,VWS V14.01,2013-05-08 16:27:00,
2013-05-08 11:28:00,60.2,46.3,29.99,North,0,60.0,60.0,60,0.00,,---,0.01,VWS V14.01,2013-05-08 16:28:00,
2013-05-08 11:29:00,60.4,46.5,29.99,North,6,60.0,60.0,60,0.00,,---,0.01,VWS V14.01,2013-05-08 16:29:00,
2013-05-08 11:30:00,60.4,46.0,29.99,North,6,60.0,60.0,59,0.00,,---,0.01,VWS V14.01,2013-05-08 16:30:00,
2013-05-08 11:31:00,60.5,46.1,29.99,North,6,60.0,60.0,59,0.00,,---,0.01,VWS V14.01,2013-05-08 16:31:00,
2013-05-08 11:32:00,60.7,46.3,29.99,North,6,60.0,60.0,59,0.00,,---,0.01,VWS V14.01,2013-05-08 16:32:00,
2013-05-08 11:33:00,60.9,46.5,29.99,North,6,60.0,60.0,59,0.00,,---,0.01,VWS V14.01,2013-05-08 16:33:00,
2013-05-08 11:34:00,61.0,46.1,29.99,North,4,60.0,60.0,58,0.00,,---,0.01,VWS V14.01,2013-05-08 16:34:00,
2013-05-08 11:35:00,61.3,46.9,29.99,North,6,60.0,60.0,59,0.00,,---,0.01,VWS V14.01,2013-05-08 16:35:00,
2013-05-08 11:36:00,61.5,46.6,29.99,North,8,60.0,60.0,58,0.00,,---,0.01,VWS V14.01,2013-05-08 16:36:00,
2013-05-08 11:37:00,61.6,46.2,29.99,North,8,60.0,60.0,57,0.00,,---,0.01,VWS V14.01,2013-05-08 16:37:00,
2013-05-08 11:38:00,61.8,46.4,29.99,NNE,13,60.0,60.0,57,0.00,,---,0.01,VWS V14.01,2013-05-08 16:38:00,
2013-05-08 11:39:00,61.8,46.0,29.99,NNE,14,60.0,60.0,56,0.00,,---,0.01,VWS V14.01,2013-05-08 16:39:00,
2013-05-08 11:40:00,61.8,46.4,29.99,NNE,13,60.0,60.0,57,0.00,,---,0.01,VWS V14.01,2013-05-08 16:40:00,
2013-05-08 11:41:00,62.0,46.1,29.99,NNE,13,60.0,60.0,56,0.00,,---,0.01,VWS V14.01,2013-05-08 16:41:00,
2013-05-08 11:42:00,62.1,46.7,29.99,NNE,13,60.0,60.0,57,0.00,,---,0.01,VWS V14.01,2013-05-08 16:42:00,
2013-05-08 11:43:00,62.1,46.7,29.99,NNE,13,60.0,60.0,57,0.00,,---,0.01,VWS V14.01,2013-05-08 16:43:00,
2013-05-08 11:44:00,62.3,46.9,29.99,North,3,60.0,60.0,57,0.00,,---,0.01,VWS V14.01,2013-05-08 16:44:00,
2013-05-08 11:45:00,62.1,45.8,29.99,North,7,60.0,60.0,55,0.00,,---,0.01,VWS V14.01,2013-05-08 16:45:00,
2013-05-08 11:46:00,62.1,46.2,29.99,NNE,13,60.0,60.0,56,0.00,,---,0.01,VWS V14.01,2013-05-08 16:46:00,
2013-05-08 11:47:00,62.3,46.4,29.99,North,7,60.0,60.0,56,0.00,,---,0.01,VWS V14.01,2013-05-08 16:47:00,
2013-05-08 11:48:00,62.4,46.0,29.99,North,8,60.0,60.0,55,0.00,,---,0.01,VWS V14.01,2013-05-08 16:48:00,
2013-05-08 11:49:00,62.4,46.0,29.99,North,6,60.0,60.0,55,0.00,,---,0.01,VWS V14.01,2013-05-08 16:49:00,
2013-05-08 11:50:00,62.3,46.0,29.99,North,0,60.0,60.0,55,0.00,,---,0.01,VWS V14.01,2013-05-08 16:50:00,
2013-05-08 11:51:00,62.3,46.0,29.99,North,0,60.0,60.0,55,0.00,,---,0.01,VWS V14.01,2013-05-08 16:51:00,
2013-05-08 11:52:00,62.4,46.0,29.99,North,4,60.0,60.0,55,0.00,,---,0.01,VWS V14.01,2013-05-08 16:52:00,
2013-05-08 11:53:00,62.4,46.0,29.99,North,7,60.0,60.0,55,0.00,,---,0.01,VWS V14.01,2013-05-08 16:53:00,
2013-05-08 11:54:00,62.6,46.2,29.99,North,354,60.0,60.0,55,0.00,,---,0.01,VWS V14.01,2013-05-08 16:54:00,
2013-05-08 11:55:00,62.6,45.7,29.99,NNE,27,60.0,60.0,54,0.00,,---,0.01,VWS V14.01,2013-05-08 16:55:00,
2013-05-08 11:56:00,62.6,45.7,29.99,NE,35,60.0,60.0,54,0.00,,---,0.01,VWS V14.01,2013-05-08 16:56:00,
2013-05-08 11:57:00,62.4,45.5,29.99,NE,35,60.0,60.0,54,0.00,,---,0.01,VWS V14.01,2013-05-08 16:57:00,
2013-05-08 11:58:00,62.4,45.5,29.99,NE,42,60.0,60.0,54,0.00,,---,0.01,VWS V14.01,2013-05-08 16:58:00,
2013-05-08 11:59:00,62.4,45.5,29.99,NNE,20,60.0,60.0,54,0.00,,---,0.01,VWS V14.01,2013-05-08 16:59:00,
2013-05-08 12:00:00,62.4,45.5,29.99,NNE,25,60.0,60.0,54,0.00,,---,0.01,VWS V14.01,2013-05-08 17:00:00,
2013-05-08 12:01:00,62.4,45.5,29.99,NNE,24,60.0,60.0,54,0.00,,---,0.01,VWS V14.01,2013-05-08 17:01:00,
2013-05-08 12:02:00,62.4,46.0,29.99,North,0,60.0,60.0,55,0.00,,---,0.01,VWS V14.01,2013-05-08 17:02:00,
2013-05-08 12:03:00,62.4,45.1,29.99,North,10,60.0,60.0,53,0.00,,---,0.01,VWS V14.01,2013-05-08 17:03:00,
2013-05-08 12:04:00,62.6,45.7,29.99,North,10,60.0,60.0,54,0.00,,---,0.01,VWS V14.01,2013-05-08 17:04:00,
2013-05-08 12:05:00,62.7,45.3,29.99,NNE,16,60.0,60.0,53,0.00,,---,0.01,VWS V14.01,2013-05-08 17:05:00,
2013-05-08 12:06:00,62.6,44.8,29.99,NW,326,60.0,60.0,52,0.00,,---,0.01,VWS V14.01,2013-05-08 17:06:00,
2013-05-08 12:07:00,62.6,45.2,29.99,NW,326,60.0,60.0,53,0.00,,---,0.01,VWS V14.01,2013-05-08 17:07:00,
2013-05-08 12:08:00,62.6,45.2,29.99,NNE,28,60.0,60.0,53,0.00,,---,0.01,VWS V14.01,2013-05-08 17:08:00,
2013-05-08 12:09:00,62.6,45.2,29.99,North,10,60.0,60.0,53,0.00,,---,0.01,VWS V14.01,2013-05-08 17:09:00,
2013-05-08 12:10:00,62.6,45.2,29.99,NNE,13,60.0,60.0,53,0.00,,---,0.01,VWS V14.01,2013-05-08 17:10:00,
2013-05-08 12:11:00,62.6,45.7,29.99,North,359,60.0,60.0,54,0.00,,---,0.01,VWS V14.01,2013-05-08 17:11:00,
2013-05-08 12:12:00,62.7,45.3,29.99,NE,40,60.0,60.0,53,0.00,,---,0.01,VWS V14.01,2013-05-08 17:12:00,
2013-05-08 12:13:00,62.7,45.3,29.99,NE,34,60.0,60.0,53,0.00,,---,0.01,VWS V14.01,2013-05-08 17:13:00,
2013-05-08 12:14:00,62.9,45.5,29.99,NNE,14,60.0,60.0,53,0.00,,---,0.01,VWS V14.01,2013-05-08 17:14:00,
2013-05-08 12:15:00,62.9,45.5,29.99,North,0,60.0,60.0,53,0.00,,---,0.01,VWS V14.01,2013-05-08 17:15:00,
2013-05-08 12:16:00,63.1,45.2,29.99,North,0,60.0,60.0,52,0.00,,---,0.01,VWS V14.01,2013-05-08 17:16:00,
2013-05-08 12:17:00,63.2,45.8,29.99,North,0,60.0,60.0,53,0.00,,---,0.01,VWS V14.01,2013-05-08 17:17:00,
2013-05-08 12:18:00,63.2,45.3,29.99,North,0,60.0,60.0,52,0.00,,---,0.01,VWS V14.01,2013-05-08 17:18:00,
2013-05-08 12:19:00,63.4,45.0,29.99,North,0,60.0,60.0,51,0.00,,---,0.01,VWS V14.01,2013-05-08 17:19:00,
2013-05-08 12:20:00,63.4,45.5,29.99,North,0,60.0,60.0,52,0.00,,---,0.01,VWS V14.01,2013-05-08 17:20:00,
2013-05-08 12:21:00,63.5,45.6,29.99,North,11,60.0,60.0,52,0.00,,---,0.01,VWS V14.01,2013-05-08 17:21:00,
2013-05-08 12:22:00,63.7,45.8,29.99,NE,41,60.0,60.0,52,0.00,,---,0.01,VWS V14.01,2013-05-08 17:22:00,
2013-05-08 12:23:00,63.9,45.4,29.99,NE,56,60.0,60.0,51,0.00,,---,0.01,VWS V14.01,2013-05-08 17:23:00,
2013-05-08 12:24:00,64.0,46.0,29.99,NE,49,60.0,60.0,52,0.00,,---,0.01,VWS V14.01,2013-05-08 17:24:00,
2013-05-08 12:25:00,64.0,45.0,29.99,NE,48,60.0,60.0,50,0.00,,---,0.01,VWS V14.01,2013-05-08 17:25:00,
2013-05-08 12:26:00,64.2,45.7,29.99,NE,48,60.0,60.0,51,0.00,,---,0.01,VWS V14.01,2013-05-08 17:26:00,
2013-05-08 12:27:00,64.2,45.2,29.99,North,0,60.0,60.0,50,0.00,,---,0.01,VWS V14.01,2013-05-08 17:27:00,
2013-05-08 12:28:00,64.2,45.2,29.99,NNE,14,60.0,60.0,50,0.00,,---,0.01,VWS V14.01,2013-05-08 17:28:00,
2013-05-08 12:29:00,64.2,45.2,29.99,North,3,60.0,60.0,50,0.00,,---,0.01,VWS V14.01,2013-05-08 17:29:00,
2013-05-08 12:30:00,64.2,45.2,29.99,North,3,60.0,60.0,50,0.00,,---,0.01,VWS V14.01,2013-05-08 17:30:00,
2013-05-08 12:31:00,64.2,45.2,29.99,NNE,14,60.0,60.0,50,0.00,,---,0.01,VWS V14.01,2013-05-08 17:31:00,
2013-05-08 12:32:00,64.0,45.0,29.99,NNE,13,60.0,60.0,50,0.00,,---,0.01,VWS V14.01,2013-05-08 17:32:00,
2013-05-08 12:33:00,64.2,45.2,29.99,NNE,13,60.0,60.0,50,0.00,,---,0.01,VWS V14.01,2013-05-08 17:33:00,
2013-05-08 12:34:00,64.2,45.2,29.99,NNE,13,60.0,60.0,50,0.00,,---,0.01,VWS V14.01,2013-05-08 17:34:00,
2013-05-08 12:35:00,64.3,45.3,29.99,NNE,24,60.0,60.0,50,0.00,,---,0.01,VWS V14.01,2013-05-08 17:35:00,
2013-05-08 12:36:00,64.5,45.5,29.99,NNE,14,60.0,60.0,50,0.00,,---,0.01,VWS V14.01,2013-05-08 17:36:00,
2013-05-08 12:37:00,64.7,45.7,29.99,NNE,14,60.0,60.0,50,0.00,,---,0.01,VWS V14.01,2013-05-08 17:37:00,
2013-05-08 12:38:00,64.7,45.1,29.99,North,3,60.0,60.0,49,0.00,,---,0.01,VWS V14.01,2013-05-08 17:38:00,
2013-05-08 12:39:00,64.7,44.6,29.99,NNE,20,60.0,60.0,48,0.00,,---,0.01,VWS V14.01,2013-05-08 17:39:00,
2013-05-08 12:40:00,64.7,45.1,29.99,North,8,60.0,60.0,49,0.00,,---,0.01,VWS V14.01,2013-05-08 17:40:00,
2013-05-08 12:41:00,64.7,45.7,29.99,North,8,60.0,60.0,50,0.00,,---,0.01,VWS V14.01,2013-05-08 17:41:00,
2013-05-08 12:42:00,64.8,45.2,29.99,North,7,60.0,60.0,49,0.00,,---,0.01,VWS V14.01,2013-05-08 17:42:00,
2013-05-08 12:43:00,64.8,45.2,29.99,North,8,60.0,60.0,49,0.00,,---,0.01,VWS V14.01,2013-05-08 17:43:00,
2013-05-08 12:44:00,65.0,45.9,29.99,NNE,17,60.0,60.0,50,0.00,,---,0.01,VWS V14.01,2013-05-08 17:44:00,
2013-05-08 12:45:00,65.2,45.6,29.99,NNE,32,60.0,60.0,49,0.00,,---,0.01,VWS V14.01,2013-05-08 17:45:00,
2013-05-08 12:46:00,65.2,45.0,29.99,NNE,31,60.0,60.0,48,0.00,,---,0.01,VWS V14.01,2013-05-08 17:46:00,
2013-05-08 12:47:00,65.3,45.7,29.99,NNE,32,60.0,60.0,49,0.00,,---,0.01,VWS V14.01,2013-05-08 17:47:00,
2013-05-08 12:48:00,65.5,45.3,29.99,NNE,32,60.0,60.0,48,0.00,,---,0.01,VWS V14.01,2013-05-08 17:48:00,
2013-05-08 12:49:00,65.5,44.8,29.99,NE,55,60.0,60.0,47,0.00,,---,0.01,VWS V14.01,2013-05-08 17:49:00,
2013-05-08 12:50:00,65.5,44.8,29.99,NE,47,60.0,60.0,47,0.00,,---,0.01,VWS V14.01,2013-05-08 17:50:00,
2013-05-08 12:51:00,65.6,44.8,29.99,NNE,13,60.0,60.0,47,0.00,,---,0.01,VWS V14.01,2013-05-08 17:51:00,
2013-05-08 12:52:00,65.6,44.8,29.99,North,10,60.0,60.0,47,0.00,,---,0.01,VWS V14.01,2013-05-08 17:52:00,
2013-05-08 12:53:00,65.6,44.8,29.99,North,10,60.0,60.0,47,0.00,,---,0.01,VWS V14.01,2013-05-08 17:53:00,
2013-05-08 12:54:00,65.6,44.8,29.99,ENE,61,60.0,60.0,47,0.00,,---,0.01,VWS V14.01,2013-05-08 17:54:00,
2013-05-08 12:55:00,65.6,44.8,29.99,NE,41,60.0,60.0,47,0.00,,---,0.01,VWS V14.01,2013-05-08 17:55:00,
2013-05-08 12:56:00,65.6,44.8,29.99,ENE,65,60.0,60.0,47,0.00,,---,0.01,VWS V14.01,2013-05-08 17:56:00,
2013-05-08 12:57:00,65.6,44.8,29.99,NE,47,60.0,60.0,47,0.00,,---,0.01,VWS V14.01,2013-05-08 17:57:00,
2013-05-08 12:58:00,65.8,45.0,29.99,NE,47,60.0,60.0,47,0.00,,---,0.01,VWS V14.01,2013-05-08 17:58:00,
2013-05-08 12:59:00,65.8,45.0,29.99,NE,47,60.0,60.0,47,0.00,,---,0.01,VWS V14.01,2013-05-08 17:59:00,
2013-05-08 13:00:00,66.0,45.2,29.98,NE,35,60.0,60.0,47,0.00,,---,0.01,VWS V14.01,2013-05-08 18:00:00,
2013-05-08 13:01:00,66.1,45.3,29.98,NE,35,60.0,60.0,47,0.00,,---,0.01,VWS V14.01,2013-05-08 18:01:00,
2013-05-08 13:02:00,66.3,46.0,29.98,NNE,27,60.0,60.0,48,0.00,,---,0.01,VWS V14.01,2013-05-08 18:02:00,
2013-05-08 13:03:00,66.3,44.9,29.98,NNE,24,60.0,60.0,46,0.00,,---,0.01,VWS V14.01,2013-05-08 18:03:00,
2013-05-08 13:04:00,66.4,45.6,29.98,NNE,24,60.0,60.0,47,0.00,,---,0.01,VWS V14.01,2013-05-08 18:04:00,
2013-05-08 13:05:00,66.6,45.8,29.98,NNE,24,60.0,60.0,47,0.00,,---,0.01,VWS V14.01,2013-05-08 18:05:00,
2013-05-08 13:06:00,66.8,45.9,29.98,NNE,24,60.0,60.0,47,0.00,,---,0.01,VWS V14.01,2013-05-08 18:06:00,
2013-05-08 13:07:00,66.9,46.0,29.98,NNE,16,60.0,60.0,47,0.00,,---,0.01,VWS V14.01,2013-05-08 18:07:00,
2013-05-08 13:08:00,66.9,45.5,29.98,NNE,16,60.0,60.0,46,0.00,,---,0.01,VWS V14.01,2013-05-08 18:08:00,
2013-05-08 13:09:00,67.1,45.7,29.98,NNE,16,60.0,60.0,46,0.00,,---,0.01,VWS V14.01,2013-05-08 18:09:00,
2013-05-08 13:10:00,67.1,45.7,29.98,NNE,16,60.0,60.0,46,0.00,,---,0.01,VWS V14.01,2013-05-08 18:10:00,
2013-05-08 13:11:00,67.3,45.8,29.98,NNE,16,60.0,60.0,46,0.00,,---,0.01,VWS V14.01,2013-05-08 18:11:00,
2013-05-08 13:12:00,67.4,45.9,29.98,NNE,16,60.0,60.0,46,0.00,,---,0.01,VWS V14.01,2013-05-08 18:12:00,
2013-05-08 13:13:00,67.6,46.1,29.98,NNE,16,60.0,60.0,46,0.00,,---,0.01,VWS V14.01,2013-05-08 18:13:00,
2013-05-08 13:14:00,67.8,46.9,29.98,NNE,16,60.0,60.0,47,0.00,,---,0.01,VWS V14.01,2013-05-08 18:14:00,
2013-05-08 13:15:00,67.9,46.4,29.98,NNE,16,60.0,60.0,46,0.00,,---,0.01,VWS V14.01,2013-05-08 18:15:00,
2013-05-08 13:16:00,68.1,46.0,29.98,NNE,16,60.0,60.0,45,0.00,,---,0.01,VWS V14.01,2013-05-08 18:16:00,
2013-05-08 13:17:00,68.4,46.2,29.98,NNE,16,60.0,60.0,45,0.00,,---,0.01,VWS V14.01,2013-05-08 18:17:00,
2013-05-08 13:18:00,68.6,46.4,29.98,NNE,14,60.0,60.0,45,0.00,,---,0.01,VWS V14.01,2013-05-08 18:18:00,
2013-05-08 13:19:00,68.8,46.0,29.98,NNE,14,60.0,60.0,44,0.00,,---,0.01,VWS V14.01,2013-05-08 18:19:00,
2013-05-08 13:20:00,68.8,46.0,29.98,NNE,23,60.0,60.0,44,0.00,,---,0.01,VWS V14.01,2013-05-08 18:20:00,
2013-05-08 13:21:00,68.9,46.1,29.98,NNE,23,60.0,60.0,44,0.00,,---,0.01,VWS V14.01,2013-05-08 18:21:00,
2013-05-08 13:22:00,68.9,45.5,29.98,NNE,23,60.0,60.0,43,0.00,,---,0.01,VWS V14.01,2013-05-08 18:22:00,
2013-05-08 13:23:00,68.9,46.1,29.98,NNE,20,60.0,60.0,44,0.00,,---,0.01,VWS V14.01,2013-05-08 18:23:00,
2013-05-08 13:24:00,69.1,46.3,29.98,NNE,20,60.0,60.0,44,0.00,,---,0.01,VWS V14.01,2013-05-08 18:24:00,
2013-05-08 13:25:00,69.3,46.5,29.98,NNE,20,60.0,60.0,44,0.00,,---,0.01,VWS V14.01,2013-05-08 18:25:00,
2013-05-08 13:26:00,69.4,46.0,29.98,NNE,20,60.0,60.0,43,0.00,,---,0.01,VWS V14.01,2013-05-08 18:26:00,
2013-05-08 13:27:00,69.8,46.3,29.98,NNE,20,60.0,60.0,43,0.00,,---,0.01,VWS V14.01,2013-05-08 18:27:00,
2013-05-08 13:28:00,69.9,45.8,29.98,NNE,20,60.0,60.0,42,0.00,,---,0.01,VWS V14.01,2013-05-08 18:28:00,
2013-05-08 13:29:00,70.1,46.0,29.98,NNE,20,60.0,60.0,42,0.00,,---,0.01,VWS V14.01,2013-05-08 18:29:00,
2013-05-08 13:30:00,70.3,46.2,29.98,NNE,20,60.0,60.0,42,0.00,,---,0.01,VWS V14.01,2013-05-08 18:30:00,
2013-05-08 13:31:00,70.6,45.8,29.98,NNE,20,60.0,60.0,41,0.00,,---,0.01,VWS V14.01,2013-05-08 18:31:00,
2013-05-08 13:32:00,70.8,46.0,29.98,NNE,20,60.0,60.0,41,0.00,,---,0.01,VWS V14.01,2013-05-08 18:32:00,
2013-05-08 13:33:00,70.9,46.0,29.98,NNE,20,60.0,60.0,41,0.00,,---,0.01,VWS V14.01,2013-05-08 18:33:00,
2013-05-08 13:34:00,71.1,45.6,29.98,NNE,20,60.0,60.0,40,0.00,,---,0.01,VWS V14.01,2013-05-08 18:34:00,
2013-05-08 13:35:00,71.3,45.8,29.98,NNE,20,60.0,60.0,40,0.00,,---,0.01,VWS V14.01,2013-05-08 18:35:00,
2013-05-08 13:36:00,71.6,45.4,29.98,NNE,18,60.0,60.0,39,0.00,,---,0.01,VWS V14.01,2013-05-08 18:36:00,
2013-05-08 13:37:00,71.6,46.0,29.98,NNE,18,60.0,60.0,40,0.00,,---,0.01,VWS V14.01,2013-05-08 18:37:00,
2013-05-08 13:38:00,71.8,46.9,29.98,NNE,17,60.0,60.0,41,0.00,,---,0.01,VWS V14.01,2013-05-08 18:38:00,
2013-05-08 13:39:00,71.8,45.5,29.98,NNE,14,60.0,60.0,39,0.00,,---,0.01,VWS V14.01,2013-05-08 18:39:00,
2013-05-08 13:40:00,71.8,44.8,29.98,NNE,14,60.0,60.0,38,0.00,,---,0.01,VWS V14.01,2013-05-08 18:40:00,
2013-05-08 13:41:00,71.8,44.8,29.98,North,349,60.0,60.0,38,0.00,,---,0.01,VWS V14.01,2013-05-08 18:41:00,
2013-05-08 13:42:00,72.0,45.7,29.98,North,349,60.0,60.0,39,0.00,,---,0.01,VWS V14.01,2013-05-08 18:42:00,
2013-05-08 13:43:00,72.0,45.0,29.98,North,349,60.0,60.0,38,0.00,,---,0.01,VWS V14.01,2013-05-08 18:43:00,
2013-05-08 13:44:00,72.1,45.1,29.98,North,349,60.0,60.0,38,0.00,,---,0.01,VWS V14.01,2013-05-08 18:44:00,
2013-05-08 13:45:00,72.3,45.3,29.98,North,349,60.0,60.0,38,0.00,,---,0.01,VWS V14.01,2013-05-08 18:45:00,
2013-05-08 13:46:00,72.5,45.5,29.98,North,349,60.0,60.0,38,0.00,,---,0.01,VWS V14.01,2013-05-08 18:46:00,
2013-05-08 13:47:00,72.5,46.2,29.98,North,350,60.0,60.0,39,0.00,,---,0.01,VWS V14.01,2013-05-08 18:47:00,
2013-05-08 13:48:00,72.7,45.7,29.98,North,353,60.0,60.0,38,0.00,,---,0.01,VWS V14.01,2013-05-08 18:48:00,
2013-05-08 13:49:00,72.5,44.8,29.98,North,353,60.0,60.0,37,0.00,,---,0.01,VWS V14.01,2013-05-08 18:49:00,
2013-05-08 13:50:00,72.5,44.8,29.98,North,353,60.0,60.0,37,0.00,,---,0.01,VWS V14.01,2013-05-08 18:50:00,
2013-05-08 13:51:00,72.5,45.5,29.98,North,353,60.0,60.0,38,0.00,,---,0.01,VWS V14.01,2013-05-08 18:51:00,
2013-05-08 13:52:00,72.5,45.5,29.98,North,353,60.0,60.0,38,0.00,,---,0.01,VWS V14.01,2013-05-08 18:52:00,
2013-05-08 13:53:00,72.5,44.8,29.98,North,353,60.0,60.0,37,0.00,,---,0.01,VWS V14.01,2013-05-08 18:53:00,
2013-05-08 13:54:00,72.5,44.8,29.98,North,353,60.0,60.0,37,0.00,,---,0.01,VWS V14.01,2013-05-08 18:54:00,
2013-05-08 13:55:00,72.5,46.2,29.98,NNE,18,60.0,60.0,39,0.00,,---,0.01,VWS V14.01,2013-05-08 18:55:00,
2013-05-08 13:56:00,72.5,44.8,29.98,NNE,20,60.0,60.0,37,0.00,,---,0.01,VWS V14.01,2013-05-08 18:56:00,
2013-05-08 13:57:00,72.7,45.0,29.98,NNE,20,60.0,60.0,37,0.00,,---,0.01,VWS V14.01,2013-05-08 18:57:00,
2013-05-08 13:58:00,72.7,45.7,29.98,NNE,25,60.0,60.0,38,0.00,,---,0.01,VWS V14.01,2013-05-08 18:58:00,
2013-05-08 13:59:00,72.7,45.7,29.98,NNE,30,60.0,60.0,38,0.00,,---,0.01,VWS V14.01,2013-05-08 18:59:00,
2013-05-08 14:00:00,72.7,45.7,29.98,NNE,30,60.0,60.0,38,0.00,,---,0.01,VWS V14.01,2013-05-08 19:00:00,
2013-05-08 14:01:00,72.7,45.7,29.98,NNE,30,60.0,60.0,38,0.00,,---,0.01,VWS V14.01,2013-05-08 19:01:00,
2013-05-08 14:02:00,72.8,45.7,29.98,NNE,28,60.0,60.0,38,0.00,,---,0.01,VWS V14.01,2013-05-08 19:02:00,
2013-05-08 14:03:00,73.0,44.5,29.98,NNE,28,60.0,60.0,36,0.00,,---,0.01,VWS V14.01,2013-05-08 19:03:00,
2013-05-08 14:04:00,73.2,46.1,29.98,NNE,28,60.0,60.0,38,0.00,,---,0.01,VWS V14.01,2013-05-08 19:04:00,
2013-05-08 14:05:00,73.3,44.8,29.98,NNE,28,60.0,60.0,36,0.00,,---,0.01,VWS V14.01,2013-05-08 19:05:00,
2013-05-08 14:06:00,73.7,45.1,29.98,NNE,28,60.0,60.0,36,0.00,,---,0.01,VWS V14.01,2013-05-08 19:06:00,
2013-05-08 14:07:00,73.9,44.5,29.98,NNE,28,60.0,60.0,35,0.00,,---,0.01,VWS V14.01,2013-05-08 19:07:00,
2013-05-08 14:08:00,73.9,44.5,29.98,NNE,28,60.0,60.0,35,0.00,,---,0.01,VWS V14.01,2013-05-08 19:08:00,
2013-05-08 14:09:00,73.9,44.5,29.98,NNE,28,60.0,60.0,35,0.00,,---,0.01,VWS V14.01,2013-05-08 19:09:00,
2013-05-08 14:10:00,74.0,44.6,29.98,NNE,28,60.0,60.0,35,0.00,,---,0.01,VWS V14.01,2013-05-08 19:10:00,
2013-05-08 14:11:00,74.0,44.6,29.98,NNE,28,60.0,60.0,35,0.00,,---,0.01,VWS V14.01,2013-05-08 19:11:00,
2013-05-08 14:12:00,74.2,44.8,29.98,NNE,27,60.0,60.0,35,0.00,,---,0.01,VWS V14.01,2013-05-08 19:12:00,
2013-05-08 14:13:00,74.2,44.8,29.98,NNE,25,60.0,60.0,35,0.00,,---,0.01,VWS V14.01,2013-05-08 19:13:00,
2013-05-08 14:14:00,74.2,44.8,29.98,NNE,25,60.0,60.0,35,0.00,,---,0.01,VWS V14.01,2013-05-08 19:14:00,
2013-05-08 14:15:00,74.2,44.8,29.98,NNE,25,60.0,60.0,35,0.00,,---,0.01,VWS V14.01,2013-05-08 19:15:00,
2013-05-08 14:16:00,74.4,45.0,29.98,NNE,25,60.0,60.0,35,0.00,,---,0.01,VWS V14.01,2013-05-08 19:16:00,
2013-05-08 14:17:00,74.6,45.2,29.98,NNE,25,60.0,60.0,35,0.00,,---,0.01,VWS V14.01,2013-05-08 19:17:00,
2013-05-08 14:18:00,74.7,44.5,29.98,NNE,25,60.0,60.0,34,0.00,,---,0.01,VWS V14.01,2013-05-08 19:18:00,
2013-05-08 14:19:00,74.9,44.7,29.98,NNE,25,60.0,60.0,34,0.00,,---,0.01,VWS V14.01,2013-05-08 19:19:00,
2013-05-08 14:20:00,74.9,43.9,29.98,NNE,25,60.0,60.0,33,0.00,,---,0.01,VWS V14.01,2013-05-08 19:20:00,
2013-05-08 14:21:00,74.9,43.9,29.98,NNE,25,60.0,60.0,33,0.00,,---,0.01,VWS V14.01,2013-05-08 19:21:00,
2013-05-08 14:22:00,75.1,44.8,29.98,NNE,25,60.0,60.0,34,0.00,,---,0.01,VWS V14.01,2013-05-08 19:22:00,
2013-05-08 14:27:00,75.6,44.5,29.98,NNE,20,60.0,60.0,33,0.00,,---,0.01,VWS V14.01,2013-05-08 19:27:00,
2013-05-08 14:28:00,75.8,44.7,29.98,NNE,20,60.0,60.0,33,0.00,,---,0.01,VWS V14.01,2013-05-08 19:28:00,
2013-05-08 14:29:00,75.6,44.5,29.98,North,10,60.0,60.0,33,0.00,,---,0.01,VWS V14.01,2013-05-08 19:29:00,
2013-05-08 14:30:00,75.4,43.5,29.98,North,10,60.0,60.0,32,0.00,,---,0.01,VWS V14.01,2013-05-08 19:30:00,
2013-05-08 14:33:00,75.3,45.0,29.98,North,11,60.0,60.0,34,0.00,,---,0.01,VWS V14.01,2013-05-08 19:33:00,
2013-05-08 14:34:00,75.3,44.2,29.98,North,10,60.0,60.0,33,0.00,,---,0.01,VWS V14.01,2013-05-08 19:34:00,
2013-05-08 14:35:00,75.3,45.0,29.98,North,10,60.0,60.0,34,0.00,,---,0.01,VWS V14.01,2013-05-08 19:35:00,
2013-05-08 14:36:00,75.3,44.2,29.98,North,11,60.0,60.0,33,0.00,,---,0.01,VWS V14.01,2013-05-08 19:36:00,
2013-05-08 14:37:00,75.3,44.2,29.98,North,0,60.0,60.0,33,0.00,,---,0.01,VWS V14.01,2013-05-08 19:37:00,
2013-05-08 14:38:00,75.1,44.1,29.98,North,3,60.0,60.0,33,0.00,,---,0.01,VWS V14.01,2013-05-08 19:38:00,
2013-05-08 14:39:00,74.6,43.6,29.98,North,3,60.0,60.0,33,0.00,,---,0.01,VWS V14.01,2013-05-08 19:39:00,
2013-05-08 14:40:00,74.2,44.1,29.98,NE,40,60.0,60.0,34,0.00,,---,0.01,VWS V14.01,2013-05-08 19:40:00,
2013-05-08 14:41:00,74.0,44.6,29.98,NE,41,60.0,60.0,35,0.00,,---,0.01,VWS V14.01,2013-05-08 19:41:00,
2013-05-08 14:42:00,73.9,44.5,29.98,NE,41,60.0,60.0,35,0.00,,---,0.01,VWS V14.01,2013-05-08 19:42:00,
2013-05-08 14:43:00,73.9,46.0,29.98,NE,42,60.0,60.0,37,0.00,,---,0.01,VWS V14.01,2013-05-08 19:43:00,
2013-05-08 14:44:00,73.7,44.4,29.98,NE,41,60.0,60.0,35,0.00,,---,0.01,VWS V14.01,2013-05-08 19:44:00,
2013-05-08 14:45:00,73.5,44.2,29.97,East,79,60.0,60.0,35,0.00,,---,0.01,VWS V14.01,2013-05-08 19:45:00,
2013-05-08 14:46:00,73.2,44.7,29.97,ENE,73,60.0,60.0,36,0.00,,---,0.01,VWS V14.01,2013-05-08 19:46:00,
2013-05-08 14:47:00,73.2,43.9,29.97,ENE,73,60.0,60.0,35,0.00,,---,0.01,VWS V14.01,2013-05-08 19:47:00,
2013-05-08 14:48:00,73.2,43.9,29.97,ENE,73,60.0,60.0,35,0.00,,---,0.01,VWS V14.01,2013-05-08 19:48:00,
2013-05-08 14:49:00,73.2,44.7,29.97,ENE,73,60.0,60.0,36,0.00,,---,0.01,VWS V14.01,2013-05-08 19:49:00,
2013-05-08 14:50:00,73.3,44.0,29.97,ENE,66,60.0,60.0,35,0.00,,---,0.01,VWS V14.01,2013-05-08 19:50:00,
2013-05-08 14:51:00,73.5,44.2,29.97,ENE,66,60.0,60.0,35,0.00,,---,0.01,VWS V14.01,2013-05-08 19:51:00,
2013-05-08 14:52:00,73.7,44.4,29.97,ENE,65,60.0,60.0,35,0.00,,---,0.01,VWS V14.01,2013-05-08 19:52:00,
2013-05-08 14:53:00,73.9,43.8,29.97,ENE,66,60.0,60.0,34,0.00,,---,0.01,VWS V14.01,2013-05-08 19:53:00,
2013-05-08 14:54:00,74.0,44.6,29.97,ENE,58,60.0,60.0,35,0.00,,---,0.01,VWS V14.01,2013-05-08 19:54:00,
2013-05-08 14:55:00,74.2,44.1,29.97,ENE,58,60.0,60.0,34,0.00,,---,0.01,VWS V14.01,2013-05-08 19:55:00,
2013-05-08 14:56:00,74.4,45.0,29.97,ENE,58,60.0,60.0,35,0.00,,---,0.01,VWS V14.01,2013-05-08 19:56:00,
2013-05-08 14:57:00,74.6,44.4,29.97,ENE,58,60.0,60.0,34,0.00,,---,0.01,VWS V14.01,2013-05-08 19:57:00,
2013-05-08 14:58:00,74.9,44.7,29.97,ENE,58,60.0,60.0,34,0.00,,---,0.01,VWS V14.01,2013-05-08 19:58:00,
2013-05-08 14:59:00,75.1,44.1,29.97,ENE,58,60.0,60.0,33,0.00,,---,0.01,VWS V14.01,2013-05-08 19:59:00,
2013-05-08 15:00:00,75.3,44.2,29.97,ENE,58,60.0,60.0,33,0.00,,---,0.01,VWS V14.01,2013-05-08 20:00:00,
2013-05-08 15:01:00,75.4,45.1,29.97,ENE,58,60.0,60.0,34,0.00,,---,0.01,VWS V14.01,2013-05-08 20:01:00,
2013-05-08 15:02:00,75.6,44.5,29.97,NNE,32,60.0,60.0,33,0.00,,---,0.01,VWS V14.01,2013-05-08 20:02:00,
2013-05-08 15:03:00,75.6,43.7,29.97,NNE,28,60.0,60.0,32,0.00,,---,0.01,VWS V14.01,2013-05-08 20:03:00,
2013-05-08 15:04:00,75.6,45.3,29.97,NNE,28,60.0,60.0,34,0.00,,---,0.01,VWS V14.01,2013-05-08 20:04:00,
2013-05-08 15:05:00,75.6,44.5,29.97,NNE,28,60.0,60.0,33,0.00,,---,0.01,VWS V14.01,2013-05-08 20:05:00,
2013-05-08 15:06:00,75.8,43.9,29.97,NNE,14,60.0,60.0,32,0.00,,---,0.01,VWS V14.01,2013-05-08 20:06:00,
2013-05-08 15:07:00,75.8,43.9,29.97,NNE,16,60.0,60.0,32,0.00,,---,0.01,VWS V14.01,2013-05-08 20:07:00,
2013-05-08 15:08:00,75.8,43.9,29.97,NNE,16,60.0,60.0,32,0.00,,---,0.01,VWS V14.01,2013-05-08 20:08:00,
2013-05-08 15:09:00,75.6,43.7,29.97,NNE,16,60.0,60.0,32,0.00,,---,0.01,VWS V14.01,2013-05-08 20:09:00,
2013-05-08 15:10:00,75.8,44.7,29.97,NNE,14,60.0,60.0,33,0.00,,---,0.01,VWS V14.01,2013-05-08 20:10:00,
2013-05-08 15:11:00,75.8,43.9,29.97,NNW,342,60.0,60.0,32,0.00,,---,0.01,VWS V14.01,2013-05-08 20:11:00,
2013-05-08 15:12:00,76.0,44.0,29.97,NNW,339,60.0,60.0,32,0.00,,---,0.01,VWS V14.01,2013-05-08 20:12:00,
2013-05-08 15:13:00,76.0,44.0,29.97,NNW,339,60.0,60.0,32,0.00,,---,0.01,VWS V14.01,2013-05-08 20:13:00,
2013-05-08 15:14:00,76.0,43.2,29.97,NNW,332,60.0,60.0,31,0.00,,---,0.01,VWS V14.01,2013-05-08 20:14:00,
2013-05-08 15:15:00,76.0,44.0,29.96,NNW,332,60.0,60.0,32,0.00,,---,0.01,VWS V14.01,2013-05-08 20:15:00,
2013-05-08 15:16:00,76.1,44.1,29.96,NNW,332,60.0,60.0,32,0.00,,---,0.01,VWS V14.01,2013-05-08 20:16:00,
2013-05-08 15:17:00,76.0,44.0,29.96,NNW,332,60.0,60.0,32,0.00,,---,0.01,VWS V14.01,2013-05-08 20:17:00,
2013-05-08 15:18:00,76.0,44.0,29.96,NNW,332,60.0,60.0,32,0.00,,---,0.01,VWS V14.01,2013-05-08 20:18:00,
2013-05-08 15:19:00,76.0,44.0,29.96,NNW,332,60.0,60.0,32,0.00,,---,0.01,VWS V14.01,2013-05-08 20:19:00,
2013-05-08 15:20:00,76.0,44.8,29.96,NNW,332,60.0,60.0,33,0.00,,---,0.01,VWS V14.01,2013-05-08 20:20:00,
2013-05-08 15:21:00,76.0,44.8,29.96,NNW,332,60.0,60.0,33,0.00,,---,0.01,VWS V14.01,2013-05-08 20:21:00,
2013-05-08 15:22:00,75.8,44.7,29.96,NNW,332,60.0,60.0,33,0.00,,---,0.01,VWS V14.01,2013-05-08 20:22:00,
2013-05-08 15:23:00,75.8,44.7,29.96,NNW,332,60.0,60.0,33,0.00,,---,0.01,VWS V14.01,2013-05-08 20:23:00,
2013-05-08 15:24:00,76.0,44.8,29.96,NNW,332,60.0,60.0,33,0.00,,---,0.01,VWS V14.01,2013-05-08 20:24:00,
2013-05-08 15:25:00,76.0,44.8,29.96,NNW,332,60.0,60.0,33,0.00,,---,0.01,VWS V14.01,2013-05-08 20:25:00,
2013-05-08 15:26:00,76.0,44.8,29.96,North,0,60.0,60.0,33,0.00,,---,0.01,VWS V14.01,2013-05-08 20:26:00,
2013-05-08 15:27:00,75.8,43.0,29.96,NE,40,60.0,60.0,31,0.00,,---,0.01,VWS V14.01,2013-05-08 20:27:00,
2013-05-08 15:28:00,75.4,43.5,29.96,NE,40,60.0,60.0,32,0.00,,---,0.01,VWS V14.01,2013-05-08 20:28:00,
2013-05-08 15:29:00,75.3,43.4,29.96,NE,40,60.0,60.0,32,0.00,,---,0.01,VWS V14.01,2013-05-08 20:29:00,
2013-05-08 15:30:00,75.3,44.2,29.96,NE,38,60.0,60.0,33,0.00,,---,0.01,VWS V14.01,2013-05-08 20:30:00,
2013-05-08 15:31:00,75.3,43.4,29.96,NE,40,60.0,60.0,32,0.00,,---,0.01,VWS V14.01,2013-05-08 20:31:00,
2013-05-08 15:32:00,75.4,44.3,29.96,NE,40,60.0,60.0,33,0.00,,---,0.01,VWS V14.01,2013-05-08 20:32:00,
2013-05-08 15:33:00,75.4,43.5,29.96,NE,40,60.0,60.0,32,0.00,,---,0.01,VWS V14.01,2013-05-08 20:33:00,
2013-05-08 15:34:00,75.6,45.3,29.96,NE,38,60.0,60.0,34,0.00,,---,0.01,VWS V14.01,2013-05-08 20:34:00,
2013-05-08 15:35:00,75.6,43.7,29.96,NE,34,60.0,60.0,32,0.00,,---,0.01,VWS V14.01,2013-05-08 20:35:00,
2013-05-08 15:36:00,75.8,44.7,29.96,NNE,28,60.0,60.0,33,0.00,,---,0.01,VWS V14.01,2013-05-08 20:36:00,
2013-05-08 15:37:00,75.8,43.9,29.96,NW,319,60.0,60.0,32,0.00,,---,0.01,VWS V14.01,2013-05-08 20:37:00,
2013-05-08 15:38:00,76.0,44.0,29.96,NW,319,60.0,60.0,32,0.00,,---,0.01,VWS V14.01,2013-05-08 20:38:00,
2013-05-08 15:39:00,76.0,44.0,29.96,NNE,14,60.0,60.0,32,0.00,,---,0.01,VWS V14.01,2013-05-08 20:39:00,
2013-05-08 15:40:00,75.8,43.9,29.96,NNE,14,60.0,60.0,32,0.00,,---,0.01,VWS V14.01,2013-05-08 20:40:00,
2013-05-08 15:41:00,75.6,43.7,29.96,NNE,14,60.0,60.0,32,0.00,,---,0.01,VWS V14.01,2013-05-08 20:41:00,
2013-05-08 15:42:00,75.6,43.7,29.96,NNE,14,60.0,60.0,32,0.00,,---,0.01,VWS V14.01,2013-05-08 20:42:00,
2013-05-08 15:43:00,75.6,43.7,29.96,NNE,14,60.0,60.0,32,0.00,,---,0.01,VWS V14.01,2013-05-08 20:43:00,
2013-05-08 15:44:00,75.8,44.7,29.96,NNE,14,60.0,60.0,33,0.00,,---,0.01,VWS V14.01,2013-05-08 20:44:00,
2013-05-08 15:45:00,76.0,44.0,29.96,North,1,60.0,60.0,32,0.00,,---,0.01,VWS V14.01,2013-05-08 20:45:00,
2013-05-08 15:46:00,76.0,44.0,29.96,ENE,61,60.0,60.0,32,0.00,,---,0.01,VWS V14.01,2013-05-08 20:46:00,
2013-05-08 15:47:00,75.8,43.9,29.96,North,1,60.0,60.0,32,0.00,,---,0.01,VWS V14.01,2013-05-08 20:47:00,
2013-05-08 15:48:00,75.6,42.9,29.96,NNE,20,60.0,60.0,31,0.00,,---,0.01,VWS V14.01,2013-05-08 20:48:00,
2013-05-08 15:49:00,75.3,42.6,29.96,North,0,60.0,60.0,31,0.00,,---,0.01,VWS V14.01,2013-05-08 20:49:00,
2013-05-08 15:50:00,74.9,43.1,29.96,NE,40,60.0,60.0,32,0.00,,---,0.01,VWS V14.01,2013-05-08 20:50:00,
2013-05-08 15:51:00,74.9,43.9,29.96,NE,40,60.0,60.0,33,0.00,,---,0.01,VWS V14.01,2013-05-08 20:51:00,
2013-05-08 15:52:00,74.6,42.8,29.96,ENE,69,60.0,60.0,32,0.00,,---,0.01,VWS V14.01,2013-05-08 20:52:00,
2013-05-08 15:53:00,74.4,43.5,29.96,ENE,69,60.0,60.0,33,0.00,,---,0.01,VWS V14.01,2013-05-08 20:53:00,
2013-05-08 15:54:00,74.4,43.5,29.96,NE,47,60.0,60.0,33,0.00,,---,0.01,VWS V14.01,2013-05-08 20:54:00,
2013-05-08 15:55:00,74.2,42.5,29.96,NE,47,60.0,60.0,32,0.00,,---,0.01,VWS V14.01,2013-05-08 20:55:00,
2013-05-08 15:56:00,74.0,43.1,29.96,NNE,24,60.0,60.0,33,0.00,,---,0.01,VWS V14.01,2013-05-08 20:56:00,
2013-05-08 15:57:00,74.0,43.9,29.96,North,7,60.0,60.0,34,0.00,,---,0.01,VWS V14.01,2013-05-08 20:57:00,
2013-05-08 15:58:00,74.0,44.6,29.96,North,10,60.0,60.0,35,0.00,,---,0.01,VWS V14.01,2013-05-08 20:58:00,
2013-05-08 15:59:00,73.9,43.0,29.96,North,10,60.0,60.0,33,0.00,,---,0.01,VWS V14.01,2013-05-08 20:59:00,
2013-05-08 16:00:00,73.9,43.8,29.96,North,10,60.0,60.0,34,0.00,,---,0.01,VWS V14.01,2013-05-08 21:00:00,
2013-05-08 16:01:00,73.9,43.8,29.96,North,10,60.0,60.0,34,0.00,,---,0.01,VWS V14.01,2013-05-08 21:01:00,
2013-05-08 16:02:00,73.7,42.8,29.96,NNE,20,60.0,60.0,33,0.00,,---,0.01,VWS V14.01,2013-05-08 21:02:00,
2013-05-08 16:03:00,73.7,43.6,29.96,NNE,20,60.0,60.0,34,0.00,,---,0.01,VWS V14.01,2013-05-08 21:03:00,
2013-05-08 16:04:00,73.7,43.6,29.96,NNE,20,60.0,60.0,34,0.00,,---,0.01,VWS V14.01,2013-05-08 21:04:00,
2013-05-08 16:05:00,73.7,43.6,29.96,NNE,20,60.0,60.0,34,0.00,,---,0.01,VWS V14.01,2013-05-08 21:05:00,
2013-05-08 16:06:00,73.7,42.8,29.96,NNE,20,60.0,60.0,33,0.00,,---,0.01,VWS V14.01,2013-05-08 21:06:00,
2013-05-08 16:07:00,73.7,43.6,29.96,NNE,20,60.0,60.0,34,0.00,,---,0.01,VWS V14.01,2013-05-08 21:07:00,
2013-05-08 16:08:00,73.9,44.5,29.96,East,83,60.0,60.0,35,0.00,,---,0.01,VWS V14.01,2013-05-08 21:08:00,
2013-05-08 16:09:00,73.9,43.8,29.96,NE,49,60.0,60.0,34,0.00,,---,0.01,VWS V14.01,2013-05-08 21:09:00,
2013-05-08 16:10:00,73.9,43.8,29.96,North,0,60.0,60.0,34,0.00,,---,0.01,VWS V14.01,2013-05-08 21:10:00,
2013-05-08 16:11:00,74.0,43.9,29.96,NNE,25,60.0,60.0,34,0.00,,---,0.01,VWS V14.01,2013-05-08 21:11:00,
2013-05-08 16:12:00,73.9,43.8,29.96,North,10,60.0,60.0,34,0.00,,---,0.01,VWS V14.01,2013-05-08 21:12:00,
2013-05-08 16:13:00,73.9,43.8,29.96,North,10,60.0,60.0,34,0.00,,---,0.01,VWS V14.01,2013-05-08 21:13:00,
2013-05-08 16:14:00,74.0,43.9,29.96,NNE,14,60.0,60.0,34,0.00,,---,0.01,VWS V14.01,2013-05-08 21:14:00,
2013-05-08 16:15:00,73.9,43.8,29.96,NNE,14,60.0,60.0,34,0.00,,---,0.01,VWS V14.01,2013-05-08 21:15:00,
2013-05-08 16:16:00,73.7,43.6,29.96,NE,51,60.0,60.0,34,0.00,,---,0.01,VWS V14.01,2013-05-08 21:16:00,
2013-05-08 16:17:00,73.7,44.4,29.96,NE,41,60.0,60.0,35,0.00,,---,0.01,VWS V14.01,2013-05-08 21:17:00,
2013-05-08 16:18:00,73.7,43.6,29.96,NE,41,60.0,60.0,34,0.00,,---,0.01,VWS V14.01,2013-05-08 21:18:00,
2013-05-08 16:19:00,73.7,44.4,29.96,North,359,60.0,60.0,35,0.00,,---,0.01,VWS V14.01,2013-05-08 21:19:00,
2013-05-08 16:20:00,73.7,43.6,29.96,North,10,60.0,60.0,34,0.00,,---,0.01,VWS V14.01,2013-05-08 21:20:00,
2013-05-08 16:21:00,73.7,43.6,29.96,North,10,60.0,60.0,34,0.00,,---,0.01,VWS V14.01,2013-05-08 21:21:00,
2013-05-08 16:22:00,73.7,43.6,29.96,North,10,60.0,60.0,34,0.00,,---,0.01,VWS V14.01,2013-05-08 21:22:00,
2013-05-08 16:23:00,73.7,43.6,29.96,North,10,60.0,60.0,34,0.00,,---,0.01,VWS V14.01,2013-05-08 21:23:00,
2013-05-08 16:24:00,73.7,44.4,29.96,North,3,60.0,60.0,35,0.00,,---,0.01,VWS V14.01,2013-05-08 21:24:00,
2013-05-08 16:25:00,73.5,44.2,29.96,North,3,60.0,60.0,35,0.00,,---,0.01,VWS V14.01,2013-05-08 21:25:00,
2013-05-08 16:26:00,73.5,44.2,29.96,North,3,60.0,60.0,35,0.00,,---,0.01,VWS V14.01,2013-05-08 21:26:00,
2013-05-08 16:27:00,73.5,44.2,29.96,North,3,60.0,60.0,35,0.00,,---,0.01,VWS V14.01,2013-05-08 21:27:00,
2013-05-08 16:28:00,73.5,43.4,29.96,North,3,60.0,60.0,34,0.00,,---,0.01,VWS V14.01,2013-05-08 21:28:00,
2013-05-08 16:29:00,73.5,44.2,29.96,NW,323,60.0,60.0,35,0.00,,---,0.01,VWS V14.01,2013-05-08 21:29:00,
2013-05-08 16:30:00,73.5,44.2,29.96,NW,322,60.0,60.0,35,0.00,,---,0.01,VWS V14.01,2013-05-08 21:30:00,
2013-05-08 16:31:00,73.5,44.2,29.96,North,1,60.0,60.0,35,0.00,,---,0.01,VWS V14.01,2013-05-08 21:31:00,
2013-05-08 16:32:00,73.5,44.2,29.96,NNW,328,60.0,60.0,35,0.00,,---,0.01,VWS V14.01,2013-05-08 21:32:00,
2013-05-08 16:33:00,73.5,44.2,29.96,NNW,328,60.0,60.0,35,0.00,,---,0.01,VWS V14.01,2013-05-08 21:33:00,
2013-05-08 16:34:00,73.5,44.2,29.96,NNW,336,60.0,60.0,35,0.00,,---,0.01,VWS V14.01,2013-05-08 21:34:00,
2013-05-08 16:35:00,73.5,44.9,29.96,NE,56,60.0,60.0,36,0.00,,---,0.01,VWS V14.01,2013-05-08 21:35:00,
2013-05-08 16:36:00,73.5,44.2,29.96,NE,45,60.0,60.0,35,0.00,,---,0.01,VWS V14.01,2013-05-08 21:36:00,
2013-05-08 16:37:00,73.5,44.2,29.96,NNE,20,60.0,60.0,35,0.00,,---,0.01,VWS V14.01,2013-05-08 21:37:00,
2013-05-08 16:38:00,73.3,44.0,29.96,North,0,60.0,60.0,35,0.00,,---,0.01,VWS V14.01,2013-05-08 21:38:00,
2013-05-08 16:39:00,73.2,43.9,29.96,North,8,60.0,60.0,35,0.00,,---,0.01,VWS V14.01,2013-05-08 21:39:00,
2013-05-08 16:40:00,73.0,43.8,29.96,NNE,21,60.0,60.0,35,0.00,,---,0.01,VWS V14.01,2013-05-08 21:40:00,
2013-05-08 16:41:00,73.0,44.5,29.96,ESE,103,60.0,60.0,36,0.00,,---,0.01,VWS V14.01,2013-05-08 21:41:00,
2013-05-08 16:42:00,72.8,45.0,29.96,East,83,60.0,60.0,37,0.00,,---,0.01,VWS V14.01,2013-05-08 21:42:00,
2013-05-08 16:43:00,72.8,44.3,29.96,ENE,62,60.0,60.0,36,0.00,,---,0.01,VWS V14.01,2013-05-08 21:43:00,
2013-05-08 16:44:00,72.8,44.3,29.97,ENE,62,60.0,60.0,36,0.00,,---,0.01,VWS V14.01,2013-05-08 21:44:00,
2013-05-08 16:45:00,72.8,45.0,29.97,NE,38,60.0,60.0,37,0.00,,---,0.01,VWS V14.01,2013-05-08 21:45:00,
2013-05-08 16:52:00,72.7,44.2,29.97,North,1,60.0,60.0,36,0.00,,---,0.01,VWS V14.01,2013-05-08 21:52:00,
2013-05-08 16:53:00,72.7,44.2,29.97,North,3,60.0,60.0,36,0.00,,---,0.01,VWS V14.01,2013-05-08 21:53:00,
2013-05-08 16:59:00,72.7,45.0,29.97,North,10,60.0,60.0,37,0.00,,---,0.01,VWS V14.01,2013-05-08 21:59:00,
2013-05-08 17:00:00,72.7,45.0,29.97,North,10,60.0,60.0,37,0.00,,---,0.01,VWS V14.01,2013-05-08 22:00:00,
2013-05-08 17:01:00,72.7,45.7,29.97,ESE,116,60.0,60.0,38,0.00,,---,0.01,VWS V14.01,2013-05-08 22:01:00,
2013-05-08 17:02:00,72.5,45.5,29.97,East,86,60.0,60.0,38,0.00,,---,0.01,VWS V14.01,2013-05-08 22:02:00,
2013-05-08 17:03:00,72.5,45.5,29.97,East,86,60.0,60.0,38,0.00,,---,0.01,VWS V14.01,2013-05-08 22:03:00,
2013-05-08 17:04:00,72.5,44.8,29.97,East,86,60.0,60.0,37,0.00,,---,0.01,VWS V14.01,2013-05-08 22:04:00,
2013-05-08 17:05:00,72.5,44.8,29.97,NE,37,60.0,60.0,37,0.00,,---,0.01,VWS V14.01,2013-05-08 22:05:00,
2013-05-08 17:06:00,72.5,44.8,29.97,NE,41,60.0,60.0,37,0.00,,---,0.01,VWS V14.01,2013-05-08 22:06:00,
2013-05-08 17:07:00,72.5,44.8,29.97,NE,38,60.0,60.0,37,0.00,,---,0.01,VWS V14.01,2013-05-08 22:07:00,
2013-05-08 17:08:00,72.5,44.8,29.97,North,353,60.0,60.0,37,0.00,,---,0.01,VWS V14.01,2013-05-08 22:08:00,
2013-05-08 17:09:00,72.5,44.8,29.97,North,352,60.0,60.0,37,0.00,,---,0.01,VWS V14.01,2013-05-08 22:09:00,
2013-05-08 17:10:00,72.5,44.8,29.97,North,357,60.0,60.0,37,0.00,,---,0.01,VWS V14.01,2013-05-08 22:10:00,
2013-05-08 17:11:00,72.7,45.7,29.97,NW,318,60.0,60.0,38,0.00,,---,0.01,VWS V14.01,2013-05-08 22:11:00,
2013-05-08 17:12:00,72.7,45.7,29.97,NNE,32,60.0,60.0,38,0.00,,---,0.01,VWS V14.01,2013-05-08 22:12:00,
2013-05-08 17:13:00,72.8,44.3,29.97,NNE,32,60.0,60.0,36,0.00,,---,0.01,VWS V14.01,2013-05-08 22:13:00,
2013-05-08 17:14:00,72.8,45.0,29.97,NNE,32,60.0,60.0,37,0.00,,---,0.01,VWS V14.01,2013-05-08 22:14:00,
2013-05-08 17:15:00,72.8,44.3,29.97,NNE,30,60.0,60.0,36,0.00,,---,0.01,VWS V14.01,2013-05-08 22:15:00,
2013-05-08 17:16:00,73.0,44.5,29.97,East,86,60.0,60.0,36,0.00,,---,0.01,VWS V14.01,2013-05-08 22:16:00,
2013-05-08 17:17:00,72.8,44.3,29.97,East,90,60.0,60.0,36,0.00,,---,0.01,VWS V14.01,2013-05-08 22:17:00,
2013-05-08 17:18:00,72.7,44.2,29.97,East,95,60.0,60.0,36,0.00,,---,0.01,VWS V14.01,2013-05-08 22:18:00,
2013-05-08 17:19:00,72.7,45.0,29.97,NE,44,60.0,60.0,37,0.00,,---,0.01,VWS V14.01,2013-05-08 22:19:00,
2013-05-08 17:20:00,72.7,45.0,29.97,NW,322,60.0,60.0,37,0.00,,---,0.01,VWS V14.01,2013-05-08 22:20:00,
2013-05-08 17:21:00,72.7,45.0,29.97,North,3,60.0,60.0,37,0.00,,---,0.01,VWS V14.01,2013-05-08 22:21:00,
2013-05-08 17:22:00,72.7,45.0,29.97,North,350,60.0,60.0,37,0.00,,---,0.01,VWS V14.01,2013-05-08 22:22:00,
2013-05-08 17:23:00,72.7,45.0,29.97,North,350,60.0,60.0,37,0.00,,---,0.01,VWS V14.01,2013-05-08 22:23:00,
2013-05-08 17:24:00,72.7,45.0,29.97,East,82,60.0,60.0,37,0.00,,---,0.01,VWS V14.01,2013-05-08 22:24:00,
2013-05-08 17:25:00,72.5,47.5,29.97,East,89,60.0,60.0,41,0.00,,---,0.01,VWS V14.01,2013-05-08 22:25:00,
2013-05-08 17:26:00,72.3,47.3,29.97,ENE,78,60.0,60.0,41,0.00,,---,0.01,VWS V14.01,2013-05-08 22:26:00,
2013-05-08 17:27:00,72.1,47.8,29.97,ENE,68,60.0,60.0,42,0.00,,---,0.01,VWS V14.01,2013-05-08 22:27:00,
2013-05-08 17:28:00,72.0,47.7,29.97,ENE,75,60.0,60.0,42,0.00,,---,0.01,VWS V14.01,2013-05-08 22:28:00,
2013-05-08 17:29:00,71.6,47.3,29.97,East,79,60.0,60.0,42,0.00,,---,0.01,VWS V14.01,2013-05-08 22:29:00,
2013-05-08 17:30:00,71.5,47.8,29.97,East,82,60.0,60.0,43,0.00,,---,0.01,VWS V14.01,2013-05-08 22:30:00,
2013-05-08 17:31:00,71.3,47.7,29.97,East,88,60.0,60.0,43,0.00,,---,0.01,VWS V14.01,2013-05-08 22:31:00,
2013-05-08 17:32:00,70.9,47.9,29.97,East,88,60.0,60.0,44,0.00,,---,0.01,VWS V14.01,2013-05-08 22:32:00,
2013-05-08 17:33:00,70.9,47.9,29.97,ENE,64,60.0,60.0,44,0.00,,---,0.01,VWS V14.01,2013-05-08 22:33:00,
2013-05-08 17:34:00,70.8,47.8,29.97,NE,49,60.0,60.0,44,0.00,,---,0.01,VWS V14.01,2013-05-08 22:34:00,
2013-05-08 17:35:00,70.8,47.8,29.97,NE,49,60.0,60.0,44,0.00,,---,0.01,VWS V14.01,2013-05-08 22:35:00,
2013-05-08 17:36:00,70.8,47.8,29.97,NE,49,60.0,60.0,44,0.00,,---,0.01,VWS V14.01,2013-05-08 22:36:00,
2013-05-08 17:37:00,70.8,47.2,29.97,ESE,121,60.0,60.0,43,0.00,,---,0.01,VWS V14.01,2013-05-08 22:37:00,
2013-05-08 17:38:00,70.8,47.2,29.97,SSE,160,60.0,60.0,43,0.00,,---,0.01,VWS V14.01,2013-05-08 22:38:00,
2013-05-08 17:39:00,70.8,47.2,29.97,SSE,158,60.0,60.0,43,0.00,,---,0.01,VWS V14.01,2013-05-08 22:39:00,
2013-05-08 17:40:00,70.8,47.8,29.97,SSE,158,60.0,60.0,44,0.00,,---,0.01,VWS V14.01,2013-05-08 22:40:00,
2013-05-08 17:41:00,70.8,47.8,29.97,SSE,158,60.0,60.0,44,0.00,,---,0.01,VWS V14.01,2013-05-08 22:41:00,
2013-05-08 17:42:00,70.8,47.8,29.97,SSE,168,60.0,60.0,44,0.00,,---,0.01,VWS V14.01,2013-05-08 22:42:00,
2013-05-08 17:43:00,70.8,47.2,29.97,South,186,60.0,60.0,43,0.00,,---,0.01,VWS V14.01,2013-05-08 22:43:00,
2013-05-08 17:44:00,70.6,47.7,29.97,South,186,60.0,60.0,44,0.00,,---,0.01,VWS V14.01,2013-05-08 22:44:00,
2013-05-08 17:45:00,70.8,47.8,29.97,ESE,110,60.0,60.0,44,0.00,,---,0.01,VWS V14.01,2013-05-08 22:45:00,
2013-05-08 17:46:00,70.6,47.0,29.97,ESE,104,60.0,60.0,43,0.00,,---,0.01,VWS V14.01,2013-05-08 22:46:00,
2013-05-08 17:47:00,70.6,47.7,29.97,ESE,104,60.0,60.0,44,0.00,,---,0.01,VWS V14.01,2013-05-08 22:47:00,
2013-05-08 17:48:00,70.6,47.7,29.97,ESE,104,60.0,60.0,44,0.00,,---,0.01,VWS V14.01,2013-05-08 22:48:00,
2013-05-08 17:49:00,70.6,48.2,29.97,NE,34,60.0,60.0,45,0.00,,---,0.01,VWS V14.01,2013-05-08 22:49:00,
2013-05-08 17:50:00,70.6,47.7,29.97,NE,34,60.0,60.0,44,0.00,,---,0.01,VWS V14.01,2013-05-08 22:50:00,
2013-05-08 17:51:00,70.6,47.7,29.97,SE,136,60.0,60.0,44,0.00,,---,0.01,VWS V14.01,2013-05-08 22:51:00,
2013-05-08 17:52:00,70.4,47.5,29.97,SSE,154,60.0,60.0,44,0.00,,---,0.01,VWS V14.01,2013-05-08 22:52:00,
2013-05-08 17:53:00,70.4,46.2,29.97,South,186,60.0,60.0,42,0.00,,---,0.01,VWS V14.01,2013-05-08 22:53:00,
2013-05-08 17:54:00,70.4,46.2,29.97,SSW,206,60.0,60.0,42,0.00,,---,0.01,VWS V14.01,2013-05-08 22:54:00,
2013-05-08 17:55:00,70.6,46.4,29.97,South,186,60.0,60.0,42,0.00,,---,0.01,VWS V14.01,2013-05-08 22:55:00,
2013-05-08 17:56:00,70.6,45.8,29.97,SSW,205,60.0,60.0,41,0.00,,---,0.01,VWS V14.01,2013-05-08 22:56:00,
2013-05-08 17:57:00,70.8,46.0,29.97,West,277,60.0,60.0,41,0.00,,---,0.01,VWS V14.01,2013-05-08 22:57:00,
2013-05-08 17:58:00,70.8,45.3,29.97,West,277,60.0,60.0,40,0.00,,---,0.01,VWS V14.01,2013-05-08 22:58:00,
2013-05-08 17:59:00,70.9,46.0,29.98,WNW,292,60.0,60.0,41,0.00,,---,0.01,VWS V14.01,2013-05-08 22:59:00,
2013-05-08 18:00:00,71.1,45.6,29.98,NE,37,60.0,60.0,40,0.00,,---,0.01,VWS V14.01,2013-05-08 23:00:00,
2013-05-08 18:01:00,71.3,45.1,29.98,NE,37,60.0,60.0,39,0.00,,---,0.01,VWS V14.01,2013-05-08 23:01:00,
2013-05-08 18:02:00,71.6,45.4,29.98,NNE,20,60.0,60.0,39,0.00,,---,0.01,VWS V14.01,2013-05-08 23:02:00,
2013-05-08 18:03:00,71.6,46.0,29.98,ENE,75,60.0,60.0,40,0.00,,---,0.01,VWS V14.01,2013-05-08 23:03:00,
2013-05-08 18:04:00,71.6,46.0,29.98,NNE,13,60.0,60.0,40,0.00,,---,0.01,VWS V14.01,2013-05-08 23:04:00,
2013-05-08 18:05:00,71.6,44.7,29.98,East,80,60.0,60.0,38,0.00,,---,0.01,VWS V14.01,2013-05-08 23:05:00,
2013-05-08 18:06:00,71.6,44.7,29.98,ENE,62,60.0,60.0,38,0.00,,---,0.01,VWS V14.01,2013-05-08 23:06:00,
2013-05-08 18:07:00,71.8,44.8,29.98,NE,49,60.0,60.0,38,0.00,,---,0.01,VWS V14.01,2013-05-08 23:07:00,
2013-05-08 18:08:00,72.0,45.0,29.98,NNE,16,60.0,60.0,38,0.00,,---,0.01,VWS V14.01,2013-05-08 23:08:00,
2013-05-08 18:09:00,72.1,45.1,29.98,NW,319,60.0,60.0,38,0.00,,---,0.01,VWS V14.01,2013-05-08 23:09:00,
2013-05-08 18:10:00,72.1,44.4,29.98,North,8,60.0,60.0,37,0.00,,---,0.01,VWS V14.01,2013-05-08 23:10:00,
2013-05-08 18:11:00,72.3,44.6,29.98,NNE,13,60.0,60.0,37,0.00,,---,0.01,VWS V14.01,2013-05-08 23:11:00,
2013-05-08 18:12:00,72.3,43.9,29.98,NE,37,60.0,60.0,36,0.00,,---,0.01,VWS V14.01,2013-05-08 23:12:00,
2013-05-08 18:13:00,72.1,43.7,29.98,North,10,60.0,60.0,36,0.00,,---,0.01,VWS V14.01,2013-05-08 23:13:00,
2013-05-08 18:14:00,72.1,43.7,29.97,North,7,60.0,60.0,36,0.00,,---,0.01,VWS V14.01,2013-05-08 23:14:00,
2013-05-08 18:15:00,72.1,44.4,29.97,North,7,60.0,60.0,37,0.00,,---,0.01,VWS V14.01,2013-05-08 23:15:00,
2013-05-08 18:16:00,72.1,44.4,29.97,North,8,60.0,60.0,37,0.00,,---,0.01,VWS V14.01,2013-05-08 23:16:00,
2013-05-08 18:17:00,72.1,45.1,29.97,North,8,60.0,60.0,38,0.00,,---,0.01,VWS V14.01,2013-05-08 23:17:00,
2013-05-08 18:18:00,72.3,44.6,29.97,NE,49,60.0,60.0,37,0.00,,---,0.01,VWS V14.01,2013-05-08 23:18:00,
2013-05-08 18:19:00,72.3,44.6,29.97,North,10,60.0,60.0,37,0.00,,---,0.01,VWS V14.01,2013-05-08 23:19:00,
2013-05-08 18:20:00,72.3,44.6,29.97,NNE,32,60.0,60.0,37,0.00,,---,0.01,VWS V14.01,2013-05-08 23:20:00,
2013-05-08 18:21:00,72.3,43.9,29.97,North,7,60.0,60.0,36,0.00,,---,0.01,VWS V14.01,2013-05-08 23:21:00,
2013-05-08 18:22:00,72.3,44.6,29.97,North,7,60.0,60.0,37,0.00,,---,0.01,VWS V14.01,2013-05-08 23:22:00,
2013-05-08 18:23:00,72.3,44.6,29.97,ENE,62,60.0,60.0,37,0.00,,---,0.01,VWS V14.01,2013-05-08 23:23:00,
2013-05-08 18:24:00,72.5,44.8,29.97,North,0,60.0,60.0,37,0.00,,---,0.01,VWS V14.01,2013-05-08 23:24:00,
2013-05-08 18:25:00,72.5,44.1,29.97,North,3,60.0,60.0,36,0.00,,---,0.01,VWS V14.01,2013-05-08 23:25:00,
2013-05-08 18:26:00,72.5,44.1,29.97,NW,325,60.0,60.0,36,0.00,,---,0.01,VWS V14.01,2013-05-08 23:26:00,
2013-05-08 18:27:00,72.5,44.1,29.97,North,357,60.0,60.0,36,0.00,,---,0.01,VWS V14.01,2013-05-08 23:27:00,
2013-05-08 18:28:00,72.7,44.2,29.97,North,1,60.0,60.0,36,0.00,,---,0.01,VWS V14.01,2013-05-08 23:28:00,
2013-05-08 18:29:00,72.5,44.1,29.97,North,11,60.0,60.0,36,0.00,,---,0.01,VWS V14.01,2013-05-08 23:29:00,
2013-05-08 18:30:00,72.5,44.1,29.97,North,8,60.0,60.0,36,0.00,,---,0.01,VWS V14.01,2013-05-08 23:30:00,
2013-05-08 18:31:00,72.5,44.1,29.97,North,0,60.0,60.0,36,0.00,,---,0.01,VWS V14.01,2013-05-08 23:31:00,
2013-05-08 18:32:00,72.7,44.2,29.97,North,7,60.0,60.0,36,0.00,,---,0.01,VWS V14.01,2013-05-08 23:32:00,
2013-05-08 18:33:00,72.7,44.2,29.97,North,0,60.0,60.0,36,0.00,,---,0.01,VWS V14.01,2013-05-08 23:33:00,
2013-05-08 18:34:00,72.7,44.2,29.97,North,349,60.0,60.0,36,0.00,,---,0.01,VWS V14.01,2013-05-08 23:34:00,
2013-05-08 18:35:00,72.5,43.3,29.97,North,359,60.0,60.0,35,0.00,,---,0.01,VWS V14.01,2013-05-08 23:35:00,
2013-05-08 18:36:00,72.3,43.1,29.97,North,4,60.0,60.0,35,0.00,,---,0.01,VWS V14.01,2013-05-08 23:36:00,
2013-05-08 18:37:00,72.3,43.9,29.97,North,0,60.0,60.0,36,0.00,,---,0.01,VWS V14.01,2013-05-08 23:37:00,
2013-05-08 18:38:00,72.1,43.7,29.97,NW,318,60.0,60.0,36,0.00,,---,0.01,VWS V14.01,2013-05-08 23:38:00,
2013-05-08 18:39:00,72.1,43.7,29.97,NNE,14,60.0,60.0,36,0.00,,---,0.01,VWS V14.01,2013-05-08 23:39:00,
2013-05-08 18:40:00,72.1,43.7,29.97,NNW,339,60.0,60.0,36,0.00,,---,0.01,VWS V14.01,2013-05-08 23:40:00,
2013-05-08 18:41:00,72.0,43.6,29.97,North,0,60.0,60.0,36,0.00,,---,0.01,VWS V14.01,2013-05-08 23:41:00,
2013-05-08 18:42:00,72.0,43.6,29.97,North,11,60.0,60.0,36,0.00,,---,0.01,VWS V14.01,2013-05-08 23:42:00,
2013-05-08 18:43:00,72.0,43.6,29.97,North,11,60.0,60.0,36,0.00,,---,0.01,VWS V14.01,2013-05-08 23:43:00,
2013-05-08 18:44:00,72.0,43.6,29.97,North,3,60.0,60.0,36,0.00,,---,0.01,VWS V14.01,2013-05-08 23:44:00,
2013-05-08 18:45:00,72.0,44.3,29.97,NNW,347,60.0,60.0,37,0.00,,---,0.01,VWS V14.01,2013-05-08 23:45:00,
2013-05-08 18:46:00,71.8,43.4,29.97,North,1,60.0,60.0,36,0.00,,---,0.01,VWS V14.01,2013-05-08 23:46:00,
2013-05-08 18:47:00,71.8,43.4,29.97,North,4,60.0,60.0,36,0.00,,---,0.01,VWS V14.01,2013-05-08 23:47:00,
2013-05-08 18:48:00,71.8,44.2,29.97,NW,305,60.0,60.0,37,0.00,,---,0.01,VWS V14.01,2013-05-08 23:48:00,
2013-05-08 18:49:00,71.6,43.3,29.97,NNE,14,60.0,60.0,36,0.00,,---,0.01,VWS V14.01,2013-05-08 23:49:00,
2013-05-08 18:50:00,71.5,40.9,29.97,North,0,60.0,60.0,33,0.00,,---,0.01,VWS V14.01,2013-05-08 23:50:00,
2013-05-08 18:51:00,71.5,43.9,29.97,North,0,60.0,60.0,37,0.00,,---,0.01,VWS V14.01,2013-05-08 23:51:00,
2013-05-08 18:52:00,71.3,43.7,29.97,North,354,60.0,60.0,37,0.00,,---,0.01,VWS V14.01,2013-05-08 23:52:00,
2013-05-08 18:53:00,71.3,44.4,29.97,NNE,14,60.0,60.0,38,0.00,,---,0.01,VWS V14.01,2013-05-08 23:53:00,
2013-05-08 18:54:00,71.3,43.7,29.97,NNE,16,60.0,60.0,37,0.00,,---,0.01,VWS V14.01,2013-05-08 23:54:00,
2013-05-08 18:55:00,71.3,43.7,29.97,North,349,60.0,60.0,37,0.00,,---,0.01,VWS V14.01,2013-05-08 23:55:00,
2013-05-08 18:56:00,71.3,43.7,29.97,North,352,60.0,60.0,37,0.00,,---,0.01,VWS V14.01,2013-05-08 23:56:00,
2013-05-08 18:57:00,71.3,43.7,29.97,North,6,60.0,60.0,37,0.00,,---,0.01,VWS V14.01,2013-05-08 23:57:00,
2013-05-08 18:58:00,71.3,44.4,29.97,NNW,343,60.0,60.0,38,0.00,,---,0.01,VWS V14.01,2013-05-08 23:58:00,
2013-05-08 18:59:00,71.3,43.7,29.97,North,357,60.0,60.0,37,0.00,,---,0.01,VWS V14.01,2013-05-08 23:59:00,
2013-05-08 19:00:00,71.3,43.7,29.97,North,356,60.0,60.0,37,0.00,,---,0.01,VWS V14.01,2013-05-09 00:00:00,
2013-05-08 19:01:00,71.1,44.2,29.97,North,11,60.0,60.0,38,0.00,,---,0.01,VWS V14.01,2013-05-09 00:01:00,
2013-05-08 19:02:00,71.1,44.2,29.97,NW,325,60.0,60.0,38,0.00,,---,0.01,VWS V14.01,2013-05-09 00:02:00,
2013-05-08 19:03:00,71.1,44.2,29.97,NW,326,60.0,60.0,38,0.00,,---,0.01,VWS V14.01,2013-05-09 00:03:00,
2013-05-08 19:04:00,71.1,44.2,29.97,NE,49,60.0,60.0,38,0.00,,---,0.01,VWS V14.01,2013-05-09 00:04:00,
2013-05-08 19:05:00,71.1,44.2,29.97,NNE,16,60.0,60.0,38,0.00,,---,0.01,VWS V14.01,2013-05-09 00:05:00,
2013-05-08 19:06:00,71.1,44.2,29.97,North,359,60.0,60.0,38,0.00,,---,0.01,VWS V14.01,2013-05-09 00:06:00,
2013-05-08 19:07:00,71.1,44.2,29.97,NNE,25,60.0,60.0,38,0.00,,---,0.01,VWS V14.01,2013-05-09 00:07:00,
2013-05-08 19:08:00,71.1,44.2,29.97,NNE,23,60.0,60.0,38,0.00,,---,0.01,VWS V14.01,2013-05-09 00:08:00,
2013-05-08 19:09:00,70.9,44.7,29.97,NNE,23,60.0,60.0,39,0.00,,---,0.01,VWS V14.01,2013-05-09 00:09:00,
2013-05-08 19:10:00,70.9,44.0,29.97,North,6,60.0,60.0,38,0.00,,---,0.01,VWS V14.01,2013-05-09 00:10:00,
2013-05-08 19:11:00,70.9,44.0,29.97,NW,325,60.0,60.0,38,0.00,,---,0.01,VWS V14.01,2013-05-09 00:11:00,
2013-05-08 19:12:00,70.8,44.0,29.97,NNE,25,60.0,60.0,38,0.00,,---,0.01,VWS V14.01,2013-05-09 00:12:00,
2013-05-08 19:13:00,70.8,44.6,29.97,North,0,60.0,60.0,39,0.00,,---,0.01,VWS V14.01,2013-05-09 00:13:00,
2013-05-08 19:14:00,70.6,44.5,29.97,North,350,60.0,60.0,39,0.00,,---,0.01,VWS V14.01,2013-05-09 00:14:00,
2013-05-08 19:15:00,70.4,44.3,29.97,NNE,13,60.0,60.0,39,0.00,,---,0.01,VWS V14.01,2013-05-09 00:15:00,
2013-05-08 19:16:00,70.3,44.2,29.97,North,0,60.0,60.0,39,0.00,,---,0.01,VWS V14.01,2013-05-09 00:16:00,
2013-05-08 19:17:00,70.3,44.2,29.97,North,0,60.0,60.0,39,0.00,,---,0.01,VWS V14.01,2013-05-09 00:17:00,
2013-05-08 19:18:00,70.3,44.2,29.97,NNE,21,60.0,60.0,39,0.00,,---,0.01,VWS V14.01,2013-05-09 00:18:00,
2013-05-08 19:19:00,70.1,44.7,29.97,North,6,60.0,60.0,40,0.00,,---,0.01,VWS V14.01,2013-05-09 00:19:00,
2013-05-08 19:20:00,70.1,44.0,29.97,NNE,27,60.0,60.0,39,0.00,,---,0.01,VWS V14.01,2013-05-09 00:20:00,
2013-05-08 19:21:00,70.1,44.0,29.97,NNE,28,60.0,60.0,39,0.00,,---,0.01,VWS V14.01,2013-05-09 00:21:00,
2013-05-08 19:22:00,69.9,43.8,29.97,North,0,60.0,60.0,39,0.00,,---,0.01,VWS V14.01,2013-05-09 00:22:00,
2013-05-08 19:23:00,69.9,44.5,29.97,North,349,60.0,60.0,40,0.00,,---,0.01,VWS V14.01,2013-05-09 00:23:00,
2013-05-08 19:24:00,69.9,43.8,29.97,North,352,60.0,60.0,39,0.00,,---,0.01,VWS V14.01,2013-05-09 00:24:00,
2013-05-08 19:25:00,69.8,44.4,29.97,North,11,60.0,60.0,40,0.00,,---,0.01,VWS V14.01,2013-05-09 00:25:00,
2013-05-08 19:26:00,69.8,44.4,29.97,North,356,60.0,60.0,40,0.00,,---,0.01,VWS V14.01,2013-05-09 00:26:00,
2013-05-08 19:27:00,69.8,44.4,29.97,North,0,60.0,60.0,40,0.00,,---,0.01,VWS V14.01,2013-05-09 00:27:00,
2013-05-08 19:28:00,69.8,44.4,29.97,NNE,17,60.0,60.0,40,0.00,,---,0.01,VWS V14.01,2013-05-09 00:28:00,
2013-05-08 19:29:00,69.6,44.2,29.97,NNE,16,60.0,60.0,40,0.00,,---,0.01,VWS V14.01,2013-05-09 00:29:00,
2013-05-08 19:30:00,69.6,44.2,29.98,NNE,20,60.0,60.0,40,0.00,,---,0.01,VWS V14.01,2013-05-09 00:30:00,
2013-05-08 19:31:00,69.6,44.2,29.98,North,8,60.0,60.0,40,0.00,,---,0.01,VWS V14.01,2013-05-09 00:31:00,
2013-05-08 19:32:00,69.6,44.2,29.98,NW,319,60.0,60.0,40,0.00,,---,0.01,VWS V14.01,2013-05-09 00:32:00,
2013-05-08 19:33:00,69.6,44.2,29.98,North,0,60.0,60.0,40,0.00,,---,0.01,VWS V14.01,2013-05-09 00:33:00,
2013-05-08 19:34:00,69.4,44.1,29.98,NNW,333,60.0,60.0,40,0.00,,---,0.01,VWS V14.01,2013-05-09 00:34:00,
2013-05-08 19:35:00,69.4,44.1,29.98,North,4,60.0,60.0,40,0.00,,---,0.01,VWS V14.01,2013-05-09 00:35:00,
2013-05-08 19:36:00,69.4,44.1,29.98,NE,35,60.0,60.0,40,0.00,,---,0.01,VWS V14.01,2013-05-09 00:36:00,
2013-05-08 19:37:00,69.3,44.0,29.98,NNE,18,60.0,60.0,40,0.00,,---,0.01,VWS V14.01,2013-05-09 00:37:00,
2013-05-08 19:38:00,69.3,44.0,29.98,North,6,60.0,60.0,40,0.00,,---,0.01,VWS V14.01,2013-05-09 00:38:00,
2013-05-08 19:39:00,69.1,43.8,29.98,North,0,60.0,60.0,40,0.00,,---,0.01,VWS V14.01,2013-05-09 00:39:00,
2013-05-08 19:40:00,69.1,43.8,29.98,North,0,60.0,60.0,40,0.00,,---,0.01,VWS V14.01,2013-05-09 00:40:00,
2013-05-08 19:41:00,69.1,43.8,29.98,North,7,60.0,60.0,40,0.00,,---,0.01,VWS V14.01,2013-05-09 00:41:00,
2013-05-08 19:42:00,68.9,43.6,29.98,NE,44,60.0,60.0,40,0.00,,---,0.01,VWS V14.01,2013-05-09 00:42:00,
2013-05-08 19:43:00,68.9,43.6,29.98,North,7,60.0,60.0,40,0.00,,---,0.01,VWS V14.01,2013-05-09 00:43:00,
2013-05-08 19:44:00,68.8,43.5,29.99,North,11,60.0,60.0,40,0.00,,---,0.01,VWS V14.01,2013-05-09 00:44:00,
2013-05-08 19:45:00,68.8,44.2,29.99,North,0,60.0,60.0,41,0.00,,---,0.01,VWS V14.01,2013-05-09 00:45:00,
2013-05-08 19:46:00,68.8,44.2,29.99,North,11,60.0,60.0,41,0.00,,---,0.01,VWS V14.01,2013-05-09 00:46:00,
2013-05-08 19:47:00,68.8,44.2,29.99,North,0,60.0,60.0,41,0.00,,---,0.01,VWS V14.01,2013-05-09 00:47:00,
2013-05-08 19:48:00,68.6,44.0,29.99,ENE,58,60.0,60.0,41,0.00,,---,0.01,VWS V14.01,2013-05-09 00:48:00,
2013-05-08 19:49:00,68.6,44.0,29.99,NNE,25,60.0,60.0,41,0.00,,---,0.01,VWS V14.01,2013-05-09 00:49:00,
2013-05-08 19:50:00,68.4,43.8,29.99,North,354,60.0,60.0,41,0.00,,---,0.01,VWS V14.01,2013-05-09 00:50:00,
2013-05-08 19:51:00,68.4,43.8,29.99,North,359,60.0,60.0,41,0.00,,---,0.01,VWS V14.01,2013-05-09 00:51:00,
2013-05-08 19:52:00,68.3,43.7,29.99,North,359,60.0,60.0,41,0.00,,---,0.01,VWS V14.01,2013-05-09 00:52:00,
2013-05-08 19:53:00,68.3,43.7,29.99,NNE,17,60.0,60.0,41,0.00,,---,0.01,VWS V14.01,2013-05-09 00:53:00,
2013-05-08 19:54:00,68.1,43.5,29.99,North,0,60.0,60.0,41,0.00,,---,0.01,VWS V14.01,2013-05-09 00:54:00,
2013-05-08 19:55:00,68.1,43.5,29.99,NNE,31,60.0,60.0,41,0.00,,---,0.01,VWS V14.01,2013-05-09 00:55:00,
2013-05-08 19:56:00,67.9,43.4,29.99,North,0,60.0,60.0,41,0.00,,---,0.01,VWS V14.01,2013-05-09 00:56:00,
2013-05-08 19:57:00,67.9,43.4,29.99,NE,34,60.0,60.0,41,0.00,,---,0.01,VWS V14.01,2013-05-09 00:57:00,
2013-05-08 19:58:00,67.8,43.3,29.99,NNE,21,60.0,60.0,41,0.00,,---,0.01,VWS V14.01,2013-05-09 00:58:00,
2013-05-08 19:59:00,67.8,43.3,29.99,NE,47,60.0,60.0,41,0.00,,---,0.01,VWS V14.01,2013-05-09 00:59:00,
2013-05-08 20:00:00,67.8,43.3,29.99,North,11,60.0,60.0,41,0.00,,---,0.01,VWS V14.01,2013-05-09 01:00:00,
2013-05-08 20:01:00,67.6,43.1,29.99,North,11,60.0,60.0,41,0.00,,---,0.01,VWS V14.01,2013-05-09 01:01:00,
2013-05-08 20:02:00,67.6,43.7,29.99,North,0,60.0,60.0,42,0.00,,---,0.01,VWS V14.01,2013-05-09 01:02:00,
2013-05-08 20:03:00,67.6,43.7,29.99,NNE,17,60.0,60.0,42,0.00,,---,0.01,VWS V14.01,2013-05-09 01:03:00,
2013-05-08 20:04:00,67.4,43.5,29.99,NNE,23,60.0,60.0,42,0.00,,---,0.01,VWS V14.01,2013-05-09 01:04:00,
2013-05-08 20:05:00,67.4,43.5,29.99,North,11,60.0,60.0,42,0.00,,---,0.01,VWS V14.01,2013-05-09 01:05:00,
2013-05-08 20:06:00,67.4,43.5,29.99,NNE,13,60.0,60.0,42,0.00,,---,0.01,VWS V14.01,2013-05-09 01:06:00,
2013-05-08 20:07:00,67.3,43.5,29.99,NE,34,60.0,60.0,42,0.00,,---,0.01,VWS V14.01,2013-05-09 01:07:00,
2013-05-08 20:08:00,67.3,43.5,29.99,NNE,17,60.0,60.0,42,0.00,,---,0.01,VWS V14.01,2013-05-09 01:08:00,
2013-05-08 20:09:00,67.1,43.3,29.99,North,0,60.0,60.0,42,0.00,,---,0.01,VWS V14.01,2013-05-09 01:09:00,
2013-05-08 20:10:00,67.1,43.3,29.99,North,1,60.0,60.0,42,0.00,,---,0.01,VWS V14.01,2013-05-09 01:10:00,
2013-05-08 20:11:00,67.1,43.3,29.99,NE,34,60.0,60.0,42,0.00,,---,0.01,VWS V14.01,2013-05-09 01:11:00,
2013-05-08 20:12:00,66.9,43.1,29.99,NE,52,60.0,60.0,42,0.00,,---,0.01,VWS V14.01,2013-05-09 01:12:00,
2013-05-08 20:13:00,66.9,43.1,29.99,NNE,31,60.0,60.0,42,0.00,,---,0.01,VWS V14.01,2013-05-09 01:13:00,
2013-05-08 20:14:00,66.8,43.6,29.99,North,8,60.0,60.0,43,0.00,,---,0.01,VWS V14.01,2013-05-09 01:14:00,
2013-05-08 20:15:00,66.8,43.6,29.99,NNE,20,60.0,60.0,43,0.00,,---,0.01,VWS V14.01,2013-05-09 01:15:00,
2013-05-08 20:16:00,66.6,43.4,29.99,North,356,60.0,60.0,43,0.00,,---,0.01,VWS V14.01,2013-05-09 01:16:00,
2013-05-08 20:17:00,66.4,43.2,29.99,North,357,60.0,60.0,43,0.00,,---,0.01,VWS V14.01,2013-05-09 01:17:00,
2013-05-08 20:18:00,66.4,43.2,29.99,North,352,60.0,60.0,43,0.00,,---,0.01,VWS V14.01,2013-05-09 01:18:00,
2013-05-08 20:19:00,66.3,43.2,29.99,NE,38,60.0,60.0,43,0.00,,---,0.01,VWS V14.01,2013-05-09 01:19:00,
2013-05-08 20:20:00,66.3,43.2,29.99,NNE,31,60.0,60.0,43,0.00,,---,0.01,VWS V14.01,2013-05-09 01:20:00,
2013-05-08 20:21:00,66.1,43.0,29.99,North,353,60.0,60.0,43,0.00,,---,0.01,VWS V14.01,2013-05-09 01:21:00,
2013-05-08 20:22:00,66.1,43.0,29.99,NW,326,60.0,60.0,43,0.00,,---,0.01,VWS V14.01,2013-05-09 01:22:00,
2013-05-08 20:23:00,66.0,42.9,29.99,NW,326,60.0,60.0,43,0.00,,---,0.01,VWS V14.01,2013-05-09 01:23:00,
2013-05-08 20:24:00,66.0,42.9,29.99,NNE,21,60.0,60.0,43,0.00,,---,0.01,VWS V14.01,2013-05-09 01:24:00,
2013-05-08 20:25:00,66.0,42.9,29.99,NNE,13,60.0,60.0,43,0.00,,---,0.01,VWS V14.01,2013-05-09 01:25:00,
2013-05-08 20:26:00,65.8,42.7,29.99,North,6,60.0,60.0,43,0.00,,---,0.01,VWS V14.01,2013-05-09 01:26:00,
2013-05-08 20:27:00,65.6,43.1,29.99,NW,322,60.0,60.0,44,0.00,,---,0.01,VWS V14.01,2013-05-09 01:27:00,
2013-05-08 20:28:00,65.6,42.5,29.99,NE,38,60.0,60.0,43,0.00,,---,0.01,VWS V14.01,2013-05-09 01:28:00,
2013-05-08 20:29:00,65.5,42.4,29.99,NE,55,60.0,60.0,43,0.00,,---,0.01,VWS V14.01,2013-05-09 01:29:00,
2013-05-08 20:30:00,65.5,43.0,29.99,NNE,14,60.0,60.0,44,0.00,,---,0.01,VWS V14.01,2013-05-09 01:30:00,
2013-05-08 20:31:00,65.3,42.8,29.99,North,4,60.0,60.0,44,0.00,,---,0.01,VWS V14.01,2013-05-09 01:31:00,
2013-05-08 20:32:00,65.3,42.8,29.99,North,0,60.0,60.0,44,0.00,,---,0.01,VWS V14.01,2013-05-09 01:32:00,
2013-05-08 20:33:00,65.3,42.8,29.99,North,0,60.0,60.0,44,0.00,,---,0.01,VWS V14.01,2013-05-09 01:33:00,
2013-05-08 20:34:00,65.2,42.8,29.99,NW,326,60.0,60.0,44,0.00,,---,0.01,VWS V14.01,2013-05-09 01:34:00,
2013-05-08 20:35:00,65.0,42.6,29.99,North,6,60.0,60.0,44,0.00,,---,0.01,VWS V14.01,2013-05-09 01:35:00,
2013-05-08 20:36:00,65.0,42.6,29.99,North,6,60.0,60.0,44,0.00,,---,0.01,VWS V14.01,2013-05-09 01:36:00,
2013-05-08 20:37:00,64.8,42.4,29.99,North,4,60.0,60.0,44,0.00,,---,0.01,VWS V14.01,2013-05-09 01:37:00,
2013-05-08 20:38:00,64.7,42.3,29.99,North,4,60.0,60.0,44,0.00,,---,0.01,VWS V14.01,2013-05-09 01:38:00,
2013-05-08 20:39:00,64.5,42.1,29.99,North,7,60.0,60.0,44,0.00,,---,0.01,VWS V14.01,2013-05-09 01:39:00,
2013-05-08 20:40:00,64.3,41.9,29.99,North,7,60.0,60.0,44,0.00,,---,0.01,VWS V14.01,2013-05-09 01:40:00,
2013-05-08 20:41:00,64.2,41.8,29.99,North,7,60.0,60.0,44,0.00,,---,0.01,VWS V14.01,2013-05-09 01:41:00,
2013-05-08 20:42:00,64.0,41.7,29.99,NNE,21,60.0,60.0,44,0.00,,---,0.01,VWS V14.01,2013-05-09 01:42:00,
2013-05-08 20:43:00,63.9,42.2,29.99,NNE,21,60.0,60.0,45,0.00,,---,0.01,VWS V14.01,2013-05-09 01:43:00,
2013-05-08 20:44:00,63.9,42.2,29.99,North,11,60.0,60.0,45,0.00,,---,0.01,VWS V14.01,2013-05-09 01:44:00,
2013-05-08 20:45:00,63.7,42.0,30.00,North,11,60.0,60.0,45,0.00,,---,0.01,VWS V14.01,2013-05-09 01:45:00,
2013-05-08 20:46:00,63.5,41.8,30.00,North,11,60.0,60.0,45,0.00,,---,0.01,VWS V14.01,2013-05-09 01:46:00,
2013-05-08 20:47:00,63.4,41.7,30.00,North,6,60.0,60.0,45,0.00,,---,0.01,VWS V14.01,2013-05-09 01:47:00,
2013-05-08 20:48:00,63.2,42.1,30.00,North,6,60.0,60.0,46,0.00,,---,0.01,VWS V14.01,2013-05-09 01:48:00,
2013-05-08 20:49:00,63.2,42.1,30.00,North,6,60.0,60.0,46,0.00,,---,0.01,VWS V14.01,2013-05-09 01:49:00,
2013-05-08 20:50:00,63.1,42.0,30.00,North,6,60.0,60.0,46,0.00,,---,0.01,VWS V14.01,2013-05-09 01:50:00,
2013-05-08 20:51:00,62.9,41.8,30.00,North,6,60.0,60.0,46,0.00,,---,0.01,VWS V14.01,2013-05-09 01:51:00,
2013-05-08 20:52:00,62.9,41.8,30.00,North,6,60.0,60.0,46,0.00,,---,0.01,VWS V14.01,2013-05-09 01:52:00,
2013-05-08 20:53:00,62.7,41.6,30.00,North,6,60.0,60.0,46,0.00,,---,0.01,VWS V14.01,2013-05-09 01:53:00,
2013-05-08 20:54:00,62.7,41.6,30.00,North,6,60.0,60.0,46,0.00,,---,0.01,VWS V14.01,2013-05-09 01:54:00,
2013-05-08 20:55:00,62.6,41.5,30.00,North,6,60.0,60.0,46,0.00,,---,0.01,VWS V14.01,2013-05-09 01:55:00,
2013-05-08 20:56:00,62.4,41.4,30.00,North,6,60.0,60.0,46,0.00,,---,0.01,VWS V14.01,2013-05-09 01:56:00,
2013-05-08 20:57:00,62.4,41.4,30.00,North,6,60.0,60.0,46,0.00,,---,0.01,VWS V14.01,2013-05-09 01:57:00,
2013-05-08 20:58:00,62.3,41.3,30.00,North,6,60.0,60.0,46,0.00,,---,0.01,VWS V14.01,2013-05-09 01:58:00,
2013-05-08 20:59:00,62.1,41.7,30.00,North,6,60.0,60.0,47,0.00,,---,0.01,VWS V14.01,2013-05-09 01:59:00,
2013-05-08 21:00:00,62.0,41.6,30.00,North,6,60.0,60.0,47,0.00,,---,0.01,VWS V14.01,2013-05-09 02:00:00,
2013-05-08 21:01:00,61.8,40.8,30.00,North,6,60.0,60.0,46,0.00,,---,0.01,VWS V14.01,2013-05-09 02:01:00,
2013-05-08 21:02:00,61.8,40.8,30.00,North,6,60.0,60.0,46,0.00,,---,0.01,VWS V14.01,2013-05-09 02:02:00,
2013-05-08 21:03:00,61.5,41.1,30.00,North,6,60.0,60.0,47,0.00,,---,0.01,VWS V14.01,2013-05-09 02:03:00,
2013-05-08 21:04:00,61.3,40.9,30.00,North,4,60.0,60.0,47,0.00,,---,0.01,VWS V14.01,2013-05-09 02:04:00,
2013-05-08 21:05:00,61.2,40.8,30.00,North,4,60.0,60.0,47,0.00,,---,0.01,VWS V14.01,2013-05-09 02:05:00,
2013-05-08 21:06:00,61.0,40.7,30.00,North,4,60.0,60.0,47,0.00,,---,0.01,VWS V14.01,2013-05-09 02:06:00,
2013-05-08 21:07:00,60.9,40.5,30.00,North,4,60.0,60.0,47,0.00,,---,0.01,VWS V14.01,2013-05-09 02:07:00,
2013-05-08 21:08:00,60.7,40.9,30.00,North,4,60.0,60.0,48,0.00,,---,0.01,VWS V14.01,2013-05-09 02:08:00,
2013-05-08 21:09:00,60.5,40.7,30.00,North,4,60.0,60.0,48,0.00,,---,0.01,VWS V14.01,2013-05-09 02:09:00,
2013-05-08 21:10:00,60.5,40.2,30.00,North,4,60.0,60.0,47,0.00,,---,0.01,VWS V14.01,2013-05-09 02:10:00,
2013-05-08 21:11:00,60.4,40.6,30.00,North,4,60.0,60.0,48,0.00,,---,0.01,VWS V14.01,2013-05-09 02:11:00,
2013-05-08 21:12:00,60.2,40.5,30.00,North,4,60.0,60.0,48,0.00,,---,0.01,VWS V14.01,2013-05-09 02:12:00,
2013-05-08 21:13:00,60.1,40.4,30.00,North,4,60.0,60.0,48,0.00,,---,0.01,VWS V14.01,2013-05-09 02:13:00,
2013-05-08 21:14:00,60.1,40.4,30.00,North,4,60.0,60.0,48,0.00,,---,0.01,VWS V14.01,2013-05-09 02:14:00,
2013-05-08 21:15:00,59.9,40.2,30.00,North,7,60.0,60.0,48,0.00,,---,0.01,VWS V14.01,2013-05-09 02:15:00,
2013-05-08 21:16:00,59.8,40.1,30.00,North,4,60.0,60.0,48,0.00,,---,0.01,VWS V14.01,2013-05-09 02:16:00,
2013-05-08 21:17:00,59.8,40.1,30.00,NW,326,60.0,60.0,48,0.00,,---,0.01,VWS V14.01,2013-05-09 02:17:00,
2013-05-08 21:18:00,59.6,40.4,30.00,NNW,347,60.0,60.0,49,0.00,,---,0.01,VWS V14.01,2013-05-09 02:18:00,
2013-05-08 21:19:00,59.6,40.4,30.00,North,353,60.0,60.0,49,0.00,,---,0.01,VWS V14.01,2013-05-09 02:19:00,
2013-05-08 21:20:00,59.5,40.3,30.00,North,0,60.0,60.0,49,0.00,,---,0.01,VWS V14.01,2013-05-09 02:20:00,
2013-05-08 21:21:00,59.5,40.3,30.00,North,359,60.0,60.0,49,0.00,,---,0.01,VWS V14.01,2013-05-09 02:21:00,
2013-05-08 21:22:00,59.3,40.2,30.00,North,359,60.0,60.0,49,0.00,,---,0.01,VWS V14.01,2013-05-09 02:22:00,
2013-05-08 21:23:00,59.3,40.2,30.00,NW,322,60.0,60.0,49,0.00,,---,0.01,VWS V14.01,2013-05-09 02:23:00,
2013-05-08 21:24:00,59.2,40.1,30.00,NNW,337,60.0,60.0,49,0.00,,---,0.01,VWS V14.01,2013-05-09 02:24:00,
2013-05-08 21:25:00,59.2,40.1,30.00,North,0,60.0,60.0,49,0.00,,---,0.01,VWS V14.01,2013-05-09 02:25:00,
2013-05-08 21:26:00,59.0,39.9,30.00,North,353,60.0,60.0,49,0.00,,---,0.01,VWS V14.01,2013-05-09 02:26:00,
2013-05-08 21:27:00,58.9,39.8,30.00,North,0,60.0,60.0,49,0.00,,---,0.01,VWS V14.01,2013-05-09 02:27:00,
2013-05-08 21:28:00,58.9,39.8,30.00,NW,325,60.0,60.0,49,0.00,,---,0.01,VWS V14.01,2013-05-09 02:28:00,
2013-05-08 21:29:00,58.7,39.6,30.00,North,8,60.0,60.0,49,0.00,,---,0.01,VWS V14.01,2013-05-09 02:29:00,
2013-05-08 21:30:00,58.7,39.6,30.00,NNE,21,60.0,60.0,49,0.00,,---,0.01,VWS V14.01,2013-05-09 02:30:00,
2013-05-08 21:31:00,58.6,40.0,30.00,North,11,60.0,60.0,50,0.00,,---,0.01,VWS V14.01,2013-05-09 02:31:00,
2013-05-08 21:32:00,58.6,40.0,30.00,North,359,60.0,60.0,50,0.00,,---,0.01,VWS V14.01,2013-05-09 02:32:00,
2013-05-08 21:33:00,58.6,40.0,30.00,NW,326,60.0,60.0,50,0.00,,---,0.01,VWS V14.01,2013-05-09 02:33:00,
2013-05-08 21:34:00,58.4,39.8,30.00,NW,323,60.0,60.0,50,0.00,,---,0.01,VWS V14.01,2013-05-09 02:34:00,
2013-05-08 21:35:00,58.4,39.8,30.00,North,0,60.0,60.0,50,0.00,,---,0.01,VWS V14.01,2013-05-09 02:35:00,
2013-05-08 21:36:00,58.4,39.8,30.00,North,359,60.0,60.0,50,0.00,,---,0.01,VWS V14.01,2013-05-09 02:36:00,
2013-05-08 21:37:00,58.3,39.8,30.00,NNW,336,60.0,60.0,50,0.00,,---,0.01,VWS V14.01,2013-05-09 02:37:00,
2013-05-08 21:38:00,58.3,39.2,30.00,North,7,60.0,60.0,49,0.00,,---,0.01,VWS V14.01,2013-05-09 02:38:00,
2013-05-08 21:39:00,58.3,39.2,30.00,North,0,60.0,60.0,49,0.00,,---,0.01,VWS V14.01,2013-05-09 02:39:00,
2013-05-08 21:40:00,58.3,39.2,30.00,North,1,60.0,60.0,49,0.00,,---,0.01,VWS V14.01,2013-05-09 02:40:00,
2013-05-08 21:41:00,58.3,39.2,30.00,NNE,20,60.0,60.0,49,0.00,,---,0.01,VWS V14.01,2013-05-09 02:41:00,
2013-05-08 21:42:00,58.3,39.2,30.00,North,359,60.0,60.0,49,0.00,,---,0.01,VWS V14.01,2013-05-09 02:42:00,
2013-05-08 21:43:00,58.4,38.8,30.00,North,11,60.0,60.0,48,0.00,,---,0.01,VWS V14.01,2013-05-09 02:43:00,
2013-05-08 21:44:00,58.4,38.8,30.00,North,0,60.0,60.0,48,0.00,,---,0.01,VWS V14.01,2013-05-09 02:44:00,
2013-05-08 21:45:00,58.4,38.8,30.01,North,8,60.0,60.0,48,0.00,,---,0.01,VWS V14.01,2013-05-09 02:45:00,
2013-05-08 21:46:00,58.4,38.8,30.01,NNW,328,60.0,60.0,48,0.00,,---,0.01,VWS V14.01,2013-05-09 02:46:00,
2013-05-08 21:47:00,58.4,38.8,30.01,NNE,18,60.0,60.0,48,0.00,,---,0.01,VWS V14.01,2013-05-09 02:47:00,
2013-05-08 21:48:00,58.4,38.8,30.01,North,350,60.0,60.0,48,0.00,,---,0.01,VWS V14.01,2013-05-09 02:48:00,
2013-05-08 21:49:00,58.4,38.3,30.01,North,7,60.0,60.0,47,0.00,,---,0.01,VWS V14.01,2013-05-09 02:49:00,
2013-05-08 21:50:00,58.4,38.8,30.01,NW,320,60.0,60.0,48,0.00,,---,0.01,VWS V14.01,2013-05-09 02:50:00,
2013-05-08 21:51:00,58.3,38.7,30.01,North,6,60.0,60.0,48,0.00,,---,0.01,VWS V14.01,2013-05-09 02:51:00,
2013-05-08 21:52:00,58.3,38.7,30.01,NNW,346,60.0,60.0,48,0.00,,---,0.01,VWS V14.01,2013-05-09 02:52:00,
2013-05-08 21:53:00,58.3,38.7,30.01,North,0,60.0,60.0,48,0.00,,---,0.01,VWS V14.01,2013-05-09 02:53:00,
2013-05-08 21:54:00,58.3,38.7,30.01,NW,319,60.0,60.0,48,0.00,,---,0.01,VWS V14.01,2013-05-09 02:54:00,
2013-05-08 21:55:00,58.1,38.5,30.01,North,3,60.0,60.0,48,0.00,,---,0.01,VWS V14.01,2013-05-09 02:55:00,
2013-05-08 21:56:00,58.1,38.5,30.01,NNE,13,60.0,60.0,48,0.00,,---,0.01,VWS V14.01,2013-05-09 02:56:00,
2013-05-08 21:57:00,58.1,38.5,30.01,North,4,60.0,60.0,48,0.00,,---,0.01,VWS V14.01,2013-05-09 02:57:00,
2013-05-08 21:58:00,58.0,38.4,30.01,North,1,60.0,60.0,48,0.00,,---,0.01,VWS V14.01,2013-05-09 02:58:00,
2013-05-08 21:59:00,58.0,38.4,30.01,NNE,17,60.0,60.0,48,0.00,,---,0.01,VWS V14.01,2013-05-09 02:59:00,
2013-05-08 22:00:00,57.8,38.3,30.01,North,0,60.0,60.0,48,0.00,,---,0.01,VWS V14.01,2013-05-09 03:00:00,
2013-05-08 22:01:00,57.8,38.3,30.01,North,349,60.0,60.0,48,0.00,,---,0.01,VWS V14.01,2013-05-09 03:01:00,
2013-05-08 22:02:00,57.6,38.1,30.01,NNE,13,60.0,60.0,48,0.00,,---,0.01,VWS V14.01,2013-05-09 03:02:00,
2013-05-08 22:03:00,57.6,38.1,30.01,NNW,346,60.0,60.0,48,0.00,,---,0.01,VWS V14.01,2013-05-09 03:03:00,
2013-05-08 22:04:00,57.5,38.0,30.01,NW,322,60.0,60.0,48,0.00,,---,0.01,VWS V14.01,2013-05-09 03:04:00,
2013-05-08 22:05:00,57.5,38.0,30.01,North,0,60.0,60.0,48,0.00,,---,0.01,VWS V14.01,2013-05-09 03:05:00,
2013-05-08 22:06:00,57.3,38.3,30.01,North,1,60.0,60.0,49,0.00,,---,0.01,VWS V14.01,2013-05-09 03:06:00,
2013-05-08 22:07:00,57.3,38.3,30.01,North,0,60.0,60.0,49,0.00,,---,0.01,VWS V14.01,2013-05-09 03:07:00,
2013-05-08 22:08:00,57.2,38.2,30.01,NE,37,60.0,60.0,49,0.00,,---,0.01,VWS V14.01,2013-05-09 03:08:00,
2013-05-08 22:09:00,57.2,38.2,30.01,ENE,78,60.0,60.0,49,0.00,,---,0.01,VWS V14.01,2013-05-09 03:09:00,
2013-05-08 22:10:00,57.2,38.2,30.01,NNE,18,60.0,60.0,49,0.00,,---,0.01,VWS V14.01,2013-05-09 03:10:00,
2013-05-08 22:11:00,57.0,38.0,30.01,North,3,60.0,60.0,49,0.00,,---,0.01,VWS V14.01,2013-05-09 03:11:00,
2013-05-08 22:12:00,57.0,38.0,30.01,North,4,60.0,60.0,49,0.00,,---,0.01,VWS V14.01,2013-05-09 03:12:00,
2013-05-08 22:13:00,57.0,38.0,30.01,North,0,60.0,60.0,49,0.00,,---,0.01,VWS V14.01,2013-05-09 03:13:00,
2013-05-08 22:14:00,56.9,38.0,30.02,NW,326,60.0,60.0,49,0.00,,---,0.01,VWS V14.01,2013-05-09 03:14:00,
2013-05-08 22:15:00,56.9,38.0,30.02,North,11,60.0,60.0,49,0.00,,---,0.01,VWS V14.01,2013-05-09 03:15:00,
2013-05-08 22:16:00,56.9,38.5,30.02,North,6,60.0,60.0,50,0.00,,---,0.01,VWS V14.01,2013-05-09 03:16:00,
2013-05-08 22:17:00,56.7,37.8,30.02,North,11,60.0,60.0,49,0.00,,---,0.01,VWS V14.01,2013-05-09 03:17:00,
2013-05-08 22:18:00,56.7,37.8,30.02,North,6,60.0,60.0,49,0.00,,---,0.01,VWS V14.01,2013-05-09 03:18:00,
2013-05-08 22:19:00,56.7,38.3,30.02,North,353,60.0,60.0,50,0.00,,---,0.01,VWS V14.01,2013-05-09 03:19:00,
2013-05-08 22:20:00,56.6,38.2,30.02,North,3,60.0,60.0,50,0.00,,---,0.01,VWS V14.01,2013-05-09 03:20:00,
2013-05-08 22:21:00,56.6,38.2,30.02,North,8,60.0,60.0,50,0.00,,---,0.01,VWS V14.01,2013-05-09 03:21:00,
2013-05-08 22:22:00,56.6,38.2,30.02,North,0,60.0,60.0,50,0.00,,---,0.01,VWS V14.01,2013-05-09 03:22:00,
2013-05-08 22:23:00,56.5,38.1,30.02,North,8,60.0,60.0,50,0.00,,---,0.01,VWS V14.01,2013-05-09 03:23:00,
2013-05-08 22:24:00,56.5,38.1,30.02,NNW,336,60.0,60.0,50,0.00,,---,0.01,VWS V14.01,2013-05-09 03:24:00,
2013-05-08 22:25:00,56.5,38.1,30.02,North,0,60.0,60.0,50,0.00,,---,0.01,VWS V14.01,2013-05-09 03:25:00,
2013-05-08 22:26:00,56.3,37.9,30.02,North,6,60.0,60.0,50,0.00,,---,0.01,VWS V14.01,2013-05-09 03:26:00,
2013-05-08 22:27:00,56.3,37.9,30.02,North,357,60.0,60.0,50,0.00,,---,0.01,VWS V14.01,2013-05-09 03:27:00,
2013-05-08 22:28:00,56.3,37.9,30.02,North,6,60.0,60.0,50,0.00,,---,0.01,VWS V14.01,2013-05-09 03:28:00,
2013-05-08 22:29:00,56.2,37.8,30.03,NNE,17,60.0,60.0,50,0.00,,---,0.01,VWS V14.01,2013-05-09 03:29:00,
2013-05-08 22:30:00,56.2,37.8,30.03,NNW,329,60.0,60.0,50,0.00,,---,0.01,VWS V14.01,2013-05-09 03:30:00,
2013-05-08 22:31:00,56.0,37.6,30.03,NE,42,60.0,60.0,50,0.00,,---,0.01,VWS V14.01,2013-05-09 03:31:00,
2013-05-08 22:32:00,56.0,37.6,30.03,NNE,16,60.0,60.0,50,0.00,,---,0.01,VWS V14.01,2013-05-09 03:32:00,
2013-05-08 22:33:00,56.0,37.6,30.03,North,0,60.0,60.0,50,0.00,,---,0.01,VWS V14.01,2013-05-09 03:33:00,
2013-05-08 22:34:00,55.9,37.5,30.03,NE,40,60.0,60.0,50,0.00,,---,0.01,VWS V14.01,2013-05-09 03:34:00,
2013-05-08 22:35:00,55.9,37.5,30.03,North,349,60.0,60.0,50,0.00,,---,0.01,VWS V14.01,2013-05-09 03:35:00,
2013-05-08 22:36:00,55.9,37.5,30.03,NNE,13,60.0,60.0,50,0.00,,---,0.01,VWS V14.01,2013-05-09 03:36:00,
2013-05-08 22:37:00,55.7,37.4,30.03,NE,44,60.0,60.0,50,0.00,,---,0.01,VWS V14.01,2013-05-09 03:37:00,
2013-05-08 22:38:00,55.7,37.4,30.03,NW,326,60.0,60.0,50,0.00,,---,0.01,VWS V14.01,2013-05-09 03:38:00,
2013-05-08 22:39:00,55.7,37.4,30.03,North,0,60.0,60.0,50,0.00,,---,0.01,VWS V14.01,2013-05-09 03:39:00,
2013-05-08 22:40:00,55.6,37.3,30.03,NNE,13,60.0,60.0,50,0.00,,---,0.01,VWS V14.01,2013-05-09 03:40:00,
2013-05-08 22:41:00,55.6,37.3,30.03,NW,319,60.0,60.0,50,0.00,,---,0.01,VWS V14.01,2013-05-09 03:41:00,
2013-05-08 22:42:00,55.6,37.3,30.03,North,1,60.0,60.0,50,0.00,,---,0.01,VWS V14.01,2013-05-09 03:42:00,
2013-05-08 22:43:00,55.4,37.1,30.03,North,354,60.0,60.0,50,0.00,,---,0.01,VWS V14.01,2013-05-09 03:43:00,
2013-05-08 22:44:00,55.4,37.1,30.03,North,0,60.0,60.0,50,0.00,,---,0.01,VWS V14.01,2013-05-09 03:44:00,
2013-05-08 22:45:00,55.4,37.1,30.03,NE,35,60.0,60.0,50,0.00,,---,0.01,VWS V14.01,2013-05-09 03:45:00,
2013-05-08 22:46:00,55.3,37.0,30.03,North,0,60.0,60.0,50,0.00,,---,0.01,VWS V14.01,2013-05-09 03:46:00,
2013-05-08 22:47:00,55.3,37.0,30.03,NNE,17,60.0,60.0,50,0.00,,---,0.01,VWS V14.01,2013-05-09 03:47:00,
2013-05-08 22:48:00,55.1,36.8,30.03,NNE,13,60.0,60.0,50,0.00,,---,0.01,VWS V14.01,2013-05-09 03:48:00,
2013-05-08 22:49:00,55.1,36.8,30.03,North,357,60.0,60.0,50,0.00,,---,0.01,VWS V14.01,2013-05-09 03:49:00,
2013-05-08 22:50:00,55.1,36.8,30.03,North,1,60.0,60.0,50,0.00,,---,0.01,VWS V14.01,2013-05-09 03:50:00,
2013-05-08 22:51:00,55.0,36.7,30.03,North,0,60.0,60.0,50,0.00,,---,0.01,VWS V14.01,2013-05-09 03:51:00,
2013-05-08 22:52:00,55.0,36.7,30.03,North,0,60.0,60.0,50,0.00,,---,0.01,VWS V14.01,2013-05-09 03:52:00,
2013-05-08 22:53:00,54.8,36.5,30.03,North,6,60.0,60.0,50,0.00,,---,0.01,VWS V14.01,2013-05-09 03:53:00,
2013-05-08 22:54:00,54.8,36.5,30.03,North,3,60.0,60.0,50,0.00,,---,0.01,VWS V14.01,2013-05-09 03:54:00,
2013-05-08 22:55:00,54.8,36.5,30.03,North,3,60.0,60.0,50,0.00,,---,0.01,VWS V14.01,2013-05-09 03:55:00,
2013-05-08 22:56:00,54.7,36.9,30.03,North,1,60.0,60.0,51,0.00,,---,0.01,VWS V14.01,2013-05-09 03:56:00,
2013-05-08 22:57:00,54.7,36.9,30.03,North,0,60.0,60.0,51,0.00,,---,0.01,VWS V14.01,2013-05-09 03:57:00,
2013-05-08 22:58:00,54.7,36.9,30.03,North,359,60.0,60.0,51,0.00,,---,0.01,VWS V14.01,2013-05-09 03:58:00,
2013-05-08 22:59:00,54.7,36.9,30.03,North,0,60.0,60.0,51,0.00,,---,0.01,VWS V14.01,2013-05-09 03:59:00,
2013-05-08 23:00:00,54.5,36.8,30.03,NNE,23,60.0,60.0,51,0.00,,---,0.01,VWS V14.01,2013-05-09 04:00:00,
2013-05-08 23:01:00,54.5,36.8,30.03,North,0,60.0,60.0,51,0.00,,---,0.01,VWS V14.01,2013-05-09 04:01:00,
2013-05-08 23:02:00,54.5,36.8,30.03,North,0,60.0,60.0,51,0.00,,---,0.01,VWS V14.01,2013-05-09 04:02:00,
2013-05-08 23:03:00,54.4,36.7,30.03,North,352,60.0,60.0,51,0.00,,---,0.01,VWS V14.01,2013-05-09 04:03:00,
2013-05-08 23:04:00,54.4,36.7,30.03,NNE,17,60.0,60.0,51,0.00,,---,0.01,VWS V14.01,2013-05-09 04:04:00,
2013-05-08 23:05:00,54.2,36.5,30.03,North,349,60.0,60.0,51,0.00,,---,0.01,VWS V14.01,2013-05-09 04:05:00,
2013-05-08 23:06:00,54.2,37.5,30.03,North,0,60.0,60.0,53,0.00,,---,0.01,VWS V14.01,2013-05-09 04:06:00,
2013-05-08 23:07:00,54.1,36.4,30.03,North,8,60.0,60.0,51,0.00,,---,0.01,VWS V14.01,2013-05-09 04:07:00,
2013-05-08 23:08:00,54.1,36.4,30.03,NW,320,60.0,60.0,51,0.00,,---,0.01,VWS V14.01,2013-05-09 04:08:00,
2013-05-08 23:09:00,53.9,36.7,30.03,North,359,60.0,60.0,52,0.00,,---,0.01,VWS V14.01,2013-05-09 04:09:00,
2013-05-08 23:10:00,53.9,36.7,30.03,North,1,60.0,60.0,52,0.00,,---,0.01,VWS V14.01,2013-05-09 04:10:00,
2013-05-08 23:11:00,53.8,36.6,30.03,NE,49,60.0,60.0,52,0.00,,---,0.01,VWS V14.01,2013-05-09 04:11:00,
2013-05-08 23:12:00,53.8,36.6,30.03,North,0,60.0,60.0,52,0.00,,---,0.01,VWS V14.01,2013-05-09 04:12:00,
2013-05-08 23:13:00,53.6,36.4,30.03,North,359,60.0,60.0,52,0.00,,---,0.01,VWS V14.01,2013-05-09 04:13:00,
2013-05-08 23:14:00,53.5,36.3,30.03,North,10,60.0,60.0,52,0.00,,---,0.01,VWS V14.01,2013-05-09 04:14:00,
2013-05-08 23:15:00,53.5,36.3,30.03,NW,316,60.0,60.0,52,0.00,,---,0.01,VWS V14.01,2013-05-09 04:15:00,
2013-05-08 23:16:00,53.3,36.1,30.03,NW,326,60.0,60.0,52,0.00,,---,0.01,VWS V14.01,2013-05-09 04:16:00,
2013-05-08 23:17:00,53.3,36.1,30.03,North,10,60.0,60.0,52,0.00,,---,0.01,VWS V14.01,2013-05-09 04:17:00,
2013-05-08 23:18:00,53.2,36.0,30.03,North,0,60.0,60.0,52,0.00,,---,0.01,VWS V14.01,2013-05-09 04:18:00,
2013-05-08 23:19:00,53.2,36.0,30.03,NNE,17,60.0,60.0,52,0.00,,---,0.01,VWS V14.01,2013-05-09 04:19:00,
2013-05-08 23:20:00,53.2,36.0,30.03,North,354,60.0,60.0,52,0.00,,---,0.01,VWS V14.01,2013-05-09 04:20:00,
2013-05-08 23:21:00,53.1,36.0,30.03,North,6,60.0,60.0,52,0.00,,---,0.01,VWS V14.01,2013-05-09 04:21:00,
2013-05-08 23:22:00,53.1,36.0,30.03,North,0,60.0,60.0,52,0.00,,---,0.01,VWS V14.01,2013-05-09 04:22:00,
2013-05-08 23:23:00,52.9,36.2,30.03,North,7,60.0,60.0,53,0.00,,---,0.01,VWS V14.01,2013-05-09 04:23:00,
2013-05-08 23:24:00,52.9,36.2,30.03,North,1,60.0,60.0,53,0.00,,---,0.01,VWS V14.01,2013-05-09 04:24:00,
2013-05-08 23:25:00,52.9,36.2,30.03,NW,323,60.0,60.0,53,0.00,,---,0.01,VWS V14.01,2013-05-09 04:25:00,
2013-05-08 23:26:00,52.8,36.2,30.03,North,0,60.0,60.0,53,0.00,,---,0.01,VWS V14.01,2013-05-09 04:26:00,
2013-05-08 23:27:00,52.8,36.2,30.03,North,6,60.0,60.0,53,0.00,,---,0.01,VWS V14.01,2013-05-09 04:27:00,
2013-05-08 23:28:00,52.8,36.2,30.03,ENE,62,60.0,60.0,53,0.00,,---,0.01,VWS V14.01,2013-05-09 04:28:00,
2013-05-08 23:29:00,52.6,36.0,30.03,North,8,60.0,60.0,53,0.00,,---,0.01,VWS V14.01,2013-05-09 04:29:00,
2013-05-08 23:30:00,52.6,37.8,30.03,North,3,60.0,60.0,57,0.00,,---,0.01,VWS V14.01,2013-05-09 04:30:00,
2013-05-08 23:31:00,52.6,36.0,30.03,North,359,60.0,60.0,53,0.00,,---,0.01,VWS V14.01,2013-05-09 04:31:00,
2013-05-08 23:32:00,52.5,35.9,30.03,North,10,60.0,60.0,53,0.00,,---,0.01,VWS V14.01,2013-05-09 04:32:00,
2013-05-08 23:33:00,52.5,35.9,30.03,NW,320,60.0,60.0,53,0.00,,---,0.01,VWS V14.01,2013-05-09 04:33:00,
2013-05-08 23:34:00,52.5,35.9,30.03,NNW,336,60.0,60.0,53,0.00,,---,0.01,VWS V14.01,2013-05-09 04:34:00,
2013-05-08 23:35:00,52.3,35.7,30.03,NNE,21,60.0,60.0,53,0.00,,---,0.01,VWS V14.01,2013-05-09 04:35:00,
2013-05-08 23:36:00,52.3,35.7,30.03,North,8,60.0,60.0,53,0.00,,---,0.01,VWS V14.01,2013-05-09 04:36:00,
2013-05-08 23:37:00,52.3,36.2,30.03,North,11,60.0,60.0,54,0.00,,---,0.01,VWS V14.01,2013-05-09 04:37:00,
2013-05-08 23:38:00,52.2,36.1,30.03,North,359,60.0,60.0,54,0.00,,---,0.01,VWS V14.01,2013-05-09 04:38:00,
2013-05-08 23:39:00,52.2,36.1,30.03,NNE,17,60.0,60.0,54,0.00,,---,0.01,VWS V14.01,2013-05-09 04:39:00,
2013-05-08 23:40:00,52.2,36.1,30.03,North,3,60.0,60.0,54,0.00,,---,0.01,VWS V14.01,2013-05-09 04:40:00,
2013-05-08 23:41:00,52.2,36.1,30.03,North,7,60.0,60.0,54,0.00,,---,0.01,VWS V14.01,2013-05-09 04:41:00,
2013-05-08 23:42:00,52.0,35.9,30.03,North,7,60.0,60.0,54,0.00,,---,0.01,VWS V14.01,2013-05-09 04:42:00,
2013-05-08 23:43:00,52.0,35.9,30.03,North,1,60.0,60.0,54,0.00,,---,0.01,VWS V14.01,2013-05-09 04:43:00,
2013-05-08 23:44:00,52.0,35.9,30.03,North,0,60.0,60.0,54,0.00,,---,0.01,VWS V14.01,2013-05-09 04:44:00,
2013-05-08 23:45:00,51.9,35.8,30.03,North,7,60.0,60.0,54,0.00,,---,0.01,VWS V14.01,2013-05-09 04:45:00,
2013-05-08 23:46:00,51.9,35.8,30.03,North,3,60.0,60.0,54,0.00,,---,0.01,VWS V14.01,2013-05-09 04:46:00,
2013-05-08 23:47:00,51.9,35.8,30.03,NNE,21,60.0,60.0,54,0.00,,---,0.01,VWS V14.01,2013-05-09 04:47:00,
2013-05-08 23:48:00,51.7,36.1,30.03,North,0,60.0,60.0,55,0.00,,---,0.01,VWS V14.01,2013-05-09 04:48:00,
2013-05-08 23:49:00,51.7,36.1,30.03,North,0,60.0,60.0,55,0.00,,---,0.01,VWS V14.01,2013-05-09 04:49:00,
2013-05-08 23:50:00,51.7,36.1,30.03,NNE,18,60.0,60.0,55,0.00,,---,0.01,VWS V14.01,2013-05-09 04:50:00,
2013-05-08 23:51:00,51.7,36.1,30.03,NNE,18,60.0,60.0,55,0.00,,---,0.01,VWS V14.01,2013-05-09 04:51:00,
2013-05-08 23:52:00,51.6,36.0,30.03,NE,44,60.0,60.0,55,0.00,,---,0.01,VWS V14.01,2013-05-09 04:52:00,
2013-05-08 23:53:00,51.6,36.0,30.03,NE,42,60.0,60.0,55,0.00,,---,0.01,VWS V14.01,2013-05-09 04:53:00,
2013-05-08 23:54:00,51.6,36.0,30.03,NNE,16,60.0,60.0,55,0.00,,---,0.01,VWS V14.01,2013-05-09 04:54:00,
2013-05-08 23:55:00,51.6,36.0,30.03,North,356,60.0,60.0,55,0.00,,---,0.01,VWS V14.01,2013-05-09 04:55:00,
2013-05-08 23:56:00,51.4,35.8,30.03,NNW,332,60.0,60.0,55,0.00,,---,0.01,VWS V14.01,2013-05-09 04:56:00,
2013-05-08 23:57:00,51.4,35.8,30.03,North,359,60.0,60.0,55,0.00,,---,0.01,VWS V14.01,2013-05-09 04:57:00,
2013-05-08 23:58:00,51.4,35.8,30.03,NNE,28,60.0,60.0,55,0.00,,---,0.01,VWS V14.01,2013-05-09 04:58:00,
2013-05-08 23:59:00,51.4,35.8,30.03,North,6,60.0,60.0,55,0.00,,---,0.01,VWS V14.01,2013-05-09 04:59:00,